<?xml version="1.0" encoding="UTF-8" standalone="no" ?>
<gpx xmlns="http://www.topografix.com/GPX/1/1" xmlns:xsi="http://www.w3.org/2001/XMLSchema-instance" xsi:schemaLocation="http://www.topografix.com/GPX/1/1 http://www.topografix.com/GPX/1/1/gpx.xsd" version="1.1" creator="VisuGPX - https://www.visugpx.com">
  <metadata>
    <name>15 km Cerny en Laonnois</name>
    <desc><![CDATA[15 km Cerny en Laonnois - chemin des Dammes]]></desc>
  </metadata>
  <trk>
    <name><![CDATA[30-AVR-17 05:05:22 PM]]></name>
    <trkseg>
      <trkpt lat="49.4425" lon="3.66891">
        <ele>250.08</ele>
        <time>2017-04-30T10:29:37Z</time>
      </trkpt>
      <trkpt lat="49.44251" lon="3.66889">
        <ele>245.27</ele>
        <time>2017-04-30T10:29:48Z</time>
      </trkpt>
      <trkpt lat="49.44251" lon="3.6689">
        <ele>253.93</ele>
        <time>2017-04-30T10:29:49Z</time>
      </trkpt>
      <trkpt lat="49.4425" lon="3.6689">
        <ele>249.12</ele>
        <time>2017-04-30T10:29:50Z</time>
      </trkpt>
      <trkpt lat="49.44251" lon="3.6689">
        <ele>249.6</ele>
        <time>2017-04-30T10:30:00Z</time>
      </trkpt>
      <trkpt lat="49.44252" lon="3.6689">
        <ele>249.6</ele>
        <time>2017-04-30T10:30:17Z</time>
      </trkpt>
      <trkpt lat="49.44263" lon="3.66884">
        <ele>244.79</ele>
        <time>2017-04-30T10:30:23Z</time>
      </trkpt>
      <trkpt lat="49.44263" lon="3.66884">
        <ele>240.47</ele>
        <time>2017-04-30T10:30:25Z</time>
      </trkpt>
      <trkpt lat="49.44263" lon="3.66884">
        <ele>236.14</ele>
        <time>2017-04-30T10:30:27Z</time>
      </trkpt>
      <trkpt lat="49.44263" lon="3.66884">
        <ele>232.3</ele>
        <time>2017-04-30T10:30:29Z</time>
      </trkpt>
      <trkpt lat="49.44263" lon="3.66884">
        <ele>228.93</ele>
        <time>2017-04-30T10:30:31Z</time>
      </trkpt>
      <trkpt lat="49.44263" lon="3.66885">
        <ele>225.57</ele>
        <time>2017-04-30T10:30:33Z</time>
      </trkpt>
      <trkpt lat="49.44263" lon="3.66885">
        <ele>221.24</ele>
        <time>2017-04-30T10:30:36Z</time>
      </trkpt>
      <trkpt lat="49.44263" lon="3.66885">
        <ele>217.88</ele>
        <time>2017-04-30T10:30:39Z</time>
      </trkpt>
      <trkpt lat="49.44263" lon="3.66884">
        <ele>215.47</ele>
        <time>2017-04-30T10:30:41Z</time>
      </trkpt>
      <trkpt lat="49.44264" lon="3.66884">
        <ele>210.67</ele>
        <time>2017-04-30T10:30:46Z</time>
      </trkpt>
      <trkpt lat="49.44265" lon="3.66883">
        <ele>206.82</ele>
        <time>2017-04-30T10:30:50Z</time>
      </trkpt>
      <trkpt lat="49.44265" lon="3.66883">
        <ele>203.46</ele>
        <time>2017-04-30T10:30:54Z</time>
      </trkpt>
      <trkpt lat="49.44265" lon="3.66883">
        <ele>200.57</ele>
        <time>2017-04-30T10:30:59Z</time>
      </trkpt>
      <trkpt lat="49.44264" lon="3.66882">
        <ele>196.73</ele>
        <time>2017-04-30T10:31:05Z</time>
      </trkpt>
      <trkpt lat="49.44264" lon="3.66882">
        <ele>196.25</ele>
        <time>2017-04-30T10:31:07Z</time>
      </trkpt>
      <trkpt lat="49.44265" lon="3.66882">
        <ele>192.88</ele>
        <time>2017-04-30T10:31:14Z</time>
      </trkpt>
      <trkpt lat="49.44266" lon="3.66878">
        <ele>191.44</ele>
        <time>2017-04-30T10:31:20Z</time>
      </trkpt>
      <trkpt lat="49.44266" lon="3.66878">
        <ele>189.52</ele>
        <time>2017-04-30T10:31:26Z</time>
      </trkpt>
      <trkpt lat="49.44267" lon="3.66878">
        <ele>188.08</ele>
        <time>2017-04-30T10:31:33Z</time>
      </trkpt>
      <trkpt lat="49.44267" lon="3.66878">
        <ele>187.11</ele>
        <time>2017-04-30T10:31:35Z</time>
      </trkpt>
      <trkpt lat="49.44267" lon="3.66881">
        <ele>186.63</ele>
        <time>2017-04-30T10:31:43Z</time>
      </trkpt>
      <trkpt lat="49.44269" lon="3.66886">
        <ele>185.67</ele>
        <time>2017-04-30T10:31:48Z</time>
      </trkpt>
      <trkpt lat="49.44273" lon="3.66896">
        <ele>185.19</ele>
        <time>2017-04-30T10:31:55Z</time>
      </trkpt>
      <trkpt lat="49.44275" lon="3.66899">
        <ele>184.23</ele>
        <time>2017-04-30T10:31:58Z</time>
      </trkpt>
      <trkpt lat="49.44278" lon="3.66906">
        <ele>183.75</ele>
        <time>2017-04-30T10:32:04Z</time>
      </trkpt>
      <trkpt lat="49.44283" lon="3.66917">
        <ele>182.79</ele>
        <time>2017-04-30T10:32:11Z</time>
      </trkpt>
      <trkpt lat="49.44285" lon="3.66924">
        <ele>182.79</ele>
        <time>2017-04-30T10:32:18Z</time>
      </trkpt>
      <trkpt lat="49.44289" lon="3.66931">
        <ele>182.31</ele>
        <time>2017-04-30T10:32:23Z</time>
      </trkpt>
      <trkpt lat="49.44293" lon="3.66938">
        <ele>181.83</ele>
        <time>2017-04-30T10:32:29Z</time>
      </trkpt>
      <trkpt lat="49.44299" lon="3.6695">
        <ele>180.87</ele>
        <time>2017-04-30T10:32:36Z</time>
      </trkpt>
      <trkpt lat="49.44303" lon="3.66959">
        <ele>179.9</ele>
        <time>2017-04-30T10:32:42Z</time>
      </trkpt>
      <trkpt lat="49.44306" lon="3.66968">
        <ele>178.94</ele>
        <time>2017-04-30T10:32:49Z</time>
      </trkpt>
      <trkpt lat="49.44309" lon="3.66978">
        <ele>177.5</ele>
        <time>2017-04-30T10:32:59Z</time>
      </trkpt>
      <trkpt lat="49.44314" lon="3.66987">
        <ele>177.02</ele>
        <time>2017-04-30T10:33:07Z</time>
      </trkpt>
      <trkpt lat="49.44318" lon="3.66996">
        <ele>176.06</ele>
        <time>2017-04-30T10:33:14Z</time>
      </trkpt>
      <trkpt lat="49.44321" lon="3.67002">
        <ele>176.06</ele>
        <time>2017-04-30T10:33:18Z</time>
      </trkpt>
      <trkpt lat="49.44324" lon="3.67004">
        <ele>175.1</ele>
        <time>2017-04-30T10:33:21Z</time>
      </trkpt>
      <trkpt lat="49.4433" lon="3.67015">
        <ele>174.14</ele>
        <time>2017-04-30T10:33:27Z</time>
      </trkpt>
      <trkpt lat="49.44332" lon="3.67018">
        <ele>174.14</ele>
        <time>2017-04-30T10:33:29Z</time>
      </trkpt>
      <trkpt lat="49.44337" lon="3.67023">
        <ele>173.66</ele>
        <time>2017-04-30T10:33:33Z</time>
      </trkpt>
      <trkpt lat="49.44345" lon="3.67033">
        <ele>172.69</ele>
        <time>2017-04-30T10:33:40Z</time>
      </trkpt>
      <trkpt lat="49.44352" lon="3.67043">
        <ele>172.21</ele>
        <time>2017-04-30T10:33:47Z</time>
      </trkpt>
      <trkpt lat="49.4436" lon="3.67052">
        <ele>171.73</ele>
        <time>2017-04-30T10:33:54Z</time>
      </trkpt>
      <trkpt lat="49.44366" lon="3.67059">
        <ele>171.73</ele>
        <time>2017-04-30T10:34:00Z</time>
      </trkpt>
      <trkpt lat="49.4437" lon="3.67064">
        <ele>171.25</ele>
        <time>2017-04-30T10:34:04Z</time>
      </trkpt>
      <trkpt lat="49.44377" lon="3.67073">
        <ele>170.77</ele>
        <time>2017-04-30T10:34:11Z</time>
      </trkpt>
      <trkpt lat="49.44378" lon="3.67074">
        <ele>170.77</ele>
        <time>2017-04-30T10:34:12Z</time>
      </trkpt>
      <trkpt lat="49.44385" lon="3.67082">
        <ele>170.77</ele>
        <time>2017-04-30T10:34:19Z</time>
      </trkpt>
      <trkpt lat="49.44392" lon="3.67089">
        <ele>169.81</ele>
        <time>2017-04-30T10:34:27Z</time>
      </trkpt>
      <trkpt lat="49.44399" lon="3.67096">
        <ele>169.33</ele>
        <time>2017-04-30T10:34:35Z</time>
      </trkpt>
      <trkpt lat="49.44403" lon="3.67101">
        <ele>168.37</ele>
        <time>2017-04-30T10:34:40Z</time>
      </trkpt>
      <trkpt lat="49.44405" lon="3.67106">
        <ele>167.89</ele>
        <time>2017-04-30T10:34:44Z</time>
      </trkpt>
      <trkpt lat="49.44412" lon="3.67113">
        <ele>167.41</ele>
        <time>2017-04-30T10:34:52Z</time>
      </trkpt>
      <trkpt lat="49.44417" lon="3.67119">
        <ele>166.93</ele>
        <time>2017-04-30T10:34:58Z</time>
      </trkpt>
      <trkpt lat="49.44419" lon="3.67123">
        <ele>166.93</ele>
        <time>2017-04-30T10:35:04Z</time>
      </trkpt>
      <trkpt lat="49.44422" lon="3.67126">
        <ele>166.93</ele>
        <time>2017-04-30T10:35:09Z</time>
      </trkpt>
      <trkpt lat="49.4443" lon="3.67136">
        <ele>166.45</ele>
        <time>2017-04-30T10:35:18Z</time>
      </trkpt>
      <trkpt lat="49.44436" lon="3.67145">
        <ele>166.45</ele>
        <time>2017-04-30T10:35:25Z</time>
      </trkpt>
      <trkpt lat="49.44445" lon="3.67154">
        <ele>165.96</ele>
        <time>2017-04-30T10:35:32Z</time>
      </trkpt>
      <trkpt lat="49.4445" lon="3.67159">
        <ele>164.52</ele>
        <time>2017-04-30T10:35:39Z</time>
      </trkpt>
      <trkpt lat="49.44455" lon="3.67163">
        <ele>164.04</ele>
        <time>2017-04-30T10:35:45Z</time>
      </trkpt>
      <trkpt lat="49.4446" lon="3.67165">
        <ele>163.56</ele>
        <time>2017-04-30T10:35:50Z</time>
      </trkpt>
      <trkpt lat="49.44463" lon="3.67168">
        <ele>162.6</ele>
        <time>2017-04-30T10:35:55Z</time>
      </trkpt>
      <trkpt lat="49.44469" lon="3.67173">
        <ele>162.12</ele>
        <time>2017-04-30T10:36:01Z</time>
      </trkpt>
      <trkpt lat="49.4447" lon="3.67174">
        <ele>161.64</ele>
        <time>2017-04-30T10:36:02Z</time>
      </trkpt>
      <trkpt lat="49.44475" lon="3.67182">
        <ele>162.12</ele>
        <time>2017-04-30T10:36:07Z</time>
      </trkpt>
      <trkpt lat="49.44477" lon="3.6719">
        <ele>162.12</ele>
        <time>2017-04-30T10:36:13Z</time>
      </trkpt>
      <trkpt lat="49.44477" lon="3.67197">
        <ele>162.6</ele>
        <time>2017-04-30T10:36:19Z</time>
      </trkpt>
      <trkpt lat="49.44477" lon="3.67198">
        <ele>162.6</ele>
        <time>2017-04-30T10:36:20Z</time>
      </trkpt>
      <trkpt lat="49.44479" lon="3.67205">
        <ele>162.6</ele>
        <time>2017-04-30T10:36:26Z</time>
      </trkpt>
      <trkpt lat="49.44483" lon="3.67211">
        <ele>161.16</ele>
        <time>2017-04-30T10:36:32Z</time>
      </trkpt>
      <trkpt lat="49.44485" lon="3.67213">
        <ele>160.68</ele>
        <time>2017-04-30T10:36:34Z</time>
      </trkpt>
      <trkpt lat="49.44491" lon="3.67217">
        <ele>160.2</ele>
        <time>2017-04-30T10:36:41Z</time>
      </trkpt>
      <trkpt lat="49.44493" lon="3.67218">
        <ele>159.72</ele>
        <time>2017-04-30T10:36:44Z</time>
      </trkpt>
      <trkpt lat="49.44497" lon="3.67223">
        <ele>159.72</ele>
        <time>2017-04-30T10:36:51Z</time>
      </trkpt>
      <trkpt lat="49.44499" lon="3.67224">
        <ele>159.72</ele>
        <time>2017-04-30T10:36:59Z</time>
      </trkpt>
      <trkpt lat="49.445" lon="3.67225">
        <ele>159.72</ele>
        <time>2017-04-30T10:37:07Z</time>
      </trkpt>
      <trkpt lat="49.445" lon="3.67225">
        <ele>160.2</ele>
        <time>2017-04-30T10:37:17Z</time>
      </trkpt>
      <trkpt lat="49.44501" lon="3.67224">
        <ele>160.2</ele>
        <time>2017-04-30T10:37:31Z</time>
      </trkpt>
      <trkpt lat="49.44501" lon="3.67225">
        <ele>161.64</ele>
        <time>2017-04-30T10:37:40Z</time>
      </trkpt>
      <trkpt lat="49.44501" lon="3.67224">
        <ele>160.2</ele>
        <time>2017-04-30T10:37:48Z</time>
      </trkpt>
      <trkpt lat="49.44502" lon="3.67225">
        <ele>160.68</ele>
        <time>2017-04-30T10:37:56Z</time>
      </trkpt>
      <trkpt lat="49.44502" lon="3.67225">
        <ele>160.68</ele>
        <time>2017-04-30T10:38:06Z</time>
      </trkpt>
      <trkpt lat="49.44502" lon="3.67225">
        <ele>160.68</ele>
        <time>2017-04-30T10:38:14Z</time>
      </trkpt>
      <trkpt lat="49.44503" lon="3.67226">
        <ele>160.68</ele>
        <time>2017-04-30T10:38:20Z</time>
      </trkpt>
      <trkpt lat="49.44504" lon="3.67229">
        <ele>160.68</ele>
        <time>2017-04-30T10:38:25Z</time>
      </trkpt>
      <trkpt lat="49.44508" lon="3.67233">
        <ele>160.68</ele>
        <time>2017-04-30T10:38:33Z</time>
      </trkpt>
      <trkpt lat="49.4451" lon="3.67235">
        <ele>160.68</ele>
        <time>2017-04-30T10:38:40Z</time>
      </trkpt>
      <trkpt lat="49.44513" lon="3.67238">
        <ele>160.2</ele>
        <time>2017-04-30T10:38:47Z</time>
      </trkpt>
      <trkpt lat="49.44514" lon="3.67238">
        <ele>160.2</ele>
        <time>2017-04-30T10:38:48Z</time>
      </trkpt>
      <trkpt lat="49.44518" lon="3.67242">
        <ele>161.16</ele>
        <time>2017-04-30T10:38:55Z</time>
      </trkpt>
      <trkpt lat="49.44523" lon="3.67244">
        <ele>161.16</ele>
        <time>2017-04-30T10:39:03Z</time>
      </trkpt>
      <trkpt lat="49.44527" lon="3.67246">
        <ele>161.16</ele>
        <time>2017-04-30T10:39:08Z</time>
      </trkpt>
      <trkpt lat="49.44531" lon="3.67248">
        <ele>161.16</ele>
        <time>2017-04-30T10:39:14Z</time>
      </trkpt>
      <trkpt lat="49.44532" lon="3.67248">
        <ele>161.16</ele>
        <time>2017-04-30T10:39:15Z</time>
      </trkpt>
      <trkpt lat="49.44541" lon="3.67251">
        <ele>161.16</ele>
        <time>2017-04-30T10:39:23Z</time>
      </trkpt>
      <trkpt lat="49.44543" lon="3.67252">
        <ele>161.16</ele>
        <time>2017-04-30T10:39:27Z</time>
      </trkpt>
      <trkpt lat="49.4455" lon="3.67256">
        <ele>161.64</ele>
        <time>2017-04-30T10:39:34Z</time>
      </trkpt>
      <trkpt lat="49.44561" lon="3.67264">
        <ele>162.12</ele>
        <time>2017-04-30T10:39:41Z</time>
      </trkpt>
      <trkpt lat="49.44565" lon="3.6727">
        <ele>163.08</ele>
        <time>2017-04-30T10:39:46Z</time>
      </trkpt>
      <trkpt lat="49.4457" lon="3.6728">
        <ele>163.08</ele>
        <time>2017-04-30T10:39:52Z</time>
      </trkpt>
      <trkpt lat="49.44574" lon="3.67287">
        <ele>164.04</ele>
        <time>2017-04-30T10:39:59Z</time>
      </trkpt>
      <trkpt lat="49.44578" lon="3.67293">
        <ele>163.56</ele>
        <time>2017-04-30T10:40:05Z</time>
      </trkpt>
      <trkpt lat="49.4458" lon="3.67298">
        <ele>163.08</ele>
        <time>2017-04-30T10:40:12Z</time>
      </trkpt>
      <trkpt lat="49.44581" lon="3.67307">
        <ele>163.56</ele>
        <time>2017-04-30T10:40:18Z</time>
      </trkpt>
      <trkpt lat="49.44585" lon="3.67319">
        <ele>163.56</ele>
        <time>2017-04-30T10:40:24Z</time>
      </trkpt>
      <trkpt lat="49.44586" lon="3.6732">
        <ele>163.56</ele>
        <time>2017-04-30T10:40:25Z</time>
      </trkpt>
      <trkpt lat="49.44597" lon="3.67329">
        <ele>162.6</ele>
        <time>2017-04-30T10:40:33Z</time>
      </trkpt>
      <trkpt lat="49.44605" lon="3.67339">
        <ele>162.6</ele>
        <time>2017-04-30T10:40:39Z</time>
      </trkpt>
      <trkpt lat="49.44614" lon="3.67347">
        <ele>162.12</ele>
        <time>2017-04-30T10:40:46Z</time>
      </trkpt>
      <trkpt lat="49.44622" lon="3.67353">
        <ele>161.64</ele>
        <time>2017-04-30T10:40:53Z</time>
      </trkpt>
      <trkpt lat="49.44626" lon="3.67361">
        <ele>162.12</ele>
        <time>2017-04-30T10:40:58Z</time>
      </trkpt>
      <trkpt lat="49.44627" lon="3.67367">
        <ele>161.16</ele>
        <time>2017-04-30T10:41:05Z</time>
      </trkpt>
      <trkpt lat="49.4463" lon="3.67368">
        <ele>161.64</ele>
        <time>2017-04-30T10:41:18Z</time>
      </trkpt>
      <trkpt lat="49.44631" lon="3.67371">
        <ele>162.12</ele>
        <time>2017-04-30T10:41:33Z</time>
      </trkpt>
      <trkpt lat="49.44631" lon="3.6737">
        <ele>162.12</ele>
        <time>2017-04-30T10:41:35Z</time>
      </trkpt>
      <trkpt lat="49.44632" lon="3.67367">
        <ele>162.12</ele>
        <time>2017-04-30T10:41:38Z</time>
      </trkpt>
      <trkpt lat="49.44633" lon="3.67361">
        <ele>162.12</ele>
        <time>2017-04-30T10:41:43Z</time>
      </trkpt>
      <trkpt lat="49.44636" lon="3.6736">
        <ele>162.12</ele>
        <time>2017-04-30T10:41:47Z</time>
      </trkpt>
      <trkpt lat="49.44641" lon="3.67356">
        <ele>161.64</ele>
        <time>2017-04-30T10:41:51Z</time>
      </trkpt>
      <trkpt lat="49.44652" lon="3.67355">
        <ele>160.68</ele>
        <time>2017-04-30T10:42:00Z</time>
      </trkpt>
      <trkpt lat="49.44654" lon="3.67355">
        <ele>160.68</ele>
        <time>2017-04-30T10:42:01Z</time>
      </trkpt>
      <trkpt lat="49.44662" lon="3.67352">
        <ele>160.2</ele>
        <time>2017-04-30T10:42:09Z</time>
      </trkpt>
      <trkpt lat="49.44671" lon="3.67349">
        <ele>159.72</ele>
        <time>2017-04-30T10:42:17Z</time>
      </trkpt>
      <trkpt lat="49.44674" lon="3.67349">
        <ele>158.75</ele>
        <time>2017-04-30T10:42:19Z</time>
      </trkpt>
      <trkpt lat="49.44681" lon="3.67348">
        <ele>157.79</ele>
        <time>2017-04-30T10:42:26Z</time>
      </trkpt>
      <trkpt lat="49.44688" lon="3.67347">
        <ele>157.79</ele>
        <time>2017-04-30T10:42:32Z</time>
      </trkpt>
      <trkpt lat="49.44694" lon="3.67346">
        <ele>157.31</ele>
        <time>2017-04-30T10:42:37Z</time>
      </trkpt>
      <trkpt lat="49.44702" lon="3.6734">
        <ele>155.87</ele>
        <time>2017-04-30T10:42:45Z</time>
      </trkpt>
      <trkpt lat="49.44703" lon="3.6734">
        <ele>155.87</ele>
        <time>2017-04-30T10:42:46Z</time>
      </trkpt>
      <trkpt lat="49.44711" lon="3.67339">
        <ele>156.35</ele>
        <time>2017-04-30T10:42:53Z</time>
      </trkpt>
      <trkpt lat="49.44712" lon="3.67339">
        <ele>156.35</ele>
        <time>2017-04-30T10:42:54Z</time>
      </trkpt>
      <trkpt lat="49.44724" lon="3.67338">
        <ele>155.39</ele>
        <time>2017-04-30T10:43:03Z</time>
      </trkpt>
      <trkpt lat="49.44731" lon="3.67338">
        <ele>154.91</ele>
        <time>2017-04-30T10:43:09Z</time>
      </trkpt>
      <trkpt lat="49.44736" lon="3.67342">
        <ele>154.43</ele>
        <time>2017-04-30T10:43:14Z</time>
      </trkpt>
      <trkpt lat="49.44737" lon="3.67344">
        <ele>154.43</ele>
        <time>2017-04-30T10:43:15Z</time>
      </trkpt>
      <trkpt lat="49.44739" lon="3.67347">
        <ele>154.43</ele>
        <time>2017-04-30T10:43:18Z</time>
      </trkpt>
      <trkpt lat="49.44741" lon="3.67354">
        <ele>153.95</ele>
        <time>2017-04-30T10:43:25Z</time>
      </trkpt>
      <trkpt lat="49.44743" lon="3.67361">
        <ele>152.99</ele>
        <time>2017-04-30T10:43:31Z</time>
      </trkpt>
      <trkpt lat="49.44744" lon="3.67363">
        <ele>152.03</ele>
        <time>2017-04-30T10:43:38Z</time>
      </trkpt>
      <trkpt lat="49.44744" lon="3.67371">
        <ele>152.03</ele>
        <time>2017-04-30T10:43:44Z</time>
      </trkpt>
      <trkpt lat="49.44743" lon="3.67373">
        <ele>152.03</ele>
        <time>2017-04-30T10:43:45Z</time>
      </trkpt>
      <trkpt lat="49.44741" lon="3.67385">
        <ele>152.03</ele>
        <time>2017-04-30T10:43:52Z</time>
      </trkpt>
      <trkpt lat="49.44741" lon="3.67387">
        <ele>151.54</ele>
        <time>2017-04-30T10:43:57Z</time>
      </trkpt>
      <trkpt lat="49.44739" lon="3.67389">
        <ele>150.58</ele>
        <time>2017-04-30T10:44:03Z</time>
      </trkpt>
      <trkpt lat="49.4474" lon="3.67404">
        <ele>150.58</ele>
        <time>2017-04-30T10:44:08Z</time>
      </trkpt>
      <trkpt lat="49.4474" lon="3.67416">
        <ele>150.58</ele>
        <time>2017-04-30T10:44:12Z</time>
      </trkpt>
      <trkpt lat="49.44735" lon="3.67424">
        <ele>150.58</ele>
        <time>2017-04-30T10:44:20Z</time>
      </trkpt>
      <trkpt lat="49.4473" lon="3.67433">
        <ele>149.62</ele>
        <time>2017-04-30T10:44:26Z</time>
      </trkpt>
      <trkpt lat="49.44724" lon="3.67442">
        <ele>148.18</ele>
        <time>2017-04-30T10:44:32Z</time>
      </trkpt>
      <trkpt lat="49.44721" lon="3.67453">
        <ele>148.18</ele>
        <time>2017-04-30T10:44:38Z</time>
      </trkpt>
      <trkpt lat="49.44714" lon="3.6746">
        <ele>147.7</ele>
        <time>2017-04-30T10:44:44Z</time>
      </trkpt>
      <trkpt lat="49.44706" lon="3.6747">
        <ele>148.66</ele>
        <time>2017-04-30T10:44:51Z</time>
      </trkpt>
      <trkpt lat="49.44702" lon="3.67476">
        <ele>148.18</ele>
        <time>2017-04-30T10:44:56Z</time>
      </trkpt>
      <trkpt lat="49.44696" lon="3.67488">
        <ele>146.74</ele>
        <time>2017-04-30T10:45:03Z</time>
      </trkpt>
      <trkpt lat="49.44691" lon="3.67502">
        <ele>146.74</ele>
        <time>2017-04-30T10:45:10Z</time>
      </trkpt>
      <trkpt lat="49.44688" lon="3.67508">
        <ele>146.74</ele>
        <time>2017-04-30T10:45:14Z</time>
      </trkpt>
      <trkpt lat="49.44685" lon="3.6752">
        <ele>145.78</ele>
        <time>2017-04-30T10:45:22Z</time>
      </trkpt>
      <trkpt lat="49.44683" lon="3.67527">
        <ele>145.78</ele>
        <time>2017-04-30T10:45:28Z</time>
      </trkpt>
      <trkpt lat="49.44679" lon="3.67535">
        <ele>145.3</ele>
        <time>2017-04-30T10:45:35Z</time>
      </trkpt>
      <trkpt lat="49.44678" lon="3.6754">
        <ele>145.3</ele>
        <time>2017-04-30T10:45:39Z</time>
      </trkpt>
      <trkpt lat="49.44677" lon="3.67545">
        <ele>144.82</ele>
        <time>2017-04-30T10:45:44Z</time>
      </trkpt>
      <trkpt lat="49.44674" lon="3.67558">
        <ele>143.85</ele>
        <time>2017-04-30T10:45:52Z</time>
      </trkpt>
      <trkpt lat="49.44675" lon="3.67564">
        <ele>143.37</ele>
        <time>2017-04-30T10:45:59Z</time>
      </trkpt>
      <trkpt lat="49.44674" lon="3.67572">
        <ele>143.37</ele>
        <time>2017-04-30T10:46:04Z</time>
      </trkpt>
      <trkpt lat="49.44675" lon="3.6758">
        <ele>142.89</ele>
        <time>2017-04-30T10:46:11Z</time>
      </trkpt>
      <trkpt lat="49.44676" lon="3.67588">
        <ele>142.89</ele>
        <time>2017-04-30T10:46:17Z</time>
      </trkpt>
      <trkpt lat="49.44678" lon="3.67603">
        <ele>142.41</ele>
        <time>2017-04-30T10:46:25Z</time>
      </trkpt>
      <trkpt lat="49.44678" lon="3.6761">
        <ele>142.41</ele>
        <time>2017-04-30T10:46:31Z</time>
      </trkpt>
      <trkpt lat="49.44679" lon="3.67613">
        <ele>141.45</ele>
        <time>2017-04-30T10:46:36Z</time>
      </trkpt>
      <trkpt lat="49.44679" lon="3.67628">
        <ele>141.45</ele>
        <time>2017-04-30T10:46:42Z</time>
      </trkpt>
      <trkpt lat="49.44679" lon="3.67641">
        <ele>140.97</ele>
        <time>2017-04-30T10:46:48Z</time>
      </trkpt>
      <trkpt lat="49.4468" lon="3.67644">
        <ele>140.97</ele>
        <time>2017-04-30T10:46:50Z</time>
      </trkpt>
      <trkpt lat="49.44678" lon="3.67659">
        <ele>140.97</ele>
        <time>2017-04-30T10:46:56Z</time>
      </trkpt>
      <trkpt lat="49.44676" lon="3.67665">
        <ele>140.01</ele>
        <time>2017-04-30T10:47:01Z</time>
      </trkpt>
      <trkpt lat="49.44673" lon="3.67675">
        <ele>139.53</ele>
        <time>2017-04-30T10:47:06Z</time>
      </trkpt>
      <trkpt lat="49.44673" lon="3.67687">
        <ele>139.05</ele>
        <time>2017-04-30T10:47:13Z</time>
      </trkpt>
      <trkpt lat="49.44672" lon="3.67693">
        <ele>139.05</ele>
        <time>2017-04-30T10:47:16Z</time>
      </trkpt>
      <trkpt lat="49.44673" lon="3.67706">
        <ele>138.09</ele>
        <time>2017-04-30T10:47:23Z</time>
      </trkpt>
      <trkpt lat="49.44673" lon="3.6771">
        <ele>138.09</ele>
        <time>2017-04-30T10:47:25Z</time>
      </trkpt>
      <trkpt lat="49.44675" lon="3.67724">
        <ele>138.09</ele>
        <time>2017-04-30T10:47:32Z</time>
      </trkpt>
      <trkpt lat="49.44681" lon="3.67738">
        <ele>137.61</ele>
        <time>2017-04-30T10:47:39Z</time>
      </trkpt>
      <trkpt lat="49.44685" lon="3.67749">
        <ele>137.13</ele>
        <time>2017-04-30T10:47:45Z</time>
      </trkpt>
      <trkpt lat="49.44688" lon="3.67755">
        <ele>136.64</ele>
        <time>2017-04-30T10:47:49Z</time>
      </trkpt>
      <trkpt lat="49.44695" lon="3.67761">
        <ele>136.16</ele>
        <time>2017-04-30T10:47:56Z</time>
      </trkpt>
      <trkpt lat="49.447" lon="3.67764">
        <ele>135.68</ele>
        <time>2017-04-30T10:48:00Z</time>
      </trkpt>
      <trkpt lat="49.44708" lon="3.67768">
        <ele>135.2</ele>
        <time>2017-04-30T10:48:06Z</time>
      </trkpt>
      <trkpt lat="49.4471" lon="3.67768">
        <ele>135.2</ele>
        <time>2017-04-30T10:48:09Z</time>
      </trkpt>
      <trkpt lat="49.44716" lon="3.67765">
        <ele>134.24</ele>
        <time>2017-04-30T10:48:16Z</time>
      </trkpt>
      <trkpt lat="49.44717" lon="3.67763">
        <ele>134.24</ele>
        <time>2017-04-30T10:48:17Z</time>
      </trkpt>
      <trkpt lat="49.4472" lon="3.67755">
        <ele>133.76</ele>
        <time>2017-04-30T10:48:23Z</time>
      </trkpt>
      <trkpt lat="49.44725" lon="3.67758">
        <ele>133.28</ele>
        <time>2017-04-30T10:48:29Z</time>
      </trkpt>
      <trkpt lat="49.44731" lon="3.67762">
        <ele>132.8</ele>
        <time>2017-04-30T10:48:37Z</time>
      </trkpt>
      <trkpt lat="49.4473" lon="3.67757">
        <ele>132.32</ele>
        <time>2017-04-30T10:48:41Z</time>
      </trkpt>
      <trkpt lat="49.4473" lon="3.67744">
        <ele>131.84</ele>
        <time>2017-04-30T10:48:48Z</time>
      </trkpt>
      <trkpt lat="49.4473" lon="3.67741">
        <ele>131.36</ele>
        <time>2017-04-30T10:48:50Z</time>
      </trkpt>
      <trkpt lat="49.44728" lon="3.67731">
        <ele>130.88</ele>
        <time>2017-04-30T10:48:56Z</time>
      </trkpt>
      <trkpt lat="49.44727" lon="3.67721">
        <ele>130.88</ele>
        <time>2017-04-30T10:49:01Z</time>
      </trkpt>
      <trkpt lat="49.44727" lon="3.67711">
        <ele>130.4</ele>
        <time>2017-04-30T10:49:06Z</time>
      </trkpt>
      <trkpt lat="49.44726" lon="3.67699">
        <ele>129.92</ele>
        <time>2017-04-30T10:49:12Z</time>
      </trkpt>
      <trkpt lat="49.44727" lon="3.67695">
        <ele>129.92</ele>
        <time>2017-04-30T10:49:14Z</time>
      </trkpt>
      <trkpt lat="49.44727" lon="3.67692">
        <ele>129.92</ele>
        <time>2017-04-30T10:49:16Z</time>
      </trkpt>
      <trkpt lat="49.44731" lon="3.6768">
        <ele>129.43</ele>
        <time>2017-04-30T10:49:23Z</time>
      </trkpt>
      <trkpt lat="49.44734" lon="3.67673">
        <ele>128.95</ele>
        <time>2017-04-30T10:49:28Z</time>
      </trkpt>
      <trkpt lat="49.4474" lon="3.67664">
        <ele>127.99</ele>
        <time>2017-04-30T10:49:34Z</time>
      </trkpt>
      <trkpt lat="49.44745" lon="3.67659">
        <ele>127.99</ele>
        <time>2017-04-30T10:49:39Z</time>
      </trkpt>
      <trkpt lat="49.44753" lon="3.67656">
        <ele>127.03</ele>
        <time>2017-04-30T10:49:46Z</time>
      </trkpt>
      <trkpt lat="49.44758" lon="3.67656">
        <ele>126.55</ele>
        <time>2017-04-30T10:49:52Z</time>
      </trkpt>
      <trkpt lat="49.44759" lon="3.67656">
        <ele>126.55</ele>
        <time>2017-04-30T10:49:53Z</time>
      </trkpt>
      <trkpt lat="49.44766" lon="3.67656">
        <ele>126.07</ele>
        <time>2017-04-30T10:50:02Z</time>
      </trkpt>
      <trkpt lat="49.44769" lon="3.67664">
        <ele>126.07</ele>
        <time>2017-04-30T10:50:09Z</time>
      </trkpt>
      <trkpt lat="49.44771" lon="3.6767">
        <ele>125.59</ele>
        <time>2017-04-30T10:50:14Z</time>
      </trkpt>
      <trkpt lat="49.44774" lon="3.67682">
        <ele>125.11</ele>
        <time>2017-04-30T10:50:21Z</time>
      </trkpt>
      <trkpt lat="49.44777" lon="3.67692">
        <ele>125.11</ele>
        <time>2017-04-30T10:50:27Z</time>
      </trkpt>
      <trkpt lat="49.44782" lon="3.67704">
        <ele>124.15</ele>
        <time>2017-04-30T10:50:34Z</time>
      </trkpt>
      <trkpt lat="49.44786" lon="3.6771">
        <ele>123.67</ele>
        <time>2017-04-30T10:50:38Z</time>
      </trkpt>
      <trkpt lat="49.44791" lon="3.67717">
        <ele>123.19</ele>
        <time>2017-04-30T10:50:43Z</time>
      </trkpt>
      <trkpt lat="49.44796" lon="3.67723">
        <ele>122.71</ele>
        <time>2017-04-30T10:50:47Z</time>
      </trkpt>
      <trkpt lat="49.448" lon="3.67726">
        <ele>122.71</ele>
        <time>2017-04-30T10:50:50Z</time>
      </trkpt>
      <trkpt lat="49.44811" lon="3.6773">
        <ele>122.22</ele>
        <time>2017-04-30T10:50:58Z</time>
      </trkpt>
      <trkpt lat="49.44814" lon="3.67731">
        <ele>121.74</ele>
        <time>2017-04-30T10:51:00Z</time>
      </trkpt>
      <trkpt lat="49.44824" lon="3.67733">
        <ele>120.78</ele>
        <time>2017-04-30T10:51:08Z</time>
      </trkpt>
      <trkpt lat="49.44828" lon="3.67733">
        <ele>120.3</ele>
        <time>2017-04-30T10:51:11Z</time>
      </trkpt>
      <trkpt lat="49.44836" lon="3.67733">
        <ele>119.34</ele>
        <time>2017-04-30T10:51:16Z</time>
      </trkpt>
      <trkpt lat="49.44844" lon="3.67735">
        <ele>118.86</ele>
        <time>2017-04-30T10:51:23Z</time>
      </trkpt>
      <trkpt lat="49.44847" lon="3.67735">
        <ele>118.86</ele>
        <time>2017-04-30T10:51:26Z</time>
      </trkpt>
      <trkpt lat="49.44851" lon="3.67732">
        <ele>118.86</ele>
        <time>2017-04-30T10:51:29Z</time>
      </trkpt>
      <trkpt lat="49.44855" lon="3.6773">
        <ele>118.38</ele>
        <time>2017-04-30T10:51:32Z</time>
      </trkpt>
      <trkpt lat="49.44864" lon="3.6773">
        <ele>117.42</ele>
        <time>2017-04-30T10:51:38Z</time>
      </trkpt>
      <trkpt lat="49.44872" lon="3.67729">
        <ele>117.42</ele>
        <time>2017-04-30T10:51:44Z</time>
      </trkpt>
      <trkpt lat="49.44881" lon="3.67729">
        <ele>116.94</ele>
        <time>2017-04-30T10:51:51Z</time>
      </trkpt>
      <trkpt lat="49.44885" lon="3.67729">
        <ele>116.94</ele>
        <time>2017-04-30T10:51:55Z</time>
      </trkpt>
      <trkpt lat="49.44889" lon="3.67729">
        <ele>116.94</ele>
        <time>2017-04-30T10:51:58Z</time>
      </trkpt>
      <trkpt lat="49.44892" lon="3.67729">
        <ele>117.42</ele>
        <time>2017-04-30T10:52:00Z</time>
      </trkpt>
      <trkpt lat="49.44896" lon="3.67728">
        <ele>116.94</ele>
        <time>2017-04-30T10:52:03Z</time>
      </trkpt>
      <trkpt lat="49.44906" lon="3.67729">
        <ele>116.94</ele>
        <time>2017-04-30T10:52:11Z</time>
      </trkpt>
      <trkpt lat="49.44915" lon="3.67729">
        <ele>116.94</ele>
        <time>2017-04-30T10:52:18Z</time>
      </trkpt>
      <trkpt lat="49.44917" lon="3.67729">
        <ele>116.94</ele>
        <time>2017-04-30T10:52:19Z</time>
      </trkpt>
      <trkpt lat="49.44922" lon="3.67728">
        <ele>116.94</ele>
        <time>2017-04-30T10:52:22Z</time>
      </trkpt>
      <trkpt lat="49.44932" lon="3.67726">
        <ele>116.46</ele>
        <time>2017-04-30T10:52:29Z</time>
      </trkpt>
      <trkpt lat="49.44941" lon="3.67723">
        <ele>115.98</ele>
        <time>2017-04-30T10:52:35Z</time>
      </trkpt>
      <trkpt lat="49.4495" lon="3.67725">
        <ele>115.5</ele>
        <time>2017-04-30T10:52:41Z</time>
      </trkpt>
      <trkpt lat="49.44959" lon="3.67726">
        <ele>115.5</ele>
        <time>2017-04-30T10:52:47Z</time>
      </trkpt>
      <trkpt lat="49.44969" lon="3.67725">
        <ele>116.94</ele>
        <time>2017-04-30T10:52:54Z</time>
      </trkpt>
      <trkpt lat="49.44979" lon="3.67725">
        <ele>116.46</ele>
        <time>2017-04-30T10:53:01Z</time>
      </trkpt>
      <trkpt lat="49.44989" lon="3.67723">
        <ele>115.98</ele>
        <time>2017-04-30T10:53:08Z</time>
      </trkpt>
      <trkpt lat="49.44996" lon="3.67722">
        <ele>115.98</ele>
        <time>2017-04-30T10:53:14Z</time>
      </trkpt>
      <trkpt lat="49.44999" lon="3.67722">
        <ele>115.98</ele>
        <time>2017-04-30T10:53:16Z</time>
      </trkpt>
      <trkpt lat="49.45008" lon="3.67721">
        <ele>114.53</ele>
        <time>2017-04-30T10:53:23Z</time>
      </trkpt>
      <trkpt lat="49.45012" lon="3.67721">
        <ele>114.53</ele>
        <time>2017-04-30T10:53:26Z</time>
      </trkpt>
      <trkpt lat="49.45021" lon="3.67721">
        <ele>114.53</ele>
        <time>2017-04-30T10:53:33Z</time>
      </trkpt>
      <trkpt lat="49.45031" lon="3.67717">
        <ele>114.53</ele>
        <time>2017-04-30T10:53:41Z</time>
      </trkpt>
      <trkpt lat="49.45042" lon="3.67714">
        <ele>115.5</ele>
        <time>2017-04-30T10:53:50Z</time>
      </trkpt>
      <trkpt lat="49.45051" lon="3.67713">
        <ele>115.01</ele>
        <time>2017-04-30T10:53:56Z</time>
      </trkpt>
      <trkpt lat="49.45055" lon="3.67714">
        <ele>114.53</ele>
        <time>2017-04-30T10:54:00Z</time>
      </trkpt>
      <trkpt lat="49.45067" lon="3.6771">
        <ele>114.53</ele>
        <time>2017-04-30T10:54:09Z</time>
      </trkpt>
      <trkpt lat="49.45077" lon="3.67709">
        <ele>114.53</ele>
        <time>2017-04-30T10:54:16Z</time>
      </trkpt>
      <trkpt lat="49.45086" lon="3.67704">
        <ele>114.05</ele>
        <time>2017-04-30T10:54:23Z</time>
      </trkpt>
      <trkpt lat="49.4509" lon="3.67703">
        <ele>114.05</ele>
        <time>2017-04-30T10:54:27Z</time>
      </trkpt>
      <trkpt lat="49.451" lon="3.67703">
        <ele>114.05</ele>
        <time>2017-04-30T10:54:35Z</time>
      </trkpt>
      <trkpt lat="49.45108" lon="3.67702">
        <ele>114.05</ele>
        <time>2017-04-30T10:54:42Z</time>
      </trkpt>
      <trkpt lat="49.45117" lon="3.67701">
        <ele>114.05</ele>
        <time>2017-04-30T10:54:49Z</time>
      </trkpt>
      <trkpt lat="49.45125" lon="3.677">
        <ele>114.05</ele>
        <time>2017-04-30T10:54:56Z</time>
      </trkpt>
      <trkpt lat="49.45133" lon="3.67697">
        <ele>113.57</ele>
        <time>2017-04-30T10:55:02Z</time>
      </trkpt>
      <trkpt lat="49.45134" lon="3.67698">
        <ele>113.09</ele>
        <time>2017-04-30T10:55:03Z</time>
      </trkpt>
      <trkpt lat="49.45144" lon="3.67693">
        <ele>112.61</ele>
        <time>2017-04-30T10:55:11Z</time>
      </trkpt>
      <trkpt lat="49.45151" lon="3.67689">
        <ele>113.09</ele>
        <time>2017-04-30T10:55:17Z</time>
      </trkpt>
      <trkpt lat="49.45154" lon="3.6769">
        <ele>113.09</ele>
        <time>2017-04-30T10:55:21Z</time>
      </trkpt>
      <trkpt lat="49.45157" lon="3.6769">
        <ele>113.09</ele>
        <time>2017-04-30T10:55:23Z</time>
      </trkpt>
      <trkpt lat="49.45162" lon="3.6769">
        <ele>113.09</ele>
        <time>2017-04-30T10:55:27Z</time>
      </trkpt>
      <trkpt lat="49.45169" lon="3.6769">
        <ele>113.09</ele>
        <time>2017-04-30T10:55:33Z</time>
      </trkpt>
      <trkpt lat="49.45172" lon="3.6769">
        <ele>112.61</ele>
        <time>2017-04-30T10:55:36Z</time>
      </trkpt>
      <trkpt lat="49.45179" lon="3.67689">
        <ele>112.13</ele>
        <time>2017-04-30T10:55:41Z</time>
      </trkpt>
      <trkpt lat="49.45182" lon="3.67689">
        <ele>113.09</ele>
        <time>2017-04-30T10:55:44Z</time>
      </trkpt>
      <trkpt lat="49.45188" lon="3.67688">
        <ele>112.61</ele>
        <time>2017-04-30T10:55:49Z</time>
      </trkpt>
      <trkpt lat="49.45194" lon="3.67685">
        <ele>113.09</ele>
        <time>2017-04-30T10:55:53Z</time>
      </trkpt>
      <trkpt lat="49.45198" lon="3.67684">
        <ele>112.61</ele>
        <time>2017-04-30T10:55:56Z</time>
      </trkpt>
      <trkpt lat="49.45204" lon="3.67685">
        <ele>113.09</ele>
        <time>2017-04-30T10:56:00Z</time>
      </trkpt>
      <trkpt lat="49.45215" lon="3.67685">
        <ele>113.09</ele>
        <time>2017-04-30T10:56:08Z</time>
      </trkpt>
      <trkpt lat="49.45223" lon="3.67683">
        <ele>113.57</ele>
        <time>2017-04-30T10:56:14Z</time>
      </trkpt>
      <trkpt lat="49.4523" lon="3.67682">
        <ele>113.09</ele>
        <time>2017-04-30T10:56:20Z</time>
      </trkpt>
      <trkpt lat="49.45232" lon="3.6768">
        <ele>113.09</ele>
        <time>2017-04-30T10:56:22Z</time>
      </trkpt>
      <trkpt lat="49.45243" lon="3.67678">
        <ele>114.53</ele>
        <time>2017-04-30T10:56:30Z</time>
      </trkpt>
      <trkpt lat="49.45251" lon="3.67677">
        <ele>113.09</ele>
        <time>2017-04-30T10:56:36Z</time>
      </trkpt>
      <trkpt lat="49.45253" lon="3.67676">
        <ele>113.57</ele>
        <time>2017-04-30T10:56:38Z</time>
      </trkpt>
      <trkpt lat="49.45261" lon="3.67675">
        <ele>113.09</ele>
        <time>2017-04-30T10:56:44Z</time>
      </trkpt>
      <trkpt lat="49.45269" lon="3.6767">
        <ele>114.05</ele>
        <time>2017-04-30T10:56:51Z</time>
      </trkpt>
      <trkpt lat="49.45278" lon="3.67669">
        <ele>114.05</ele>
        <time>2017-04-30T10:56:59Z</time>
      </trkpt>
      <trkpt lat="49.45279" lon="3.67669">
        <ele>114.53</ele>
        <time>2017-04-30T10:57:00Z</time>
      </trkpt>
      <trkpt lat="49.45285" lon="3.67666">
        <ele>115.5</ele>
        <time>2017-04-30T10:57:05Z</time>
      </trkpt>
      <trkpt lat="49.45294" lon="3.67662">
        <ele>115.01</ele>
        <time>2017-04-30T10:57:11Z</time>
      </trkpt>
      <trkpt lat="49.45306" lon="3.67656">
        <ele>115.5</ele>
        <time>2017-04-30T10:57:19Z</time>
      </trkpt>
      <trkpt lat="49.45318" lon="3.67651">
        <ele>115.5</ele>
        <time>2017-04-30T10:57:26Z</time>
      </trkpt>
      <trkpt lat="49.45327" lon="3.67646">
        <ele>115.5</ele>
        <time>2017-04-30T10:57:33Z</time>
      </trkpt>
      <trkpt lat="49.45334" lon="3.67644">
        <ele>115.5</ele>
        <time>2017-04-30T10:57:39Z</time>
      </trkpt>
      <trkpt lat="49.45344" lon="3.67641">
        <ele>115.98</ele>
        <time>2017-04-30T10:57:47Z</time>
      </trkpt>
      <trkpt lat="49.45352" lon="3.67639">
        <ele>115.98</ele>
        <time>2017-04-30T10:57:53Z</time>
      </trkpt>
      <trkpt lat="49.45363" lon="3.67636">
        <ele>115.98</ele>
        <time>2017-04-30T10:58:01Z</time>
      </trkpt>
      <trkpt lat="49.45373" lon="3.67635">
        <ele>115.98</ele>
        <time>2017-04-30T10:58:08Z</time>
      </trkpt>
      <trkpt lat="49.45379" lon="3.67636">
        <ele>115.98</ele>
        <time>2017-04-30T10:58:12Z</time>
      </trkpt>
      <trkpt lat="49.45389" lon="3.67641">
        <ele>115.98</ele>
        <time>2017-04-30T10:58:20Z</time>
      </trkpt>
      <trkpt lat="49.45401" lon="3.67648">
        <ele>115.98</ele>
        <time>2017-04-30T10:58:29Z</time>
      </trkpt>
      <trkpt lat="49.45409" lon="3.67655">
        <ele>115.98</ele>
        <time>2017-04-30T10:58:36Z</time>
      </trkpt>
      <trkpt lat="49.45414" lon="3.67659">
        <ele>115.5</ele>
        <time>2017-04-30T10:58:40Z</time>
      </trkpt>
      <trkpt lat="49.45421" lon="3.67664">
        <ele>115.5</ele>
        <time>2017-04-30T10:58:46Z</time>
      </trkpt>
      <trkpt lat="49.45433" lon="3.67676">
        <ele>115.5</ele>
        <time>2017-04-30T10:58:56Z</time>
      </trkpt>
      <trkpt lat="49.45442" lon="3.67684">
        <ele>115.5</ele>
        <time>2017-04-30T10:59:04Z</time>
      </trkpt>
      <trkpt lat="49.4545" lon="3.67691">
        <ele>115.5</ele>
        <time>2017-04-30T10:59:11Z</time>
      </trkpt>
      <trkpt lat="49.45457" lon="3.67697">
        <ele>115.5</ele>
        <time>2017-04-30T10:59:17Z</time>
      </trkpt>
      <trkpt lat="49.45465" lon="3.67704">
        <ele>115.5</ele>
        <time>2017-04-30T10:59:24Z</time>
      </trkpt>
      <trkpt lat="49.4547" lon="3.67708">
        <ele>115.5</ele>
        <time>2017-04-30T10:59:28Z</time>
      </trkpt>
      <trkpt lat="49.45479" lon="3.67717">
        <ele>115.98</ele>
        <time>2017-04-30T10:59:36Z</time>
      </trkpt>
      <trkpt lat="49.45488" lon="3.67724">
        <ele>115.98</ele>
        <time>2017-04-30T10:59:43Z</time>
      </trkpt>
      <trkpt lat="49.45489" lon="3.67724">
        <ele>115.98</ele>
        <time>2017-04-30T10:59:44Z</time>
      </trkpt>
      <trkpt lat="49.45496" lon="3.67731">
        <ele>115.98</ele>
        <time>2017-04-30T10:59:50Z</time>
      </trkpt>
      <trkpt lat="49.45506" lon="3.6774">
        <ele>115.5</ele>
        <time>2017-04-30T10:59:59Z</time>
      </trkpt>
      <trkpt lat="49.45514" lon="3.67748">
        <ele>115.5</ele>
        <time>2017-04-30T11:00:06Z</time>
      </trkpt>
      <trkpt lat="49.45522" lon="3.67753">
        <ele>115.5</ele>
        <time>2017-04-30T11:00:12Z</time>
      </trkpt>
      <trkpt lat="49.45531" lon="3.67762">
        <ele>115.98</ele>
        <time>2017-04-30T11:00:20Z</time>
      </trkpt>
      <trkpt lat="49.45538" lon="3.67768">
        <ele>115.5</ele>
        <time>2017-04-30T11:00:26Z</time>
      </trkpt>
      <trkpt lat="49.45543" lon="3.67771">
        <ele>115.5</ele>
        <time>2017-04-30T11:00:30Z</time>
      </trkpt>
      <trkpt lat="49.45554" lon="3.67781">
        <ele>115.5</ele>
        <time>2017-04-30T11:00:39Z</time>
      </trkpt>
      <trkpt lat="49.45563" lon="3.67788">
        <ele>115.01</ele>
        <time>2017-04-30T11:00:47Z</time>
      </trkpt>
      <trkpt lat="49.45573" lon="3.67799">
        <ele>114.05</ele>
        <time>2017-04-30T11:00:56Z</time>
      </trkpt>
      <trkpt lat="49.4558" lon="3.67807">
        <ele>114.05</ele>
        <time>2017-04-30T11:01:03Z</time>
      </trkpt>
      <trkpt lat="49.45587" lon="3.67818">
        <ele>113.57</ele>
        <time>2017-04-30T11:01:11Z</time>
      </trkpt>
      <trkpt lat="49.45592" lon="3.67825">
        <ele>113.57</ele>
        <time>2017-04-30T11:01:16Z</time>
      </trkpt>
      <trkpt lat="49.45595" lon="3.67831">
        <ele>113.09</ele>
        <time>2017-04-30T11:01:20Z</time>
      </trkpt>
      <trkpt lat="49.45603" lon="3.67845">
        <ele>113.09</ele>
        <time>2017-04-30T11:01:29Z</time>
      </trkpt>
      <trkpt lat="49.45608" lon="3.67853">
        <ele>112.61</ele>
        <time>2017-04-30T11:01:35Z</time>
      </trkpt>
      <trkpt lat="49.45611" lon="3.67862">
        <ele>112.61</ele>
        <time>2017-04-30T11:01:40Z</time>
      </trkpt>
      <trkpt lat="49.45616" lon="3.67871">
        <ele>112.61</ele>
        <time>2017-04-30T11:01:46Z</time>
      </trkpt>
      <trkpt lat="49.45617" lon="3.67873">
        <ele>112.13</ele>
        <time>2017-04-30T11:01:47Z</time>
      </trkpt>
      <trkpt lat="49.45621" lon="3.67886">
        <ele>112.13</ele>
        <time>2017-04-30T11:01:54Z</time>
      </trkpt>
      <trkpt lat="49.45621" lon="3.67887">
        <ele>112.13</ele>
        <time>2017-04-30T11:01:55Z</time>
      </trkpt>
      <trkpt lat="49.45626" lon="3.679">
        <ele>111.65</ele>
        <time>2017-04-30T11:02:02Z</time>
      </trkpt>
      <trkpt lat="49.45628" lon="3.6791">
        <ele>111.65</ele>
        <time>2017-04-30T11:02:08Z</time>
      </trkpt>
      <trkpt lat="49.45632" lon="3.67924">
        <ele>111.65</ele>
        <time>2017-04-30T11:02:16Z</time>
      </trkpt>
      <trkpt lat="49.45634" lon="3.67932">
        <ele>111.17</ele>
        <time>2017-04-30T11:02:21Z</time>
      </trkpt>
      <trkpt lat="49.45638" lon="3.67947">
        <ele>111.17</ele>
        <time>2017-04-30T11:02:28Z</time>
      </trkpt>
      <trkpt lat="49.45637" lon="3.6795">
        <ele>110.69</ele>
        <time>2017-04-30T11:02:30Z</time>
      </trkpt>
      <trkpt lat="49.4564" lon="3.67964">
        <ele>110.69</ele>
        <time>2017-04-30T11:02:37Z</time>
      </trkpt>
      <trkpt lat="49.45642" lon="3.67973">
        <ele>110.69</ele>
        <time>2017-04-30T11:02:41Z</time>
      </trkpt>
      <trkpt lat="49.45644" lon="3.67985">
        <ele>110.69</ele>
        <time>2017-04-30T11:02:47Z</time>
      </trkpt>
      <trkpt lat="49.45644" lon="3.67991">
        <ele>110.21</ele>
        <time>2017-04-30T11:02:50Z</time>
      </trkpt>
      <trkpt lat="49.45645" lon="3.67999">
        <ele>109.73</ele>
        <time>2017-04-30T11:02:57Z</time>
      </trkpt>
      <trkpt lat="49.45647" lon="3.68005">
        <ele>109.73</ele>
        <time>2017-04-30T11:03:03Z</time>
      </trkpt>
      <trkpt lat="49.45648" lon="3.68009">
        <ele>109.73</ele>
        <time>2017-04-30T11:03:07Z</time>
      </trkpt>
      <trkpt lat="49.45649" lon="3.68016">
        <ele>109.25</ele>
        <time>2017-04-30T11:03:10Z</time>
      </trkpt>
      <trkpt lat="49.4565" lon="3.68026">
        <ele>109.25</ele>
        <time>2017-04-30T11:03:15Z</time>
      </trkpt>
      <trkpt lat="49.45651" lon="3.68029">
        <ele>108.77</ele>
        <time>2017-04-30T11:03:17Z</time>
      </trkpt>
      <trkpt lat="49.45654" lon="3.6804">
        <ele>108.77</ele>
        <time>2017-04-30T11:03:24Z</time>
      </trkpt>
      <trkpt lat="49.45654" lon="3.68052">
        <ele>108.77</ele>
        <time>2017-04-30T11:03:30Z</time>
      </trkpt>
      <trkpt lat="49.45654" lon="3.68055">
        <ele>108.29</ele>
        <time>2017-04-30T11:03:32Z</time>
      </trkpt>
      <trkpt lat="49.45655" lon="3.68067">
        <ele>107.81</ele>
        <time>2017-04-30T11:03:39Z</time>
      </trkpt>
      <trkpt lat="49.45655" lon="3.68076">
        <ele>107.32</ele>
        <time>2017-04-30T11:03:47Z</time>
      </trkpt>
      <trkpt lat="49.45656" lon="3.6808">
        <ele>106.84</ele>
        <time>2017-04-30T11:03:49Z</time>
      </trkpt>
      <trkpt lat="49.4566" lon="3.6809">
        <ele>106.84</ele>
        <time>2017-04-30T11:03:54Z</time>
      </trkpt>
      <trkpt lat="49.45662" lon="3.68099">
        <ele>106.36</ele>
        <time>2017-04-30T11:04:00Z</time>
      </trkpt>
      <trkpt lat="49.45666" lon="3.6811">
        <ele>105.88</ele>
        <time>2017-04-30T11:04:04Z</time>
      </trkpt>
      <trkpt lat="49.45667" lon="3.68114">
        <ele>105.88</ele>
        <time>2017-04-30T11:04:06Z</time>
      </trkpt>
      <trkpt lat="49.45668" lon="3.68117">
        <ele>105.88</ele>
        <time>2017-04-30T11:04:08Z</time>
      </trkpt>
      <trkpt lat="49.45674" lon="3.6813">
        <ele>105.4</ele>
        <time>2017-04-30T11:04:14Z</time>
      </trkpt>
      <trkpt lat="49.45675" lon="3.68133">
        <ele>105.4</ele>
        <time>2017-04-30T11:04:16Z</time>
      </trkpt>
      <trkpt lat="49.45682" lon="3.68147">
        <ele>104.92</ele>
        <time>2017-04-30T11:04:22Z</time>
      </trkpt>
      <trkpt lat="49.45685" lon="3.68151">
        <ele>104.92</ele>
        <time>2017-04-30T11:04:25Z</time>
      </trkpt>
      <trkpt lat="49.45694" lon="3.68164">
        <ele>104.44</ele>
        <time>2017-04-30T11:04:31Z</time>
      </trkpt>
      <trkpt lat="49.45698" lon="3.6817">
        <ele>104.44</ele>
        <time>2017-04-30T11:04:35Z</time>
      </trkpt>
      <trkpt lat="49.457" lon="3.68172">
        <ele>104.44</ele>
        <time>2017-04-30T11:04:37Z</time>
      </trkpt>
      <trkpt lat="49.45704" lon="3.68176">
        <ele>103.96</ele>
        <time>2017-04-30T11:04:41Z</time>
      </trkpt>
      <trkpt lat="49.45708" lon="3.6818">
        <ele>103.48</ele>
        <time>2017-04-30T11:04:44Z</time>
      </trkpt>
      <trkpt lat="49.45714" lon="3.68189">
        <ele>103.48</ele>
        <time>2017-04-30T11:04:50Z</time>
      </trkpt>
      <trkpt lat="49.45718" lon="3.68195">
        <ele>103</ele>
        <time>2017-04-30T11:04:54Z</time>
      </trkpt>
      <trkpt lat="49.45722" lon="3.68199">
        <ele>102.52</ele>
        <time>2017-04-30T11:04:58Z</time>
      </trkpt>
      <trkpt lat="49.45729" lon="3.68206">
        <ele>102.52</ele>
        <time>2017-04-30T11:05:05Z</time>
      </trkpt>
      <trkpt lat="49.45733" lon="3.6821">
        <ele>102.04</ele>
        <time>2017-04-30T11:05:08Z</time>
      </trkpt>
      <trkpt lat="49.45737" lon="3.68213">
        <ele>102.04</ele>
        <time>2017-04-30T11:05:11Z</time>
      </trkpt>
      <trkpt lat="49.45742" lon="3.68218">
        <ele>101.56</ele>
        <time>2017-04-30T11:05:17Z</time>
      </trkpt>
      <trkpt lat="49.45748" lon="3.68222">
        <ele>101.56</ele>
        <time>2017-04-30T11:05:25Z</time>
      </trkpt>
      <trkpt lat="49.45749" lon="3.68222">
        <ele>101.08</ele>
        <time>2017-04-30T11:05:35Z</time>
      </trkpt>
      <trkpt lat="49.45751" lon="3.68223">
        <ele>101.08</ele>
        <time>2017-04-30T11:05:47Z</time>
      </trkpt>
      <trkpt lat="49.45753" lon="3.68224">
        <ele>101.56</ele>
        <time>2017-04-30T11:05:58Z</time>
      </trkpt>
      <trkpt lat="49.45754" lon="3.68226">
        <ele>101.56</ele>
        <time>2017-04-30T11:06:06Z</time>
      </trkpt>
      <trkpt lat="49.45756" lon="3.68234">
        <ele>101.08</ele>
        <time>2017-04-30T11:06:12Z</time>
      </trkpt>
      <trkpt lat="49.45757" lon="3.68238">
        <ele>101.08</ele>
        <time>2017-04-30T11:06:16Z</time>
      </trkpt>
      <trkpt lat="49.45763" lon="3.68244">
        <ele>101.08</ele>
        <time>2017-04-30T11:06:21Z</time>
      </trkpt>
      <trkpt lat="49.45768" lon="3.68253">
        <ele>101.08</ele>
        <time>2017-04-30T11:06:27Z</time>
      </trkpt>
      <trkpt lat="49.45772" lon="3.68254">
        <ele>100.6</ele>
        <time>2017-04-30T11:06:30Z</time>
      </trkpt>
      <trkpt lat="49.45778" lon="3.68261">
        <ele>100.11</ele>
        <time>2017-04-30T11:06:36Z</time>
      </trkpt>
      <trkpt lat="49.45784" lon="3.68264">
        <ele>99.63</ele>
        <time>2017-04-30T11:06:40Z</time>
      </trkpt>
      <trkpt lat="49.4579" lon="3.68276">
        <ele>99.63</ele>
        <time>2017-04-30T11:06:46Z</time>
      </trkpt>
      <trkpt lat="49.45795" lon="3.68279">
        <ele>99.63</ele>
        <time>2017-04-30T11:06:50Z</time>
      </trkpt>
      <trkpt lat="49.45796" lon="3.68279">
        <ele>99.15</ele>
        <time>2017-04-30T11:06:51Z</time>
      </trkpt>
      <trkpt lat="49.45796" lon="3.68278">
        <ele>99.15</ele>
        <time>2017-04-30T11:06:55Z</time>
      </trkpt>
      <trkpt lat="49.45802" lon="3.68289">
        <ele>99.15</ele>
        <time>2017-04-30T11:07:00Z</time>
      </trkpt>
      <trkpt lat="49.45807" lon="3.68297">
        <ele>99.63</ele>
        <time>2017-04-30T11:07:04Z</time>
      </trkpt>
      <trkpt lat="49.45812" lon="3.68311">
        <ele>99.63</ele>
        <time>2017-04-30T11:07:08Z</time>
      </trkpt>
      <trkpt lat="49.45821" lon="3.68324">
        <ele>99.63</ele>
        <time>2017-04-30T11:07:14Z</time>
      </trkpt>
      <trkpt lat="49.45825" lon="3.6833">
        <ele>99.63</ele>
        <time>2017-04-30T11:07:17Z</time>
      </trkpt>
      <trkpt lat="49.4583" lon="3.68338">
        <ele>99.15</ele>
        <time>2017-04-30T11:07:21Z</time>
      </trkpt>
      <trkpt lat="49.45836" lon="3.68345">
        <ele>99.15</ele>
        <time>2017-04-30T11:07:26Z</time>
      </trkpt>
      <trkpt lat="49.4584" lon="3.68355">
        <ele>98.67</ele>
        <time>2017-04-30T11:07:32Z</time>
      </trkpt>
      <trkpt lat="49.45841" lon="3.68357">
        <ele>98.67</ele>
        <time>2017-04-30T11:07:34Z</time>
      </trkpt>
      <trkpt lat="49.45846" lon="3.68361">
        <ele>100.11</ele>
        <time>2017-04-30T11:07:41Z</time>
      </trkpt>
      <trkpt lat="49.45849" lon="3.68365">
        <ele>99.15</ele>
        <time>2017-04-30T11:07:47Z</time>
      </trkpt>
      <trkpt lat="49.45849" lon="3.68366">
        <ele>98.67</ele>
        <time>2017-04-30T11:07:50Z</time>
      </trkpt>
      <trkpt lat="49.45849" lon="3.68382">
        <ele>98.67</ele>
        <time>2017-04-30T11:07:58Z</time>
      </trkpt>
      <trkpt lat="49.45848" lon="3.68391">
        <ele>98.67</ele>
        <time>2017-04-30T11:08:03Z</time>
      </trkpt>
      <trkpt lat="49.45849" lon="3.68394">
        <ele>98.67</ele>
        <time>2017-04-30T11:08:05Z</time>
      </trkpt>
      <trkpt lat="49.45848" lon="3.68407">
        <ele>98.67</ele>
        <time>2017-04-30T11:08:14Z</time>
      </trkpt>
      <trkpt lat="49.45847" lon="3.68416">
        <ele>99.15</ele>
        <time>2017-04-30T11:08:20Z</time>
      </trkpt>
      <trkpt lat="49.45846" lon="3.68427">
        <ele>99.15</ele>
        <time>2017-04-30T11:08:25Z</time>
      </trkpt>
      <trkpt lat="49.45848" lon="3.68431">
        <ele>99.63</ele>
        <time>2017-04-30T11:08:27Z</time>
      </trkpt>
      <trkpt lat="49.45848" lon="3.68445">
        <ele>99.15</ele>
        <time>2017-04-30T11:08:34Z</time>
      </trkpt>
      <trkpt lat="49.45848" lon="3.6845">
        <ele>99.15</ele>
        <time>2017-04-30T11:08:37Z</time>
      </trkpt>
      <trkpt lat="49.4585" lon="3.68456">
        <ele>99.15</ele>
        <time>2017-04-30T11:08:40Z</time>
      </trkpt>
      <trkpt lat="49.45851" lon="3.68468">
        <ele>99.63</ele>
        <time>2017-04-30T11:08:46Z</time>
      </trkpt>
      <trkpt lat="49.45849" lon="3.68485">
        <ele>99.63</ele>
        <time>2017-04-30T11:08:53Z</time>
      </trkpt>
      <trkpt lat="49.45848" lon="3.68504">
        <ele>99.15</ele>
        <time>2017-04-30T11:08:59Z</time>
      </trkpt>
      <trkpt lat="49.45848" lon="3.68516">
        <ele>99.63</ele>
        <time>2017-04-30T11:09:03Z</time>
      </trkpt>
      <trkpt lat="49.45847" lon="3.68526">
        <ele>99.63</ele>
        <time>2017-04-30T11:09:08Z</time>
      </trkpt>
      <trkpt lat="49.45845" lon="3.68547">
        <ele>99.63</ele>
        <time>2017-04-30T11:09:17Z</time>
      </trkpt>
      <trkpt lat="49.45844" lon="3.68566">
        <ele>99.63</ele>
        <time>2017-04-30T11:09:25Z</time>
      </trkpt>
      <trkpt lat="49.45842" lon="3.68579">
        <ele>99.63</ele>
        <time>2017-04-30T11:09:32Z</time>
      </trkpt>
      <trkpt lat="49.4584" lon="3.68591">
        <ele>99.63</ele>
        <time>2017-04-30T11:09:39Z</time>
      </trkpt>
      <trkpt lat="49.45839" lon="3.68595">
        <ele>99.63</ele>
        <time>2017-04-30T11:09:41Z</time>
      </trkpt>
      <trkpt lat="49.4584" lon="3.68611">
        <ele>99.63</ele>
        <time>2017-04-30T11:09:48Z</time>
      </trkpt>
      <trkpt lat="49.4584" lon="3.68613">
        <ele>99.63</ele>
        <time>2017-04-30T11:09:49Z</time>
      </trkpt>
      <trkpt lat="49.45841" lon="3.68621">
        <ele>99.15</ele>
        <time>2017-04-30T11:09:53Z</time>
      </trkpt>
      <trkpt lat="49.45842" lon="3.68631">
        <ele>99.15</ele>
        <time>2017-04-30T11:09:58Z</time>
      </trkpt>
      <trkpt lat="49.4584" lon="3.68647">
        <ele>99.15</ele>
        <time>2017-04-30T11:10:06Z</time>
      </trkpt>
      <trkpt lat="49.45838" lon="3.68656">
        <ele>99.63</ele>
        <time>2017-04-30T11:10:12Z</time>
      </trkpt>
      <trkpt lat="49.45839" lon="3.68665">
        <ele>99.15</ele>
        <time>2017-04-30T11:10:17Z</time>
      </trkpt>
      <trkpt lat="49.45831" lon="3.68685">
        <ele>99.63</ele>
        <time>2017-04-30T11:10:25Z</time>
      </trkpt>
      <trkpt lat="49.4583" lon="3.68692">
        <ele>99.15</ele>
        <time>2017-04-30T11:10:29Z</time>
      </trkpt>
      <trkpt lat="49.45831" lon="3.68704">
        <ele>99.15</ele>
        <time>2017-04-30T11:10:35Z</time>
      </trkpt>
      <trkpt lat="49.45831" lon="3.68708">
        <ele>99.15</ele>
        <time>2017-04-30T11:10:37Z</time>
      </trkpt>
      <trkpt lat="49.4583" lon="3.68722">
        <ele>98.67</ele>
        <time>2017-04-30T11:10:45Z</time>
      </trkpt>
      <trkpt lat="49.45829" lon="3.68732">
        <ele>99.15</ele>
        <time>2017-04-30T11:10:51Z</time>
      </trkpt>
      <trkpt lat="49.45829" lon="3.68735">
        <ele>99.63</ele>
        <time>2017-04-30T11:10:52Z</time>
      </trkpt>
      <trkpt lat="49.45829" lon="3.68744">
        <ele>99.15</ele>
        <time>2017-04-30T11:10:56Z</time>
      </trkpt>
      <trkpt lat="49.45829" lon="3.68762">
        <ele>99.15</ele>
        <time>2017-04-30T11:11:04Z</time>
      </trkpt>
      <trkpt lat="49.4583" lon="3.68773">
        <ele>98.67</ele>
        <time>2017-04-30T11:11:08Z</time>
      </trkpt>
      <trkpt lat="49.4583" lon="3.68787">
        <ele>98.67</ele>
        <time>2017-04-30T11:11:15Z</time>
      </trkpt>
      <trkpt lat="49.4583" lon="3.68796">
        <ele>98.67</ele>
        <time>2017-04-30T11:11:21Z</time>
      </trkpt>
      <trkpt lat="49.45829" lon="3.68799">
        <ele>98.67</ele>
        <time>2017-04-30T11:11:22Z</time>
      </trkpt>
      <trkpt lat="49.45826" lon="3.68815">
        <ele>98.19</ele>
        <time>2017-04-30T11:11:28Z</time>
      </trkpt>
      <trkpt lat="49.45826" lon="3.68816">
        <ele>98.19</ele>
        <time>2017-04-30T11:11:30Z</time>
      </trkpt>
      <trkpt lat="49.45825" lon="3.68832">
        <ele>98.19</ele>
        <time>2017-04-30T11:11:38Z</time>
      </trkpt>
      <trkpt lat="49.45824" lon="3.68845">
        <ele>98.19</ele>
        <time>2017-04-30T11:11:45Z</time>
      </trkpt>
      <trkpt lat="49.45824" lon="3.6886">
        <ele>98.67</ele>
        <time>2017-04-30T11:11:53Z</time>
      </trkpt>
      <trkpt lat="49.45824" lon="3.68875">
        <ele>98.67</ele>
        <time>2017-04-30T11:11:59Z</time>
      </trkpt>
      <trkpt lat="49.45826" lon="3.6889">
        <ele>98.67</ele>
        <time>2017-04-30T11:12:07Z</time>
      </trkpt>
      <trkpt lat="49.45825" lon="3.68896">
        <ele>98.67</ele>
        <time>2017-04-30T11:12:11Z</time>
      </trkpt>
      <trkpt lat="49.45825" lon="3.68913">
        <ele>98.19</ele>
        <time>2017-04-30T11:12:19Z</time>
      </trkpt>
      <trkpt lat="49.45825" lon="3.68917">
        <ele>98.19</ele>
        <time>2017-04-30T11:12:22Z</time>
      </trkpt>
      <trkpt lat="49.45825" lon="3.68922">
        <ele>98.19</ele>
        <time>2017-04-30T11:12:25Z</time>
      </trkpt>
      <trkpt lat="49.45827" lon="3.6894">
        <ele>98.67</ele>
        <time>2017-04-30T11:12:33Z</time>
      </trkpt>
      <trkpt lat="49.45827" lon="3.68945">
        <ele>98.67</ele>
        <time>2017-04-30T11:12:35Z</time>
      </trkpt>
      <trkpt lat="49.45824" lon="3.68962">
        <ele>98.67</ele>
        <time>2017-04-30T11:12:43Z</time>
      </trkpt>
      <trkpt lat="49.45823" lon="3.68974">
        <ele>98.67</ele>
        <time>2017-04-30T11:12:48Z</time>
      </trkpt>
      <trkpt lat="49.45824" lon="3.68997">
        <ele>98.67</ele>
        <time>2017-04-30T11:12:58Z</time>
      </trkpt>
      <trkpt lat="49.45825" lon="3.69009">
        <ele>98.19</ele>
        <time>2017-04-30T11:13:05Z</time>
      </trkpt>
      <trkpt lat="49.45825" lon="3.69015">
        <ele>98.19</ele>
        <time>2017-04-30T11:13:09Z</time>
      </trkpt>
      <trkpt lat="49.45824" lon="3.69021">
        <ele>98.67</ele>
        <time>2017-04-30T11:13:12Z</time>
      </trkpt>
      <trkpt lat="49.45825" lon="3.69038">
        <ele>99.63</ele>
        <time>2017-04-30T11:13:20Z</time>
      </trkpt>
      <trkpt lat="49.45825" lon="3.69045">
        <ele>99.63</ele>
        <time>2017-04-30T11:13:24Z</time>
      </trkpt>
      <trkpt lat="49.45824" lon="3.6906">
        <ele>99.15</ele>
        <time>2017-04-30T11:13:32Z</time>
      </trkpt>
      <trkpt lat="49.45824" lon="3.69075">
        <ele>98.67</ele>
        <time>2017-04-30T11:13:38Z</time>
      </trkpt>
      <trkpt lat="49.45824" lon="3.69092">
        <ele>99.63</ele>
        <time>2017-04-30T11:13:45Z</time>
      </trkpt>
      <trkpt lat="49.45824" lon="3.69106">
        <ele>99.15</ele>
        <time>2017-04-30T11:13:52Z</time>
      </trkpt>
      <trkpt lat="49.45824" lon="3.69126">
        <ele>99.63</ele>
        <time>2017-04-30T11:14:01Z</time>
      </trkpt>
      <trkpt lat="49.45824" lon="3.69141">
        <ele>99.63</ele>
        <time>2017-04-30T11:14:09Z</time>
      </trkpt>
      <trkpt lat="49.45823" lon="3.69146">
        <ele>99.15</ele>
        <time>2017-04-30T11:14:12Z</time>
      </trkpt>
      <trkpt lat="49.45821" lon="3.69162">
        <ele>99.15</ele>
        <time>2017-04-30T11:14:19Z</time>
      </trkpt>
      <trkpt lat="49.4582" lon="3.69174">
        <ele>98.67</ele>
        <time>2017-04-30T11:14:26Z</time>
      </trkpt>
      <trkpt lat="49.45817" lon="3.69186">
        <ele>98.67</ele>
        <time>2017-04-30T11:14:32Z</time>
      </trkpt>
      <trkpt lat="49.45817" lon="3.6919">
        <ele>98.67</ele>
        <time>2017-04-30T11:14:34Z</time>
      </trkpt>
      <trkpt lat="49.45816" lon="3.69199">
        <ele>98.67</ele>
        <time>2017-04-30T11:14:40Z</time>
      </trkpt>
      <trkpt lat="49.45816" lon="3.69204">
        <ele>98.67</ele>
        <time>2017-04-30T11:14:46Z</time>
      </trkpt>
      <trkpt lat="49.4581" lon="3.69214">
        <ele>98.67</ele>
        <time>2017-04-30T11:14:52Z</time>
      </trkpt>
      <trkpt lat="49.45808" lon="3.69224">
        <ele>98.67</ele>
        <time>2017-04-30T11:14:58Z</time>
      </trkpt>
      <trkpt lat="49.45805" lon="3.69239">
        <ele>98.67</ele>
        <time>2017-04-30T11:15:04Z</time>
      </trkpt>
      <trkpt lat="49.45803" lon="3.69249">
        <ele>99.15</ele>
        <time>2017-04-30T11:15:10Z</time>
      </trkpt>
      <trkpt lat="49.45801" lon="3.69259">
        <ele>99.15</ele>
        <time>2017-04-30T11:15:15Z</time>
      </trkpt>
      <trkpt lat="49.45801" lon="3.69272">
        <ele>99.15</ele>
        <time>2017-04-30T11:15:20Z</time>
      </trkpt>
      <trkpt lat="49.45799" lon="3.69279">
        <ele>99.15</ele>
        <time>2017-04-30T11:15:25Z</time>
      </trkpt>
      <trkpt lat="49.45797" lon="3.69288">
        <ele>99.15</ele>
        <time>2017-04-30T11:15:31Z</time>
      </trkpt>
      <trkpt lat="49.45795" lon="3.69299">
        <ele>99.63</ele>
        <time>2017-04-30T11:15:37Z</time>
      </trkpt>
      <trkpt lat="49.45794" lon="3.69311">
        <ele>99.63</ele>
        <time>2017-04-30T11:15:43Z</time>
      </trkpt>
      <trkpt lat="49.4579" lon="3.69317">
        <ele>100.11</ele>
        <time>2017-04-30T11:15:49Z</time>
      </trkpt>
      <trkpt lat="49.45791" lon="3.69326">
        <ele>99.63</ele>
        <time>2017-04-30T11:15:56Z</time>
      </trkpt>
      <trkpt lat="49.4579" lon="3.69328">
        <ele>99.63</ele>
        <time>2017-04-30T11:15:57Z</time>
      </trkpt>
      <trkpt lat="49.45785" lon="3.69344">
        <ele>99.15</ele>
        <time>2017-04-30T11:16:03Z</time>
      </trkpt>
      <trkpt lat="49.45784" lon="3.69358">
        <ele>99.15</ele>
        <time>2017-04-30T11:16:11Z</time>
      </trkpt>
      <trkpt lat="49.45784" lon="3.69364">
        <ele>99.15</ele>
        <time>2017-04-30T11:16:15Z</time>
      </trkpt>
      <trkpt lat="49.45772" lon="3.69377">
        <ele>99.15</ele>
        <time>2017-04-30T11:16:20Z</time>
      </trkpt>
      <trkpt lat="49.4577" lon="3.69386">
        <ele>98.67</ele>
        <time>2017-04-30T11:16:26Z</time>
      </trkpt>
      <trkpt lat="49.45769" lon="3.69388">
        <ele>98.67</ele>
        <time>2017-04-30T11:16:27Z</time>
      </trkpt>
      <trkpt lat="49.45766" lon="3.694">
        <ele>98.67</ele>
        <time>2017-04-30T11:16:32Z</time>
      </trkpt>
      <trkpt lat="49.45769" lon="3.69417">
        <ele>98.19</ele>
        <time>2017-04-30T11:16:39Z</time>
      </trkpt>
      <trkpt lat="49.45774" lon="3.69427">
        <ele>98.19</ele>
        <time>2017-04-30T11:16:44Z</time>
      </trkpt>
      <trkpt lat="49.45777" lon="3.69439">
        <ele>98.67</ele>
        <time>2017-04-30T11:16:50Z</time>
      </trkpt>
      <trkpt lat="49.45779" lon="3.69446">
        <ele>98.67</ele>
        <time>2017-04-30T11:16:55Z</time>
      </trkpt>
      <trkpt lat="49.45781" lon="3.69451">
        <ele>98.19</ele>
        <time>2017-04-30T11:17:02Z</time>
      </trkpt>
      <trkpt lat="49.45782" lon="3.69454">
        <ele>98.19</ele>
        <time>2017-04-30T11:17:13Z</time>
      </trkpt>
      <trkpt lat="49.45783" lon="3.69455">
        <ele>98.19</ele>
        <time>2017-04-30T11:17:21Z</time>
      </trkpt>
      <trkpt lat="49.45784" lon="3.69457">
        <ele>98.67</ele>
        <time>2017-04-30T11:17:32Z</time>
      </trkpt>
      <trkpt lat="49.45785" lon="3.69458">
        <ele>98.67</ele>
        <time>2017-04-30T11:17:41Z</time>
      </trkpt>
      <trkpt lat="49.45787" lon="3.6946">
        <ele>98.67</ele>
        <time>2017-04-30T11:17:54Z</time>
      </trkpt>
      <trkpt lat="49.45788" lon="3.69461">
        <ele>98.67</ele>
        <time>2017-04-30T11:18:05Z</time>
      </trkpt>
      <trkpt lat="49.45789" lon="3.69461">
        <ele>98.67</ele>
        <time>2017-04-30T11:18:20Z</time>
      </trkpt>
      <trkpt lat="49.45789" lon="3.69462">
        <ele>99.15</ele>
        <time>2017-04-30T11:18:38Z</time>
      </trkpt>
      <trkpt lat="49.45789" lon="3.69462">
        <ele>99.15</ele>
        <time>2017-04-30T11:18:53Z</time>
      </trkpt>
      <trkpt lat="49.4579" lon="3.69464">
        <ele>98.67</ele>
        <time>2017-04-30T11:19:09Z</time>
      </trkpt>
      <trkpt lat="49.4579" lon="3.69465">
        <ele>98.19</ele>
        <time>2017-04-30T11:19:23Z</time>
      </trkpt>
      <trkpt lat="49.4579" lon="3.69465">
        <ele>98.19</ele>
        <time>2017-04-30T11:19:26Z</time>
      </trkpt>
      <trkpt lat="49.45794" lon="3.69468">
        <ele>98.19</ele>
        <time>2017-04-30T11:19:33Z</time>
      </trkpt>
      <trkpt lat="49.45797" lon="3.69472">
        <ele>98.19</ele>
        <time>2017-04-30T11:19:38Z</time>
      </trkpt>
      <trkpt lat="49.45805" lon="3.69471">
        <ele>98.19</ele>
        <time>2017-04-30T11:19:45Z</time>
      </trkpt>
      <trkpt lat="49.45812" lon="3.69474">
        <ele>98.19</ele>
        <time>2017-04-30T11:19:53Z</time>
      </trkpt>
      <trkpt lat="49.45819" lon="3.69476">
        <ele>98.19</ele>
        <time>2017-04-30T11:20:00Z</time>
      </trkpt>
      <trkpt lat="49.45824" lon="3.69477">
        <ele>98.19</ele>
        <time>2017-04-30T11:20:06Z</time>
      </trkpt>
      <trkpt lat="49.4583" lon="3.69477">
        <ele>98.19</ele>
        <time>2017-04-30T11:20:11Z</time>
      </trkpt>
      <trkpt lat="49.45838" lon="3.69476">
        <ele>98.19</ele>
        <time>2017-04-30T11:20:18Z</time>
      </trkpt>
      <trkpt lat="49.45842" lon="3.69477">
        <ele>97.71</ele>
        <time>2017-04-30T11:20:21Z</time>
      </trkpt>
      <trkpt lat="49.4585" lon="3.6948">
        <ele>97.71</ele>
        <time>2017-04-30T11:20:27Z</time>
      </trkpt>
      <trkpt lat="49.45854" lon="3.69484">
        <ele>98.19</ele>
        <time>2017-04-30T11:20:31Z</time>
      </trkpt>
      <trkpt lat="49.4586" lon="3.6949">
        <ele>98.19</ele>
        <time>2017-04-30T11:20:36Z</time>
      </trkpt>
      <trkpt lat="49.45867" lon="3.69498">
        <ele>98.19</ele>
        <time>2017-04-30T11:20:41Z</time>
      </trkpt>
      <trkpt lat="49.45872" lon="3.69505">
        <ele>97.71</ele>
        <time>2017-04-30T11:20:45Z</time>
      </trkpt>
      <trkpt lat="49.45875" lon="3.69508">
        <ele>97.71</ele>
        <time>2017-04-30T11:20:48Z</time>
      </trkpt>
      <trkpt lat="49.45882" lon="3.69513">
        <ele>97.71</ele>
        <time>2017-04-30T11:20:53Z</time>
      </trkpt>
      <trkpt lat="49.45886" lon="3.69518">
        <ele>98.67</ele>
        <time>2017-04-30T11:20:57Z</time>
      </trkpt>
      <trkpt lat="49.45894" lon="3.69527">
        <ele>99.15</ele>
        <time>2017-04-30T11:21:04Z</time>
      </trkpt>
      <trkpt lat="49.45901" lon="3.69536">
        <ele>99.63</ele>
        <time>2017-04-30T11:21:11Z</time>
      </trkpt>
      <trkpt lat="49.45902" lon="3.69537">
        <ele>100.11</ele>
        <time>2017-04-30T11:21:12Z</time>
      </trkpt>
      <trkpt lat="49.45907" lon="3.69545">
        <ele>100.11</ele>
        <time>2017-04-30T11:21:17Z</time>
      </trkpt>
      <trkpt lat="49.45913" lon="3.69551">
        <ele>100.11</ele>
        <time>2017-04-30T11:21:23Z</time>
      </trkpt>
      <trkpt lat="49.45916" lon="3.69555">
        <ele>100.11</ele>
        <time>2017-04-30T11:21:26Z</time>
      </trkpt>
      <trkpt lat="49.45922" lon="3.69567">
        <ele>100.11</ele>
        <time>2017-04-30T11:21:34Z</time>
      </trkpt>
      <trkpt lat="49.45926" lon="3.69573">
        <ele>99.63</ele>
        <time>2017-04-30T11:21:39Z</time>
      </trkpt>
      <trkpt lat="49.45929" lon="3.69579">
        <ele>100.11</ele>
        <time>2017-04-30T11:21:44Z</time>
      </trkpt>
      <trkpt lat="49.45932" lon="3.69583">
        <ele>99.15</ele>
        <time>2017-04-30T11:21:48Z</time>
      </trkpt>
      <trkpt lat="49.45935" lon="3.69584">
        <ele>98.67</ele>
        <time>2017-04-30T11:21:53Z</time>
      </trkpt>
      <trkpt lat="49.45939" lon="3.69593">
        <ele>98.67</ele>
        <time>2017-04-30T11:21:59Z</time>
      </trkpt>
      <trkpt lat="49.45944" lon="3.69601">
        <ele>99.15</ele>
        <time>2017-04-30T11:22:05Z</time>
      </trkpt>
      <trkpt lat="49.45947" lon="3.69604">
        <ele>98.67</ele>
        <time>2017-04-30T11:22:08Z</time>
      </trkpt>
      <trkpt lat="49.4595" lon="3.69606">
        <ele>99.15</ele>
        <time>2017-04-30T11:22:12Z</time>
      </trkpt>
      <trkpt lat="49.45955" lon="3.69608">
        <ele>99.15</ele>
        <time>2017-04-30T11:22:16Z</time>
      </trkpt>
      <trkpt lat="49.45963" lon="3.69614">
        <ele>99.15</ele>
        <time>2017-04-30T11:22:22Z</time>
      </trkpt>
      <trkpt lat="49.45965" lon="3.69614">
        <ele>99.15</ele>
        <time>2017-04-30T11:22:24Z</time>
      </trkpt>
      <trkpt lat="49.45968" lon="3.69616">
        <ele>99.63</ele>
        <time>2017-04-30T11:22:27Z</time>
      </trkpt>
      <trkpt lat="49.45975" lon="3.69617">
        <ele>99.15</ele>
        <time>2017-04-30T11:22:34Z</time>
      </trkpt>
      <trkpt lat="49.45977" lon="3.69621">
        <ele>99.15</ele>
        <time>2017-04-30T11:22:39Z</time>
      </trkpt>
      <trkpt lat="49.45978" lon="3.69623">
        <ele>99.15</ele>
        <time>2017-04-30T11:22:49Z</time>
      </trkpt>
      <trkpt lat="49.45979" lon="3.69623">
        <ele>99.15</ele>
        <time>2017-04-30T11:22:56Z</time>
      </trkpt>
      <trkpt lat="49.45979" lon="3.6962">
        <ele>99.15</ele>
        <time>2017-04-30T11:22:59Z</time>
      </trkpt>
      <trkpt lat="49.45978" lon="3.69617">
        <ele>99.63</ele>
        <time>2017-04-30T11:23:06Z</time>
      </trkpt>
      <trkpt lat="49.4598" lon="3.69618">
        <ele>100.11</ele>
        <time>2017-04-30T11:23:15Z</time>
      </trkpt>
      <trkpt lat="49.45983" lon="3.69617">
        <ele>100.6</ele>
        <time>2017-04-30T11:23:24Z</time>
      </trkpt>
      <trkpt lat="49.45983" lon="3.69621">
        <ele>100.6</ele>
        <time>2017-04-30T11:23:29Z</time>
      </trkpt>
      <trkpt lat="49.45984" lon="3.69624">
        <ele>100.6</ele>
        <time>2017-04-30T11:23:31Z</time>
      </trkpt>
      <trkpt lat="49.45986" lon="3.69626">
        <ele>100.6</ele>
        <time>2017-04-30T11:23:34Z</time>
      </trkpt>
      <trkpt lat="49.45987" lon="3.69631">
        <ele>100.11</ele>
        <time>2017-04-30T11:23:37Z</time>
      </trkpt>
      <trkpt lat="49.45988" lon="3.69634">
        <ele>100.11</ele>
        <time>2017-04-30T11:23:39Z</time>
      </trkpt>
      <trkpt lat="49.45988" lon="3.69644">
        <ele>99.63</ele>
        <time>2017-04-30T11:23:44Z</time>
      </trkpt>
      <trkpt lat="49.45989" lon="3.69652">
        <ele>100.11</ele>
        <time>2017-04-30T11:23:49Z</time>
      </trkpt>
      <trkpt lat="49.45991" lon="3.69655">
        <ele>100.6</ele>
        <time>2017-04-30T11:23:52Z</time>
      </trkpt>
      <trkpt lat="49.45994" lon="3.69662">
        <ele>100.6</ele>
        <time>2017-04-30T11:23:56Z</time>
      </trkpt>
      <trkpt lat="49.46" lon="3.69669">
        <ele>100.6</ele>
        <time>2017-04-30T11:24:02Z</time>
      </trkpt>
      <trkpt lat="49.46003" lon="3.69677">
        <ele>100.6</ele>
        <time>2017-04-30T11:24:06Z</time>
      </trkpt>
      <trkpt lat="49.46007" lon="3.69683">
        <ele>100.6</ele>
        <time>2017-04-30T11:24:09Z</time>
      </trkpt>
      <trkpt lat="49.46015" lon="3.69693">
        <ele>101.08</ele>
        <time>2017-04-30T11:24:16Z</time>
      </trkpt>
      <trkpt lat="49.46018" lon="3.69699">
        <ele>100.6</ele>
        <time>2017-04-30T11:24:22Z</time>
      </trkpt>
      <trkpt lat="49.4602" lon="3.69703">
        <ele>100.6</ele>
        <time>2017-04-30T11:24:24Z</time>
      </trkpt>
      <trkpt lat="49.46026" lon="3.69698">
        <ele>101.08</ele>
        <time>2017-04-30T11:24:27Z</time>
      </trkpt>
      <trkpt lat="49.46033" lon="3.69702">
        <ele>101.08</ele>
        <time>2017-04-30T11:24:32Z</time>
      </trkpt>
      <trkpt lat="49.46042" lon="3.69705">
        <ele>101.56</ele>
        <time>2017-04-30T11:24:37Z</time>
      </trkpt>
      <trkpt lat="49.46047" lon="3.6971">
        <ele>101.56</ele>
        <time>2017-04-30T11:24:42Z</time>
      </trkpt>
      <trkpt lat="49.46052" lon="3.69722">
        <ele>101.56</ele>
        <time>2017-04-30T11:24:49Z</time>
      </trkpt>
      <trkpt lat="49.46058" lon="3.69738">
        <ele>102.04</ele>
        <time>2017-04-30T11:24:56Z</time>
      </trkpt>
      <trkpt lat="49.46063" lon="3.69745">
        <ele>102.52</ele>
        <time>2017-04-30T11:25:03Z</time>
      </trkpt>
      <trkpt lat="49.46065" lon="3.69749">
        <ele>102.04</ele>
        <time>2017-04-30T11:25:06Z</time>
      </trkpt>
      <trkpt lat="49.46066" lon="3.6975">
        <ele>102.04</ele>
        <time>2017-04-30T11:25:08Z</time>
      </trkpt>
      <trkpt lat="49.46068" lon="3.69751">
        <ele>102.04</ele>
        <time>2017-04-30T11:25:10Z</time>
      </trkpt>
      <trkpt lat="49.46066" lon="3.69762">
        <ele>101.56</ele>
        <time>2017-04-30T11:25:17Z</time>
      </trkpt>
      <trkpt lat="49.46066" lon="3.69768">
        <ele>102.04</ele>
        <time>2017-04-30T11:25:23Z</time>
      </trkpt>
      <trkpt lat="49.46065" lon="3.69772">
        <ele>102.04</ele>
        <time>2017-04-30T11:25:25Z</time>
      </trkpt>
      <trkpt lat="49.46064" lon="3.69779">
        <ele>102.52</ele>
        <time>2017-04-30T11:25:29Z</time>
      </trkpt>
      <trkpt lat="49.46066" lon="3.69784">
        <ele>102.52</ele>
        <time>2017-04-30T11:25:33Z</time>
      </trkpt>
      <trkpt lat="49.46069" lon="3.69785">
        <ele>102.52</ele>
        <time>2017-04-30T11:25:36Z</time>
      </trkpt>
      <trkpt lat="49.4607" lon="3.69788">
        <ele>102.52</ele>
        <time>2017-04-30T11:25:41Z</time>
      </trkpt>
      <trkpt lat="49.46075" lon="3.69793">
        <ele>103</ele>
        <time>2017-04-30T11:25:45Z</time>
      </trkpt>
      <trkpt lat="49.46072" lon="3.69808">
        <ele>103</ele>
        <time>2017-04-30T11:25:52Z</time>
      </trkpt>
      <trkpt lat="49.46072" lon="3.69811">
        <ele>103</ele>
        <time>2017-04-30T11:25:54Z</time>
      </trkpt>
      <trkpt lat="49.46077" lon="3.6982">
        <ele>102.52</ele>
        <time>2017-04-30T11:26:00Z</time>
      </trkpt>
      <trkpt lat="49.4608" lon="3.69822">
        <ele>102.52</ele>
        <time>2017-04-30T11:26:03Z</time>
      </trkpt>
      <trkpt lat="49.46082" lon="3.69832">
        <ele>103</ele>
        <time>2017-04-30T11:26:12Z</time>
      </trkpt>
      <trkpt lat="49.46083" lon="3.69832">
        <ele>102.52</ele>
        <time>2017-04-30T11:26:13Z</time>
      </trkpt>
      <trkpt lat="49.46085" lon="3.69831">
        <ele>102.52</ele>
        <time>2017-04-30T11:26:16Z</time>
      </trkpt>
      <trkpt lat="49.46087" lon="3.69831">
        <ele>102.04</ele>
        <time>2017-04-30T11:26:19Z</time>
      </trkpt>
      <trkpt lat="49.46089" lon="3.69829">
        <ele>101.56</ele>
        <time>2017-04-30T11:26:22Z</time>
      </trkpt>
      <trkpt lat="49.46096" lon="3.69831">
        <ele>102.04</ele>
        <time>2017-04-30T11:26:29Z</time>
      </trkpt>
      <trkpt lat="49.46101" lon="3.69841">
        <ele>101.08</ele>
        <time>2017-04-30T11:26:36Z</time>
      </trkpt>
      <trkpt lat="49.46101" lon="3.69843">
        <ele>101.08</ele>
        <time>2017-04-30T11:26:43Z</time>
      </trkpt>
      <trkpt lat="49.46102" lon="3.69844">
        <ele>100.6</ele>
        <time>2017-04-30T11:26:56Z</time>
      </trkpt>
      <trkpt lat="49.46103" lon="3.69845">
        <ele>101.56</ele>
        <time>2017-04-30T11:27:09Z</time>
      </trkpt>
      <trkpt lat="49.46103" lon="3.69846">
        <ele>100.11</ele>
        <time>2017-04-30T11:27:25Z</time>
      </trkpt>
      <trkpt lat="49.46103" lon="3.69846">
        <ele>101.08</ele>
        <time>2017-04-30T11:27:41Z</time>
      </trkpt>
      <trkpt lat="49.46102" lon="3.69846">
        <ele>100.6</ele>
        <time>2017-04-30T11:27:59Z</time>
      </trkpt>
      <trkpt lat="49.46102" lon="3.69846">
        <ele>100.11</ele>
        <time>2017-04-30T11:28:22Z</time>
      </trkpt>
      <trkpt lat="49.46102" lon="3.69846">
        <ele>99.63</ele>
        <time>2017-04-30T11:28:42Z</time>
      </trkpt>
      <trkpt lat="49.46102" lon="3.69845">
        <ele>99.15</ele>
        <time>2017-04-30T11:28:51Z</time>
      </trkpt>
      <trkpt lat="49.46102" lon="3.69845">
        <ele>101.08</ele>
        <time>2017-04-30T11:29:03Z</time>
      </trkpt>
      <trkpt lat="49.46101" lon="3.69845">
        <ele>99.63</ele>
        <time>2017-04-30T11:29:17Z</time>
      </trkpt>
      <trkpt lat="49.46101" lon="3.69846">
        <ele>99.15</ele>
        <time>2017-04-30T11:29:31Z</time>
      </trkpt>
      <trkpt lat="49.46101" lon="3.69846">
        <ele>99.63</ele>
        <time>2017-04-30T11:29:48Z</time>
      </trkpt>
      <trkpt lat="49.46101" lon="3.69846">
        <ele>98.19</ele>
        <time>2017-04-30T11:30:05Z</time>
      </trkpt>
      <trkpt lat="49.46101" lon="3.69846">
        <ele>99.15</ele>
        <time>2017-04-30T11:30:24Z</time>
      </trkpt>
      <trkpt lat="49.46101" lon="3.69846">
        <ele>98.67</ele>
        <time>2017-04-30T11:30:41Z</time>
      </trkpt>
      <trkpt lat="49.46101" lon="3.69845">
        <ele>97.71</ele>
        <time>2017-04-30T11:30:58Z</time>
      </trkpt>
      <trkpt lat="49.46101" lon="3.69845">
        <ele>98.67</ele>
        <time>2017-04-30T11:31:17Z</time>
      </trkpt>
      <trkpt lat="49.46101" lon="3.69845">
        <ele>98.19</ele>
        <time>2017-04-30T11:31:35Z</time>
      </trkpt>
      <trkpt lat="49.46102" lon="3.69845">
        <ele>98.19</ele>
        <time>2017-04-30T11:31:51Z</time>
      </trkpt>
      <trkpt lat="49.46102" lon="3.69845">
        <ele>98.19</ele>
        <time>2017-04-30T11:32:10Z</time>
      </trkpt>
      <trkpt lat="49.46102" lon="3.69845">
        <ele>97.71</ele>
        <time>2017-04-30T11:32:30Z</time>
      </trkpt>
      <trkpt lat="49.46102" lon="3.69845">
        <ele>98.19</ele>
        <time>2017-04-30T11:32:49Z</time>
      </trkpt>
      <trkpt lat="49.46102" lon="3.69845">
        <ele>97.23</ele>
        <time>2017-04-30T11:33:08Z</time>
      </trkpt>
      <trkpt lat="49.46102" lon="3.69845">
        <ele>96.75</ele>
        <time>2017-04-30T11:33:28Z</time>
      </trkpt>
      <trkpt lat="49.46102" lon="3.69845">
        <ele>96.75</ele>
        <time>2017-04-30T11:33:49Z</time>
      </trkpt>
      <trkpt lat="49.46102" lon="3.69845">
        <ele>97.23</ele>
        <time>2017-04-30T11:34:07Z</time>
      </trkpt>
      <trkpt lat="49.46101" lon="3.69845">
        <ele>97.23</ele>
        <time>2017-04-30T11:34:28Z</time>
      </trkpt>
      <trkpt lat="49.461" lon="3.69846">
        <ele>97.23</ele>
        <time>2017-04-30T11:34:50Z</time>
      </trkpt>
      <trkpt lat="49.46101" lon="3.69846">
        <ele>97.23</ele>
        <time>2017-04-30T11:35:11Z</time>
      </trkpt>
      <trkpt lat="49.46101" lon="3.69846">
        <ele>97.23</ele>
        <time>2017-04-30T11:35:29Z</time>
      </trkpt>
      <trkpt lat="49.46101" lon="3.69846">
        <ele>97.23</ele>
        <time>2017-04-30T11:35:50Z</time>
      </trkpt>
      <trkpt lat="49.46101" lon="3.69846">
        <ele>97.23</ele>
        <time>2017-04-30T11:36:09Z</time>
      </trkpt>
      <trkpt lat="49.46102" lon="3.69846">
        <ele>96.75</ele>
        <time>2017-04-30T11:36:27Z</time>
      </trkpt>
      <trkpt lat="49.46102" lon="3.69846">
        <ele>96.27</ele>
        <time>2017-04-30T11:36:45Z</time>
      </trkpt>
      <trkpt lat="49.46102" lon="3.69846">
        <ele>96.27</ele>
        <time>2017-04-30T11:37:06Z</time>
      </trkpt>
      <trkpt lat="49.46102" lon="3.69846">
        <ele>95.79</ele>
        <time>2017-04-30T11:37:25Z</time>
      </trkpt>
      <trkpt lat="49.46102" lon="3.69846">
        <ele>96.27</ele>
        <time>2017-04-30T11:37:44Z</time>
      </trkpt>
      <trkpt lat="49.46102" lon="3.69846">
        <ele>96.27</ele>
        <time>2017-04-30T11:38:01Z</time>
      </trkpt>
      <trkpt lat="49.46101" lon="3.69847">
        <ele>95.31</ele>
        <time>2017-04-30T11:38:23Z</time>
      </trkpt>
      <trkpt lat="49.46101" lon="3.69847">
        <ele>95.31</ele>
        <time>2017-04-30T11:38:41Z</time>
      </trkpt>
      <trkpt lat="49.46101" lon="3.69847">
        <ele>95.31</ele>
        <time>2017-04-30T11:39:01Z</time>
      </trkpt>
      <trkpt lat="49.46101" lon="3.69847">
        <ele>94.83</ele>
        <time>2017-04-30T11:39:19Z</time>
      </trkpt>
      <trkpt lat="49.46101" lon="3.69847">
        <ele>94.83</ele>
        <time>2017-04-30T11:39:37Z</time>
      </trkpt>
      <trkpt lat="49.46101" lon="3.69847">
        <ele>94.35</ele>
        <time>2017-04-30T11:39:56Z</time>
      </trkpt>
      <trkpt lat="49.46101" lon="3.69847">
        <ele>94.35</ele>
        <time>2017-04-30T11:40:17Z</time>
      </trkpt>
      <trkpt lat="49.46101" lon="3.69847">
        <ele>94.83</ele>
        <time>2017-04-30T11:40:38Z</time>
      </trkpt>
      <trkpt lat="49.46101" lon="3.69847">
        <ele>93.87</ele>
        <time>2017-04-30T11:40:58Z</time>
      </trkpt>
      <trkpt lat="49.46101" lon="3.69847">
        <ele>94.35</ele>
        <time>2017-04-30T11:41:20Z</time>
      </trkpt>
      <trkpt lat="49.46101" lon="3.69847">
        <ele>94.35</ele>
        <time>2017-04-30T11:41:36Z</time>
      </trkpt>
      <trkpt lat="49.46101" lon="3.69847">
        <ele>93.87</ele>
        <time>2017-04-30T11:41:54Z</time>
      </trkpt>
      <trkpt lat="49.46101" lon="3.69847">
        <ele>93.87</ele>
        <time>2017-04-30T11:42:09Z</time>
      </trkpt>
      <trkpt lat="49.46102" lon="3.69846">
        <ele>93.87</ele>
        <time>2017-04-30T11:42:29Z</time>
      </trkpt>
      <trkpt lat="49.46102" lon="3.69846">
        <ele>93.39</ele>
        <time>2017-04-30T11:42:46Z</time>
      </trkpt>
      <trkpt lat="49.46101" lon="3.69846">
        <ele>93.87</ele>
        <time>2017-04-30T11:43:06Z</time>
      </trkpt>
      <trkpt lat="49.46101" lon="3.69847">
        <ele>93.87</ele>
        <time>2017-04-30T11:43:24Z</time>
      </trkpt>
      <trkpt lat="49.46101" lon="3.69847">
        <ele>94.83</ele>
        <time>2017-04-30T11:43:39Z</time>
      </trkpt>
      <trkpt lat="49.46101" lon="3.69847">
        <ele>93.87</ele>
        <time>2017-04-30T11:43:51Z</time>
      </trkpt>
      <trkpt lat="49.46102" lon="3.69847">
        <ele>94.35</ele>
        <time>2017-04-30T11:44:05Z</time>
      </trkpt>
      <trkpt lat="49.46101" lon="3.69848">
        <ele>94.35</ele>
        <time>2017-04-30T11:44:26Z</time>
      </trkpt>
      <trkpt lat="49.46101" lon="3.69848">
        <ele>93.87</ele>
        <time>2017-04-30T11:44:39Z</time>
      </trkpt>
      <trkpt lat="49.46102" lon="3.69848">
        <ele>93.87</ele>
        <time>2017-04-30T11:44:54Z</time>
      </trkpt>
      <trkpt lat="49.46102" lon="3.69847">
        <ele>93.87</ele>
        <time>2017-04-30T11:45:09Z</time>
      </trkpt>
      <trkpt lat="49.46102" lon="3.69847">
        <ele>93.87</ele>
        <time>2017-04-30T11:45:25Z</time>
      </trkpt>
      <trkpt lat="49.46102" lon="3.69847">
        <ele>93.87</ele>
        <time>2017-04-30T11:45:42Z</time>
      </trkpt>
      <trkpt lat="49.46102" lon="3.69847">
        <ele>92.9</ele>
        <time>2017-04-30T11:46:01Z</time>
      </trkpt>
      <trkpt lat="49.46101" lon="3.69848">
        <ele>92.9</ele>
        <time>2017-04-30T11:46:15Z</time>
      </trkpt>
      <trkpt lat="49.46101" lon="3.69848">
        <ele>92.9</ele>
        <time>2017-04-30T11:46:33Z</time>
      </trkpt>
      <trkpt lat="49.46102" lon="3.69849">
        <ele>92.42</ele>
        <time>2017-04-30T11:46:52Z</time>
      </trkpt>
      <trkpt lat="49.46101" lon="3.69849">
        <ele>91.94</ele>
        <time>2017-04-30T11:47:10Z</time>
      </trkpt>
      <trkpt lat="49.46102" lon="3.69849">
        <ele>93.39</ele>
        <time>2017-04-30T11:47:22Z</time>
      </trkpt>
      <trkpt lat="49.46102" lon="3.69849">
        <ele>93.39</ele>
        <time>2017-04-30T11:47:38Z</time>
      </trkpt>
      <trkpt lat="49.46102" lon="3.69848">
        <ele>92.42</ele>
        <time>2017-04-30T11:47:52Z</time>
      </trkpt>
      <trkpt lat="49.46101" lon="3.69848">
        <ele>93.39</ele>
        <time>2017-04-30T11:48:09Z</time>
      </trkpt>
      <trkpt lat="49.46101" lon="3.69847">
        <ele>93.39</ele>
        <time>2017-04-30T11:48:24Z</time>
      </trkpt>
      <trkpt lat="49.46101" lon="3.69848">
        <ele>92.42</ele>
        <time>2017-04-30T11:48:39Z</time>
      </trkpt>
      <trkpt lat="49.46101" lon="3.69847">
        <ele>92.42</ele>
        <time>2017-04-30T11:48:56Z</time>
      </trkpt>
      <trkpt lat="49.46102" lon="3.69848">
        <ele>92.42</ele>
        <time>2017-04-30T11:49:16Z</time>
      </trkpt>
      <trkpt lat="49.46101" lon="3.69847">
        <ele>92.42</ele>
        <time>2017-04-30T11:49:34Z</time>
      </trkpt>
      <trkpt lat="49.461" lon="3.69848">
        <ele>91.94</ele>
        <time>2017-04-30T11:49:53Z</time>
      </trkpt>
      <trkpt lat="49.461" lon="3.69849">
        <ele>91.46</ele>
        <time>2017-04-30T11:50:12Z</time>
      </trkpt>
      <trkpt lat="49.461" lon="3.6985">
        <ele>91.94</ele>
        <time>2017-04-30T11:50:31Z</time>
      </trkpt>
      <trkpt lat="49.46102" lon="3.69848">
        <ele>91.46</ele>
        <time>2017-04-30T11:50:56Z</time>
      </trkpt>
      <trkpt lat="49.46102" lon="3.69848">
        <ele>91.94</ele>
        <time>2017-04-30T11:51:15Z</time>
      </trkpt>
      <trkpt lat="49.46102" lon="3.69848">
        <ele>91.94</ele>
        <time>2017-04-30T11:51:33Z</time>
      </trkpt>
      <trkpt lat="49.46102" lon="3.69847">
        <ele>91.94</ele>
        <time>2017-04-30T11:51:50Z</time>
      </trkpt>
      <trkpt lat="49.46103" lon="3.69847">
        <ele>91.46</ele>
        <time>2017-04-30T11:52:06Z</time>
      </trkpt>
      <trkpt lat="49.46103" lon="3.69846">
        <ele>91.46</ele>
        <time>2017-04-30T11:52:26Z</time>
      </trkpt>
      <trkpt lat="49.46102" lon="3.69847">
        <ele>91.46</ele>
        <time>2017-04-30T11:52:45Z</time>
      </trkpt>
      <trkpt lat="49.46102" lon="3.69847">
        <ele>91.46</ele>
        <time>2017-04-30T11:53:03Z</time>
      </trkpt>
      <trkpt lat="49.46102" lon="3.69847">
        <ele>91.94</ele>
        <time>2017-04-30T11:53:16Z</time>
      </trkpt>
      <trkpt lat="49.46102" lon="3.69846">
        <ele>91.46</ele>
        <time>2017-04-30T11:53:24Z</time>
      </trkpt>
      <trkpt lat="49.46102" lon="3.69846">
        <ele>91.94</ele>
        <time>2017-04-30T11:53:41Z</time>
      </trkpt>
      <trkpt lat="49.46102" lon="3.69846">
        <ele>86.66</ele>
        <time>2017-04-30T11:53:55Z</time>
      </trkpt>
      <trkpt lat="49.46102" lon="3.69846">
        <ele>96.27</ele>
        <time>2017-04-30T11:53:56Z</time>
      </trkpt>
      <trkpt lat="49.46102" lon="3.69846">
        <ele>91.94</ele>
        <time>2017-04-30T11:53:57Z</time>
      </trkpt>
      <trkpt lat="49.46102" lon="3.69846">
        <ele>90.02</ele>
        <time>2017-04-30T11:53:59Z</time>
      </trkpt>
      <trkpt lat="49.46102" lon="3.69846">
        <ele>95.79</ele>
        <time>2017-04-30T11:54:00Z</time>
      </trkpt>
      <trkpt lat="49.46102" lon="3.69846">
        <ele>92.42</ele>
        <time>2017-04-30T11:54:01Z</time>
      </trkpt>
      <trkpt lat="49.46102" lon="3.69846">
        <ele>91.46</ele>
        <time>2017-04-30T11:54:03Z</time>
      </trkpt>
      <trkpt lat="49.46102" lon="3.69847">
        <ele>90.5</ele>
        <time>2017-04-30T11:54:25Z</time>
      </trkpt>
      <trkpt lat="49.46102" lon="3.69847">
        <ele>90.98</ele>
        <time>2017-04-30T11:54:51Z</time>
      </trkpt>
      <trkpt lat="49.46102" lon="3.69848">
        <ele>90.98</ele>
        <time>2017-04-30T11:55:14Z</time>
      </trkpt>
      <trkpt lat="49.46101" lon="3.69847">
        <ele>90.98</ele>
        <time>2017-04-30T11:55:38Z</time>
      </trkpt>
      <trkpt lat="49.46101" lon="3.69846">
        <ele>89.54</ele>
        <time>2017-04-30T11:55:59Z</time>
      </trkpt>
      <trkpt lat="49.46101" lon="3.69847">
        <ele>90.02</ele>
        <time>2017-04-30T11:56:20Z</time>
      </trkpt>
      <trkpt lat="49.46102" lon="3.69847">
        <ele>90.02</ele>
        <time>2017-04-30T11:56:39Z</time>
      </trkpt>
      <trkpt lat="49.46101" lon="3.69846">
        <ele>89.54</ele>
        <time>2017-04-30T11:56:57Z</time>
      </trkpt>
      <trkpt lat="49.46102" lon="3.69846">
        <ele>90.02</ele>
        <time>2017-04-30T11:57:19Z</time>
      </trkpt>
      <trkpt lat="49.46102" lon="3.69846">
        <ele>90.5</ele>
        <time>2017-04-30T11:57:40Z</time>
      </trkpt>
      <trkpt lat="49.46102" lon="3.69846">
        <ele>89.54</ele>
        <time>2017-04-30T11:57:58Z</time>
      </trkpt>
      <trkpt lat="49.46102" lon="3.69846">
        <ele>89.06</ele>
        <time>2017-04-30T11:58:19Z</time>
      </trkpt>
      <trkpt lat="49.46102" lon="3.69846">
        <ele>89.54</ele>
        <time>2017-04-30T11:58:42Z</time>
      </trkpt>
      <trkpt lat="49.46102" lon="3.69846">
        <ele>89.06</ele>
        <time>2017-04-30T11:59:02Z</time>
      </trkpt>
      <trkpt lat="49.46102" lon="3.69846">
        <ele>89.06</ele>
        <time>2017-04-30T11:59:18Z</time>
      </trkpt>
      <trkpt lat="49.46102" lon="3.69846">
        <ele>89.06</ele>
        <time>2017-04-30T11:59:37Z</time>
      </trkpt>
      <trkpt lat="49.46102" lon="3.69845">
        <ele>88.58</ele>
        <time>2017-04-30T11:59:51Z</time>
      </trkpt>
      <trkpt lat="49.46101" lon="3.69846">
        <ele>89.06</ele>
        <time>2017-04-30T12:00:08Z</time>
      </trkpt>
      <trkpt lat="49.46102" lon="3.69846">
        <ele>89.54</ele>
        <time>2017-04-30T12:00:28Z</time>
      </trkpt>
      <trkpt lat="49.46102" lon="3.69845">
        <ele>89.06</ele>
        <time>2017-04-30T12:00:44Z</time>
      </trkpt>
      <trkpt lat="49.46102" lon="3.69845">
        <ele>88.58</ele>
        <time>2017-04-30T12:01:02Z</time>
      </trkpt>
      <trkpt lat="49.46102" lon="3.69845">
        <ele>89.06</ele>
        <time>2017-04-30T12:01:21Z</time>
      </trkpt>
      <trkpt lat="49.46102" lon="3.69845">
        <ele>88.1</ele>
        <time>2017-04-30T12:01:42Z</time>
      </trkpt>
      <trkpt lat="49.46102" lon="3.69845">
        <ele>87.62</ele>
        <time>2017-04-30T12:02:00Z</time>
      </trkpt>
      <trkpt lat="49.46102" lon="3.69846">
        <ele>88.1</ele>
        <time>2017-04-30T12:02:19Z</time>
      </trkpt>
      <trkpt lat="49.46102" lon="3.69846">
        <ele>87.62</ele>
        <time>2017-04-30T12:02:37Z</time>
      </trkpt>
      <trkpt lat="49.46102" lon="3.69846">
        <ele>87.62</ele>
        <time>2017-04-30T12:03:00Z</time>
      </trkpt>
      <trkpt lat="49.46102" lon="3.69847">
        <ele>87.62</ele>
        <time>2017-04-30T12:03:21Z</time>
      </trkpt>
      <trkpt lat="49.46102" lon="3.69846">
        <ele>88.1</ele>
        <time>2017-04-30T12:03:40Z</time>
      </trkpt>
      <trkpt lat="49.46102" lon="3.69847">
        <ele>87.62</ele>
        <time>2017-04-30T12:03:59Z</time>
      </trkpt>
      <trkpt lat="49.46102" lon="3.69847">
        <ele>87.14</ele>
        <time>2017-04-30T12:04:18Z</time>
      </trkpt>
      <trkpt lat="49.46102" lon="3.69847">
        <ele>87.14</ele>
        <time>2017-04-30T12:04:40Z</time>
      </trkpt>
      <trkpt lat="49.46102" lon="3.69847">
        <ele>86.66</ele>
        <time>2017-04-30T12:04:56Z</time>
      </trkpt>
      <trkpt lat="49.46101" lon="3.69847">
        <ele>86.66</ele>
        <time>2017-04-30T12:05:15Z</time>
      </trkpt>
      <trkpt lat="49.46101" lon="3.69846">
        <ele>87.62</ele>
        <time>2017-04-30T12:05:34Z</time>
      </trkpt>
      <trkpt lat="49.46101" lon="3.69847">
        <ele>87.62</ele>
        <time>2017-04-30T12:05:56Z</time>
      </trkpt>
      <trkpt lat="49.46102" lon="3.69847">
        <ele>87.62</ele>
        <time>2017-04-30T12:06:17Z</time>
      </trkpt>
      <trkpt lat="49.46101" lon="3.69847">
        <ele>86.66</ele>
        <time>2017-04-30T12:06:38Z</time>
      </trkpt>
      <trkpt lat="49.46101" lon="3.69847">
        <ele>86.66</ele>
        <time>2017-04-30T12:06:55Z</time>
      </trkpt>
      <trkpt lat="49.46101" lon="3.69847">
        <ele>87.14</ele>
        <time>2017-04-30T12:07:13Z</time>
      </trkpt>
      <trkpt lat="49.46102" lon="3.69847">
        <ele>86.66</ele>
        <time>2017-04-30T12:07:30Z</time>
      </trkpt>
      <trkpt lat="49.46102" lon="3.69847">
        <ele>87.62</ele>
        <time>2017-04-30T12:07:44Z</time>
      </trkpt>
      <trkpt lat="49.46103" lon="3.69847">
        <ele>86.18</ele>
        <time>2017-04-30T12:08:06Z</time>
      </trkpt>
      <trkpt lat="49.46103" lon="3.69846">
        <ele>85.69</ele>
        <time>2017-04-30T12:08:24Z</time>
      </trkpt>
      <trkpt lat="49.46103" lon="3.69846">
        <ele>86.18</ele>
        <time>2017-04-30T12:08:36Z</time>
      </trkpt>
      <trkpt lat="49.46103" lon="3.69846">
        <ele>86.66</ele>
        <time>2017-04-30T12:08:52Z</time>
      </trkpt>
      <trkpt lat="49.46102" lon="3.69847">
        <ele>87.62</ele>
        <time>2017-04-30T12:09:10Z</time>
      </trkpt>
      <trkpt lat="49.46102" lon="3.69848">
        <ele>87.14</ele>
        <time>2017-04-30T12:09:28Z</time>
      </trkpt>
      <trkpt lat="49.46101" lon="3.69848">
        <ele>87.14</ele>
        <time>2017-04-30T12:09:46Z</time>
      </trkpt>
      <trkpt lat="49.46101" lon="3.69847">
        <ele>86.66</ele>
        <time>2017-04-30T12:10:04Z</time>
      </trkpt>
      <trkpt lat="49.46101" lon="3.69847">
        <ele>87.14</ele>
        <time>2017-04-30T12:10:25Z</time>
      </trkpt>
      <trkpt lat="49.461" lon="3.69847">
        <ele>87.62</ele>
        <time>2017-04-30T12:10:40Z</time>
      </trkpt>
      <trkpt lat="49.461" lon="3.69847">
        <ele>87.62</ele>
        <time>2017-04-30T12:10:56Z</time>
      </trkpt>
      <trkpt lat="49.461" lon="3.69848">
        <ele>87.14</ele>
        <time>2017-04-30T12:11:13Z</time>
      </trkpt>
      <trkpt lat="49.461" lon="3.69847">
        <ele>88.1</ele>
        <time>2017-04-30T12:11:33Z</time>
      </trkpt>
      <trkpt lat="49.461" lon="3.69847">
        <ele>87.14</ele>
        <time>2017-04-30T12:11:54Z</time>
      </trkpt>
      <trkpt lat="49.461" lon="3.69847">
        <ele>87.14</ele>
        <time>2017-04-30T12:12:12Z</time>
      </trkpt>
      <trkpt lat="49.461" lon="3.69848">
        <ele>87.14</ele>
        <time>2017-04-30T12:12:32Z</time>
      </trkpt>
      <trkpt lat="49.461" lon="3.69847">
        <ele>87.14</ele>
        <time>2017-04-30T12:12:54Z</time>
      </trkpt>
      <trkpt lat="49.461" lon="3.69847">
        <ele>87.14</ele>
        <time>2017-04-30T12:13:14Z</time>
      </trkpt>
      <trkpt lat="49.461" lon="3.69847">
        <ele>86.66</ele>
        <time>2017-04-30T12:13:36Z</time>
      </trkpt>
      <trkpt lat="49.461" lon="3.69846">
        <ele>86.18</ele>
        <time>2017-04-30T12:13:56Z</time>
      </trkpt>
      <trkpt lat="49.461" lon="3.69845">
        <ele>85.69</ele>
        <time>2017-04-30T12:14:18Z</time>
      </trkpt>
      <trkpt lat="49.461" lon="3.69846">
        <ele>86.66</ele>
        <time>2017-04-30T12:14:39Z</time>
      </trkpt>
      <trkpt lat="49.461" lon="3.69845">
        <ele>86.18</ele>
        <time>2017-04-30T12:14:58Z</time>
      </trkpt>
      <trkpt lat="49.461" lon="3.69846">
        <ele>86.18</ele>
        <time>2017-04-30T12:15:12Z</time>
      </trkpt>
      <trkpt lat="49.461" lon="3.69845">
        <ele>86.18</ele>
        <time>2017-04-30T12:15:33Z</time>
      </trkpt>
      <trkpt lat="49.461" lon="3.69845">
        <ele>85.69</ele>
        <time>2017-04-30T12:15:49Z</time>
      </trkpt>
      <trkpt lat="49.461" lon="3.69845">
        <ele>86.18</ele>
        <time>2017-04-30T12:16:05Z</time>
      </trkpt>
      <trkpt lat="49.461" lon="3.69845">
        <ele>85.69</ele>
        <time>2017-04-30T12:16:16Z</time>
      </trkpt>
      <trkpt lat="49.461" lon="3.69846">
        <ele>85.21</ele>
        <time>2017-04-30T12:16:31Z</time>
      </trkpt>
      <trkpt lat="49.461" lon="3.69846">
        <ele>85.69</ele>
        <time>2017-04-30T12:16:42Z</time>
      </trkpt>
      <trkpt lat="49.461" lon="3.69846">
        <ele>85.69</ele>
        <time>2017-04-30T12:16:52Z</time>
      </trkpt>
      <trkpt lat="49.461" lon="3.69846">
        <ele>86.18</ele>
        <time>2017-04-30T12:17:02Z</time>
      </trkpt>
      <trkpt lat="49.461" lon="3.69847">
        <ele>85.69</ele>
        <time>2017-04-30T12:17:16Z</time>
      </trkpt>
      <trkpt lat="49.461" lon="3.69847">
        <ele>85.69</ele>
        <time>2017-04-30T12:17:18Z</time>
      </trkpt>
      <trkpt lat="49.46099" lon="3.69846">
        <ele>86.66</ele>
        <time>2017-04-30T12:17:23Z</time>
      </trkpt>
      <trkpt lat="49.46099" lon="3.69846">
        <ele>87.14</ele>
        <time>2017-04-30T12:17:32Z</time>
      </trkpt>
      <trkpt lat="49.461" lon="3.69847">
        <ele>86.66</ele>
        <time>2017-04-30T12:17:41Z</time>
      </trkpt>
      <trkpt lat="49.461" lon="3.69847">
        <ele>86.66</ele>
        <time>2017-04-30T12:17:47Z</time>
      </trkpt>
      <trkpt lat="49.461" lon="3.69847">
        <ele>86.18</ele>
        <time>2017-04-30T12:17:54Z</time>
      </trkpt>
      <trkpt lat="49.46097" lon="3.69845">
        <ele>87.14</ele>
        <time>2017-04-30T12:18:03Z</time>
      </trkpt>
      <trkpt lat="49.46097" lon="3.69845">
        <ele>87.14</ele>
        <time>2017-04-30T12:18:14Z</time>
      </trkpt>
      <trkpt lat="49.46093" lon="3.69845">
        <ele>87.62</ele>
        <time>2017-04-30T12:18:23Z</time>
      </trkpt>
      <trkpt lat="49.46087" lon="3.69846">
        <ele>87.14</ele>
        <time>2017-04-30T12:18:32Z</time>
      </trkpt>
      <trkpt lat="49.4608" lon="3.69845">
        <ele>87.14</ele>
        <time>2017-04-30T12:18:40Z</time>
      </trkpt>
      <trkpt lat="49.46075" lon="3.69843">
        <ele>87.62</ele>
        <time>2017-04-30T12:18:48Z</time>
      </trkpt>
      <trkpt lat="49.4607" lon="3.69839">
        <ele>87.62</ele>
        <time>2017-04-30T12:18:56Z</time>
      </trkpt>
      <trkpt lat="49.46067" lon="3.69836">
        <ele>87.62</ele>
        <time>2017-04-30T12:19:02Z</time>
      </trkpt>
      <trkpt lat="49.46066" lon="3.69833">
        <ele>87.62</ele>
        <time>2017-04-30T12:19:08Z</time>
      </trkpt>
      <trkpt lat="49.46065" lon="3.69833">
        <ele>87.62</ele>
        <time>2017-04-30T12:19:22Z</time>
      </trkpt>
      <trkpt lat="49.46066" lon="3.69833">
        <ele>88.1</ele>
        <time>2017-04-30T12:19:36Z</time>
      </trkpt>
      <trkpt lat="49.46065" lon="3.69833">
        <ele>87.62</ele>
        <time>2017-04-30T12:19:52Z</time>
      </trkpt>
      <trkpt lat="49.46065" lon="3.69831">
        <ele>87.62</ele>
        <time>2017-04-30T12:19:58Z</time>
      </trkpt>
      <trkpt lat="49.46065" lon="3.69827">
        <ele>87.14</ele>
        <time>2017-04-30T12:20:04Z</time>
      </trkpt>
      <trkpt lat="49.46065" lon="3.69823">
        <ele>86.66</ele>
        <time>2017-04-30T12:20:11Z</time>
      </trkpt>
      <trkpt lat="49.46063" lon="3.6982">
        <ele>87.14</ele>
        <time>2017-04-30T12:20:18Z</time>
      </trkpt>
      <trkpt lat="49.46062" lon="3.69815">
        <ele>87.14</ele>
        <time>2017-04-30T12:20:25Z</time>
      </trkpt>
      <trkpt lat="49.46058" lon="3.69809">
        <ele>87.62</ele>
        <time>2017-04-30T12:20:32Z</time>
      </trkpt>
      <trkpt lat="49.46055" lon="3.69804">
        <ele>87.62</ele>
        <time>2017-04-30T12:20:40Z</time>
      </trkpt>
      <trkpt lat="49.46052" lon="3.69798">
        <ele>87.62</ele>
        <time>2017-04-30T12:20:45Z</time>
      </trkpt>
      <trkpt lat="49.46052" lon="3.69795">
        <ele>87.62</ele>
        <time>2017-04-30T12:20:56Z</time>
      </trkpt>
      <trkpt lat="49.46052" lon="3.69793">
        <ele>87.62</ele>
        <time>2017-04-30T12:21:06Z</time>
      </trkpt>
      <trkpt lat="49.46052" lon="3.6979">
        <ele>87.14</ele>
        <time>2017-04-30T12:21:12Z</time>
      </trkpt>
      <trkpt lat="49.46052" lon="3.69785">
        <ele>87.14</ele>
        <time>2017-04-30T12:21:18Z</time>
      </trkpt>
      <trkpt lat="49.46052" lon="3.69783">
        <ele>87.14</ele>
        <time>2017-04-30T12:21:29Z</time>
      </trkpt>
      <trkpt lat="49.46052" lon="3.69779">
        <ele>87.14</ele>
        <time>2017-04-30T12:21:35Z</time>
      </trkpt>
      <trkpt lat="49.46052" lon="3.69778">
        <ele>87.14</ele>
        <time>2017-04-30T12:21:40Z</time>
      </trkpt>
      <trkpt lat="49.46056" lon="3.69773">
        <ele>87.62</ele>
        <time>2017-04-30T12:21:48Z</time>
      </trkpt>
      <trkpt lat="49.46058" lon="3.69767">
        <ele>87.62</ele>
        <time>2017-04-30T12:21:55Z</time>
      </trkpt>
      <trkpt lat="49.46063" lon="3.69759">
        <ele>87.14</ele>
        <time>2017-04-30T12:22:04Z</time>
      </trkpt>
      <trkpt lat="49.46065" lon="3.69747">
        <ele>87.62</ele>
        <time>2017-04-30T12:22:10Z</time>
      </trkpt>
      <trkpt lat="49.46065" lon="3.69743">
        <ele>87.62</ele>
        <time>2017-04-30T12:22:16Z</time>
      </trkpt>
      <trkpt lat="49.46067" lon="3.69738">
        <ele>87.62</ele>
        <time>2017-04-30T12:22:23Z</time>
      </trkpt>
      <trkpt lat="49.46069" lon="3.69729">
        <ele>87.62</ele>
        <time>2017-04-30T12:22:31Z</time>
      </trkpt>
      <trkpt lat="49.46071" lon="3.69718">
        <ele>87.62</ele>
        <time>2017-04-30T12:22:38Z</time>
      </trkpt>
      <trkpt lat="49.46072" lon="3.6971">
        <ele>87.62</ele>
        <time>2017-04-30T12:22:46Z</time>
      </trkpt>
      <trkpt lat="49.46072" lon="3.69704">
        <ele>87.14</ele>
        <time>2017-04-30T12:22:50Z</time>
      </trkpt>
      <trkpt lat="49.46069" lon="3.69695">
        <ele>87.14</ele>
        <time>2017-04-30T12:22:57Z</time>
      </trkpt>
      <trkpt lat="49.46067" lon="3.69687">
        <ele>87.14</ele>
        <time>2017-04-30T12:23:04Z</time>
      </trkpt>
      <trkpt lat="49.46064" lon="3.69684">
        <ele>87.14</ele>
        <time>2017-04-30T12:23:11Z</time>
      </trkpt>
      <trkpt lat="49.46062" lon="3.69684">
        <ele>87.14</ele>
        <time>2017-04-30T12:23:26Z</time>
      </trkpt>
      <trkpt lat="49.46061" lon="3.69683">
        <ele>87.14</ele>
        <time>2017-04-30T12:23:31Z</time>
      </trkpt>
      <trkpt lat="49.46056" lon="3.69678">
        <ele>86.66</ele>
        <time>2017-04-30T12:23:39Z</time>
      </trkpt>
      <trkpt lat="49.46052" lon="3.69674">
        <ele>87.62</ele>
        <time>2017-04-30T12:23:46Z</time>
      </trkpt>
      <trkpt lat="49.46052" lon="3.69673">
        <ele>87.62</ele>
        <time>2017-04-30T12:23:47Z</time>
      </trkpt>
      <trkpt lat="49.46044" lon="3.6967">
        <ele>87.62</ele>
        <time>2017-04-30T12:23:55Z</time>
      </trkpt>
      <trkpt lat="49.4604" lon="3.69668">
        <ele>87.62</ele>
        <time>2017-04-30T12:24:00Z</time>
      </trkpt>
      <trkpt lat="49.46034" lon="3.69664">
        <ele>88.1</ele>
        <time>2017-04-30T12:24:07Z</time>
      </trkpt>
      <trkpt lat="49.46033" lon="3.69664">
        <ele>88.1</ele>
        <time>2017-04-30T12:24:08Z</time>
      </trkpt>
      <trkpt lat="49.46025" lon="3.69659">
        <ele>87.62</ele>
        <time>2017-04-30T12:24:17Z</time>
      </trkpt>
      <trkpt lat="49.4602" lon="3.69659">
        <ele>87.62</ele>
        <time>2017-04-30T12:24:23Z</time>
      </trkpt>
      <trkpt lat="49.46015" lon="3.69656">
        <ele>87.62</ele>
        <time>2017-04-30T12:24:29Z</time>
      </trkpt>
      <trkpt lat="49.46014" lon="3.69653">
        <ele>87.14</ele>
        <time>2017-04-30T12:24:35Z</time>
      </trkpt>
      <trkpt lat="49.4601" lon="3.69649">
        <ele>88.1</ele>
        <time>2017-04-30T12:24:42Z</time>
      </trkpt>
      <trkpt lat="49.46009" lon="3.69647">
        <ele>88.1</ele>
        <time>2017-04-30T12:24:44Z</time>
      </trkpt>
      <trkpt lat="49.46002" lon="3.69643">
        <ele>87.62</ele>
        <time>2017-04-30T12:24:52Z</time>
      </trkpt>
      <trkpt lat="49.45999" lon="3.69639">
        <ele>88.1</ele>
        <time>2017-04-30T12:24:58Z</time>
      </trkpt>
      <trkpt lat="49.45997" lon="3.69636">
        <ele>88.1</ele>
        <time>2017-04-30T12:25:02Z</time>
      </trkpt>
      <trkpt lat="49.45991" lon="3.69626">
        <ele>88.1</ele>
        <time>2017-04-30T12:25:10Z</time>
      </trkpt>
      <trkpt lat="49.45988" lon="3.6962">
        <ele>88.1</ele>
        <time>2017-04-30T12:25:16Z</time>
      </trkpt>
      <trkpt lat="49.45985" lon="3.69616">
        <ele>88.58</ele>
        <time>2017-04-30T12:25:22Z</time>
      </trkpt>
      <trkpt lat="49.45982" lon="3.69611">
        <ele>88.58</ele>
        <time>2017-04-30T12:25:27Z</time>
      </trkpt>
      <trkpt lat="49.45975" lon="3.69605">
        <ele>89.06</ele>
        <time>2017-04-30T12:25:33Z</time>
      </trkpt>
      <trkpt lat="49.45971" lon="3.696">
        <ele>89.06</ele>
        <time>2017-04-30T12:25:39Z</time>
      </trkpt>
      <trkpt lat="49.45963" lon="3.69593">
        <ele>89.06</ele>
        <time>2017-04-30T12:25:45Z</time>
      </trkpt>
      <trkpt lat="49.4596" lon="3.69591">
        <ele>89.06</ele>
        <time>2017-04-30T12:25:47Z</time>
      </trkpt>
      <trkpt lat="49.45951" lon="3.69584">
        <ele>89.06</ele>
        <time>2017-04-30T12:25:54Z</time>
      </trkpt>
      <trkpt lat="49.45947" lon="3.69582">
        <ele>89.06</ele>
        <time>2017-04-30T12:25:57Z</time>
      </trkpt>
      <trkpt lat="49.45944" lon="3.69578">
        <ele>89.06</ele>
        <time>2017-04-30T12:25:59Z</time>
      </trkpt>
      <trkpt lat="49.4594" lon="3.69574">
        <ele>89.06</ele>
        <time>2017-04-30T12:26:01Z</time>
      </trkpt>
      <trkpt lat="49.45932" lon="3.69568">
        <ele>89.06</ele>
        <time>2017-04-30T12:26:05Z</time>
      </trkpt>
      <trkpt lat="49.45928" lon="3.69564">
        <ele>89.06</ele>
        <time>2017-04-30T12:26:07Z</time>
      </trkpt>
      <trkpt lat="49.45919" lon="3.69554">
        <ele>89.06</ele>
        <time>2017-04-30T12:26:13Z</time>
      </trkpt>
      <trkpt lat="49.45911" lon="3.69548">
        <ele>89.06</ele>
        <time>2017-04-30T12:26:19Z</time>
      </trkpt>
      <trkpt lat="49.45905" lon="3.69543">
        <ele>89.06</ele>
        <time>2017-04-30T12:26:26Z</time>
      </trkpt>
      <trkpt lat="49.45899" lon="3.69539">
        <ele>88.58</ele>
        <time>2017-04-30T12:26:33Z</time>
      </trkpt>
      <trkpt lat="49.45894" lon="3.69538">
        <ele>88.58</ele>
        <time>2017-04-30T12:26:38Z</time>
      </trkpt>
      <trkpt lat="49.45893" lon="3.69537">
        <ele>88.58</ele>
        <time>2017-04-30T12:26:39Z</time>
      </trkpt>
      <trkpt lat="49.4589" lon="3.69535">
        <ele>88.1</ele>
        <time>2017-04-30T12:26:43Z</time>
      </trkpt>
      <trkpt lat="49.45882" lon="3.69529">
        <ele>88.1</ele>
        <time>2017-04-30T12:26:51Z</time>
      </trkpt>
      <trkpt lat="49.45882" lon="3.69528">
        <ele>88.1</ele>
        <time>2017-04-30T12:26:54Z</time>
      </trkpt>
      <trkpt lat="49.45877" lon="3.69524">
        <ele>87.62</ele>
        <time>2017-04-30T12:27:01Z</time>
      </trkpt>
      <trkpt lat="49.45876" lon="3.69523">
        <ele>88.1</ele>
        <time>2017-04-30T12:27:05Z</time>
      </trkpt>
      <trkpt lat="49.45874" lon="3.69513">
        <ele>87.62</ele>
        <time>2017-04-30T12:27:10Z</time>
      </trkpt>
      <trkpt lat="49.45871" lon="3.69508">
        <ele>87.62</ele>
        <time>2017-04-30T12:27:14Z</time>
      </trkpt>
      <trkpt lat="49.45866" lon="3.69506">
        <ele>88.1</ele>
        <time>2017-04-30T12:27:20Z</time>
      </trkpt>
      <trkpt lat="49.45861" lon="3.69503">
        <ele>88.1</ele>
        <time>2017-04-30T12:27:27Z</time>
      </trkpt>
      <trkpt lat="49.45856" lon="3.69499">
        <ele>88.1</ele>
        <time>2017-04-30T12:27:33Z</time>
      </trkpt>
      <trkpt lat="49.45848" lon="3.69495">
        <ele>88.1</ele>
        <time>2017-04-30T12:27:39Z</time>
      </trkpt>
      <trkpt lat="49.45839" lon="3.69491">
        <ele>88.58</ele>
        <time>2017-04-30T12:27:44Z</time>
      </trkpt>
      <trkpt lat="49.45827" lon="3.69486">
        <ele>89.54</ele>
        <time>2017-04-30T12:27:51Z</time>
      </trkpt>
      <trkpt lat="49.45822" lon="3.69483">
        <ele>88.58</ele>
        <time>2017-04-30T12:27:55Z</time>
      </trkpt>
      <trkpt lat="49.45816" lon="3.6948">
        <ele>89.06</ele>
        <time>2017-04-30T12:28:01Z</time>
      </trkpt>
      <trkpt lat="49.45811" lon="3.69477">
        <ele>89.06</ele>
        <time>2017-04-30T12:28:08Z</time>
      </trkpt>
      <trkpt lat="49.45803" lon="3.6947">
        <ele>89.06</ele>
        <time>2017-04-30T12:28:14Z</time>
      </trkpt>
      <trkpt lat="49.45801" lon="3.69469">
        <ele>89.54</ele>
        <time>2017-04-30T12:28:18Z</time>
      </trkpt>
      <trkpt lat="49.45794" lon="3.69467">
        <ele>89.54</ele>
        <time>2017-04-30T12:28:24Z</time>
      </trkpt>
      <trkpt lat="49.45785" lon="3.69465">
        <ele>89.54</ele>
        <time>2017-04-30T12:28:28Z</time>
      </trkpt>
      <trkpt lat="49.45772" lon="3.69461">
        <ele>89.54</ele>
        <time>2017-04-30T12:28:36Z</time>
      </trkpt>
      <trkpt lat="49.4577" lon="3.6946">
        <ele>90.02</ele>
        <time>2017-04-30T12:28:38Z</time>
      </trkpt>
      <trkpt lat="49.45765" lon="3.69457">
        <ele>90.02</ele>
        <time>2017-04-30T12:28:44Z</time>
      </trkpt>
      <trkpt lat="49.45759" lon="3.69456">
        <ele>90.5</ele>
        <time>2017-04-30T12:28:49Z</time>
      </trkpt>
      <trkpt lat="49.45752" lon="3.69451">
        <ele>90.5</ele>
        <time>2017-04-30T12:28:54Z</time>
      </trkpt>
      <trkpt lat="49.45742" lon="3.69447">
        <ele>90.5</ele>
        <time>2017-04-30T12:29:02Z</time>
      </trkpt>
      <trkpt lat="49.45737" lon="3.69443">
        <ele>90.5</ele>
        <time>2017-04-30T12:29:07Z</time>
      </trkpt>
      <trkpt lat="49.45727" lon="3.69438">
        <ele>90.98</ele>
        <time>2017-04-30T12:29:12Z</time>
      </trkpt>
      <trkpt lat="49.45716" lon="3.69433">
        <ele>91.46</ele>
        <time>2017-04-30T12:29:19Z</time>
      </trkpt>
      <trkpt lat="49.45708" lon="3.69431">
        <ele>91.46</ele>
        <time>2017-04-30T12:29:25Z</time>
      </trkpt>
      <trkpt lat="49.45697" lon="3.69428">
        <ele>91.94</ele>
        <time>2017-04-30T12:29:33Z</time>
      </trkpt>
      <trkpt lat="49.45693" lon="3.69427">
        <ele>91.94</ele>
        <time>2017-04-30T12:29:36Z</time>
      </trkpt>
      <trkpt lat="49.45689" lon="3.69428">
        <ele>91.94</ele>
        <time>2017-04-30T12:29:42Z</time>
      </trkpt>
      <trkpt lat="49.4568" lon="3.69424">
        <ele>92.42</ele>
        <time>2017-04-30T12:29:49Z</time>
      </trkpt>
      <trkpt lat="49.45679" lon="3.69421">
        <ele>92.9</ele>
        <time>2017-04-30T12:29:54Z</time>
      </trkpt>
      <trkpt lat="49.45672" lon="3.69416">
        <ele>92.9</ele>
        <time>2017-04-30T12:29:58Z</time>
      </trkpt>
      <trkpt lat="49.45665" lon="3.69412">
        <ele>92.9</ele>
        <time>2017-04-30T12:30:03Z</time>
      </trkpt>
      <trkpt lat="49.45661" lon="3.6941">
        <ele>92.9</ele>
        <time>2017-04-30T12:30:05Z</time>
      </trkpt>
      <trkpt lat="49.45647" lon="3.69405">
        <ele>93.39</ele>
        <time>2017-04-30T12:30:13Z</time>
      </trkpt>
      <trkpt lat="49.45639" lon="3.69401">
        <ele>94.35</ele>
        <time>2017-04-30T12:30:19Z</time>
      </trkpt>
      <trkpt lat="49.45632" lon="3.69398">
        <ele>94.35</ele>
        <time>2017-04-30T12:30:25Z</time>
      </trkpt>
      <trkpt lat="49.4563" lon="3.69398">
        <ele>94.35</ele>
        <time>2017-04-30T12:30:29Z</time>
      </trkpt>
      <trkpt lat="49.45626" lon="3.69398">
        <ele>94.83</ele>
        <time>2017-04-30T12:30:33Z</time>
      </trkpt>
      <trkpt lat="49.45624" lon="3.69398">
        <ele>94.35</ele>
        <time>2017-04-30T12:30:34Z</time>
      </trkpt>
      <trkpt lat="49.45619" lon="3.69395">
        <ele>94.83</ele>
        <time>2017-04-30T12:30:38Z</time>
      </trkpt>
      <trkpt lat="49.45615" lon="3.69391">
        <ele>94.83</ele>
        <time>2017-04-30T12:30:41Z</time>
      </trkpt>
      <trkpt lat="49.45606" lon="3.69387">
        <ele>94.83</ele>
        <time>2017-04-30T12:30:46Z</time>
      </trkpt>
      <trkpt lat="49.45595" lon="3.69385">
        <ele>95.31</ele>
        <time>2017-04-30T12:30:54Z</time>
      </trkpt>
      <trkpt lat="49.45591" lon="3.69383">
        <ele>95.31</ele>
        <time>2017-04-30T12:30:59Z</time>
      </trkpt>
      <trkpt lat="49.45586" lon="3.69381">
        <ele>95.79</ele>
        <time>2017-04-30T12:31:05Z</time>
      </trkpt>
      <trkpt lat="49.45582" lon="3.69379">
        <ele>96.27</ele>
        <time>2017-04-30T12:31:10Z</time>
      </trkpt>
      <trkpt lat="49.45581" lon="3.69378">
        <ele>96.75</ele>
        <time>2017-04-30T12:31:15Z</time>
      </trkpt>
      <trkpt lat="49.45578" lon="3.69377">
        <ele>97.23</ele>
        <time>2017-04-30T12:31:20Z</time>
      </trkpt>
      <trkpt lat="49.45574" lon="3.69374">
        <ele>97.71</ele>
        <time>2017-04-30T12:31:24Z</time>
      </trkpt>
      <trkpt lat="49.45569" lon="3.69372">
        <ele>98.19</ele>
        <time>2017-04-30T12:31:29Z</time>
      </trkpt>
      <trkpt lat="49.45564" lon="3.69369">
        <ele>98.67</ele>
        <time>2017-04-30T12:31:34Z</time>
      </trkpt>
      <trkpt lat="49.45561" lon="3.69369">
        <ele>98.67</ele>
        <time>2017-04-30T12:31:36Z</time>
      </trkpt>
      <trkpt lat="49.45546" lon="3.69364">
        <ele>99.63</ele>
        <time>2017-04-30T12:31:45Z</time>
      </trkpt>
      <trkpt lat="49.45542" lon="3.69366">
        <ele>100.11</ele>
        <time>2017-04-30T12:31:51Z</time>
      </trkpt>
      <trkpt lat="49.45535" lon="3.69366">
        <ele>101.08</ele>
        <time>2017-04-30T12:31:57Z</time>
      </trkpt>
      <trkpt lat="49.45527" lon="3.69365">
        <ele>101.08</ele>
        <time>2017-04-30T12:32:02Z</time>
      </trkpt>
      <trkpt lat="49.45517" lon="3.69368">
        <ele>102.04</ele>
        <time>2017-04-30T12:32:10Z</time>
      </trkpt>
      <trkpt lat="49.45512" lon="3.69373">
        <ele>102.04</ele>
        <time>2017-04-30T12:32:15Z</time>
      </trkpt>
      <trkpt lat="49.45509" lon="3.69376">
        <ele>102.04</ele>
        <time>2017-04-30T12:32:17Z</time>
      </trkpt>
      <trkpt lat="49.45501" lon="3.69384">
        <ele>102.52</ele>
        <time>2017-04-30T12:32:23Z</time>
      </trkpt>
      <trkpt lat="49.45501" lon="3.69386">
        <ele>102.52</ele>
        <time>2017-04-30T12:32:24Z</time>
      </trkpt>
      <trkpt lat="49.45494" lon="3.69396">
        <ele>103</ele>
        <time>2017-04-30T12:32:30Z</time>
      </trkpt>
      <trkpt lat="49.45493" lon="3.69401">
        <ele>103.48</ele>
        <time>2017-04-30T12:32:32Z</time>
      </trkpt>
      <trkpt lat="49.45491" lon="3.69403">
        <ele>103.48</ele>
        <time>2017-04-30T12:32:34Z</time>
      </trkpt>
      <trkpt lat="49.45485" lon="3.69414">
        <ele>103.96</ele>
        <time>2017-04-30T12:32:41Z</time>
      </trkpt>
      <trkpt lat="49.45484" lon="3.69416">
        <ele>103.96</ele>
        <time>2017-04-30T12:32:43Z</time>
      </trkpt>
      <trkpt lat="49.45479" lon="3.69425">
        <ele>104.44</ele>
        <time>2017-04-30T12:32:49Z</time>
      </trkpt>
      <trkpt lat="49.45478" lon="3.69429">
        <ele>104.44</ele>
        <time>2017-04-30T12:32:51Z</time>
      </trkpt>
      <trkpt lat="49.45476" lon="3.69436">
        <ele>104.92</ele>
        <time>2017-04-30T12:32:55Z</time>
      </trkpt>
      <trkpt lat="49.45473" lon="3.69443">
        <ele>104.92</ele>
        <time>2017-04-30T12:32:59Z</time>
      </trkpt>
      <trkpt lat="49.45469" lon="3.69455">
        <ele>105.4</ele>
        <time>2017-04-30T12:33:06Z</time>
      </trkpt>
      <trkpt lat="49.45465" lon="3.69465">
        <ele>105.88</ele>
        <time>2017-04-30T12:33:12Z</time>
      </trkpt>
      <trkpt lat="49.45461" lon="3.69473">
        <ele>105.88</ele>
        <time>2017-04-30T12:33:17Z</time>
      </trkpt>
      <trkpt lat="49.45457" lon="3.6948">
        <ele>106.36</ele>
        <time>2017-04-30T12:33:21Z</time>
      </trkpt>
      <trkpt lat="49.45454" lon="3.69488">
        <ele>106.84</ele>
        <time>2017-04-30T12:33:26Z</time>
      </trkpt>
      <trkpt lat="49.45453" lon="3.69494">
        <ele>107.32</ele>
        <time>2017-04-30T12:33:30Z</time>
      </trkpt>
      <trkpt lat="49.4545" lon="3.69501">
        <ele>107.32</ele>
        <time>2017-04-30T12:33:35Z</time>
      </trkpt>
      <trkpt lat="49.45448" lon="3.69508">
        <ele>109.25</ele>
        <time>2017-04-30T12:33:40Z</time>
      </trkpt>
      <trkpt lat="49.45442" lon="3.69517">
        <ele>108.77</ele>
        <time>2017-04-30T12:33:46Z</time>
      </trkpt>
      <trkpt lat="49.45441" lon="3.6952">
        <ele>108.77</ele>
        <time>2017-04-30T12:33:48Z</time>
      </trkpt>
      <trkpt lat="49.4544" lon="3.69524">
        <ele>108.77</ele>
        <time>2017-04-30T12:33:50Z</time>
      </trkpt>
      <trkpt lat="49.45435" lon="3.69535">
        <ele>109.25</ele>
        <time>2017-04-30T12:33:57Z</time>
      </trkpt>
      <trkpt lat="49.45434" lon="3.69538">
        <ele>109.25</ele>
        <time>2017-04-30T12:33:59Z</time>
      </trkpt>
      <trkpt lat="49.45431" lon="3.69549">
        <ele>109.73</ele>
        <time>2017-04-30T12:34:07Z</time>
      </trkpt>
      <trkpt lat="49.45429" lon="3.69553">
        <ele>110.21</ele>
        <time>2017-04-30T12:34:10Z</time>
      </trkpt>
      <trkpt lat="49.45426" lon="3.69557">
        <ele>110.21</ele>
        <time>2017-04-30T12:34:13Z</time>
      </trkpt>
      <trkpt lat="49.45421" lon="3.69572">
        <ele>110.69</ele>
        <time>2017-04-30T12:34:21Z</time>
      </trkpt>
      <trkpt lat="49.45417" lon="3.69583">
        <ele>111.17</ele>
        <time>2017-04-30T12:34:27Z</time>
      </trkpt>
      <trkpt lat="49.45415" lon="3.69594">
        <ele>112.13</ele>
        <time>2017-04-30T12:34:33Z</time>
      </trkpt>
      <trkpt lat="49.45412" lon="3.69605">
        <ele>112.61</ele>
        <time>2017-04-30T12:34:40Z</time>
      </trkpt>
      <trkpt lat="49.45408" lon="3.69618">
        <ele>112.61</ele>
        <time>2017-04-30T12:34:48Z</time>
      </trkpt>
      <trkpt lat="49.45408" lon="3.69628">
        <ele>113.09</ele>
        <time>2017-04-30T12:34:54Z</time>
      </trkpt>
      <trkpt lat="49.45407" lon="3.6964">
        <ele>114.53</ele>
        <time>2017-04-30T12:35:01Z</time>
      </trkpt>
      <trkpt lat="49.45407" lon="3.69643">
        <ele>114.53</ele>
        <time>2017-04-30T12:35:03Z</time>
      </trkpt>
      <trkpt lat="49.45407" lon="3.6965">
        <ele>115.5</ele>
        <time>2017-04-30T12:35:07Z</time>
      </trkpt>
      <trkpt lat="49.45403" lon="3.69663">
        <ele>115.5</ele>
        <time>2017-04-30T12:35:14Z</time>
      </trkpt>
      <trkpt lat="49.45402" lon="3.69671">
        <ele>115.98</ele>
        <time>2017-04-30T12:35:19Z</time>
      </trkpt>
      <trkpt lat="49.45398" lon="3.69684">
        <ele>117.9</ele>
        <time>2017-04-30T12:35:26Z</time>
      </trkpt>
      <trkpt lat="49.45396" lon="3.6969">
        <ele>116.46</ele>
        <time>2017-04-30T12:35:29Z</time>
      </trkpt>
      <trkpt lat="49.45391" lon="3.69709">
        <ele>117.9</ele>
        <time>2017-04-30T12:35:38Z</time>
      </trkpt>
      <trkpt lat="49.45386" lon="3.69722">
        <ele>119.34</ele>
        <time>2017-04-30T12:35:45Z</time>
      </trkpt>
      <trkpt lat="49.4538" lon="3.69733">
        <ele>119.34</ele>
        <time>2017-04-30T12:35:52Z</time>
      </trkpt>
      <trkpt lat="49.45373" lon="3.69744">
        <ele>118.38</ele>
        <time>2017-04-30T12:36:00Z</time>
      </trkpt>
      <trkpt lat="49.45365" lon="3.69755">
        <ele>118.86</ele>
        <time>2017-04-30T12:36:08Z</time>
      </trkpt>
      <trkpt lat="49.45359" lon="3.69764">
        <ele>119.34</ele>
        <time>2017-04-30T12:36:15Z</time>
      </trkpt>
      <trkpt lat="49.4535" lon="3.69772">
        <ele>120.3</ele>
        <time>2017-04-30T12:36:23Z</time>
      </trkpt>
      <trkpt lat="49.4534" lon="3.69781">
        <ele>120.3</ele>
        <time>2017-04-30T12:36:31Z</time>
      </trkpt>
      <trkpt lat="49.45329" lon="3.69789">
        <ele>121.74</ele>
        <time>2017-04-30T12:36:41Z</time>
      </trkpt>
      <trkpt lat="49.45319" lon="3.69793">
        <ele>122.22</ele>
        <time>2017-04-30T12:36:49Z</time>
      </trkpt>
      <trkpt lat="49.4531" lon="3.69797">
        <ele>123.67</ele>
        <time>2017-04-30T12:36:57Z</time>
      </trkpt>
      <trkpt lat="49.45307" lon="3.69798">
        <ele>123.67</ele>
        <time>2017-04-30T12:37:00Z</time>
      </trkpt>
      <trkpt lat="49.45295" lon="3.69798">
        <ele>122.22</ele>
        <time>2017-04-30T12:37:09Z</time>
      </trkpt>
      <trkpt lat="49.45285" lon="3.69797">
        <ele>122.22</ele>
        <time>2017-04-30T12:37:17Z</time>
      </trkpt>
      <trkpt lat="49.45273" lon="3.69795">
        <ele>122.71</ele>
        <time>2017-04-30T12:37:26Z</time>
      </trkpt>
      <trkpt lat="49.4526" lon="3.6979">
        <ele>122.71</ele>
        <time>2017-04-30T12:37:36Z</time>
      </trkpt>
      <trkpt lat="49.45246" lon="3.69787">
        <ele>122.22</ele>
        <time>2017-04-30T12:37:47Z</time>
      </trkpt>
      <trkpt lat="49.45233" lon="3.69784">
        <ele>121.74</ele>
        <time>2017-04-30T12:37:57Z</time>
      </trkpt>
      <trkpt lat="49.45221" lon="3.69781">
        <ele>122.22</ele>
        <time>2017-04-30T12:38:06Z</time>
      </trkpt>
      <trkpt lat="49.4521" lon="3.69778">
        <ele>121.74</ele>
        <time>2017-04-30T12:38:15Z</time>
      </trkpt>
      <trkpt lat="49.45196" lon="3.69774">
        <ele>121.26</ele>
        <time>2017-04-30T12:38:25Z</time>
      </trkpt>
      <trkpt lat="49.45186" lon="3.69772">
        <ele>122.22</ele>
        <time>2017-04-30T12:38:33Z</time>
      </trkpt>
      <trkpt lat="49.45176" lon="3.69769">
        <ele>121.74</ele>
        <time>2017-04-30T12:38:41Z</time>
      </trkpt>
      <trkpt lat="49.45167" lon="3.69767">
        <ele>121.74</ele>
        <time>2017-04-30T12:38:48Z</time>
      </trkpt>
      <trkpt lat="49.45157" lon="3.69765">
        <ele>122.22</ele>
        <time>2017-04-30T12:38:56Z</time>
      </trkpt>
      <trkpt lat="49.45145" lon="3.69761">
        <ele>122.22</ele>
        <time>2017-04-30T12:39:05Z</time>
      </trkpt>
      <trkpt lat="49.45133" lon="3.69759">
        <ele>122.22</ele>
        <time>2017-04-30T12:39:14Z</time>
      </trkpt>
      <trkpt lat="49.4512" lon="3.69755">
        <ele>122.22</ele>
        <time>2017-04-30T12:39:24Z</time>
      </trkpt>
      <trkpt lat="49.45108" lon="3.6975">
        <ele>122.22</ele>
        <time>2017-04-30T12:39:33Z</time>
      </trkpt>
      <trkpt lat="49.45095" lon="3.69747">
        <ele>121.74</ele>
        <time>2017-04-30T12:39:43Z</time>
      </trkpt>
      <trkpt lat="49.45086" lon="3.69745">
        <ele>121.74</ele>
        <time>2017-04-30T12:39:50Z</time>
      </trkpt>
      <trkpt lat="49.45075" lon="3.69742">
        <ele>122.22</ele>
        <time>2017-04-30T12:39:58Z</time>
      </trkpt>
      <trkpt lat="49.45063" lon="3.69739">
        <ele>122.22</ele>
        <time>2017-04-30T12:40:07Z</time>
      </trkpt>
      <trkpt lat="49.4505" lon="3.69736">
        <ele>121.74</ele>
        <time>2017-04-30T12:40:16Z</time>
      </trkpt>
      <trkpt lat="49.45043" lon="3.69735">
        <ele>121.74</ele>
        <time>2017-04-30T12:40:22Z</time>
      </trkpt>
      <trkpt lat="49.45034" lon="3.69731">
        <ele>122.22</ele>
        <time>2017-04-30T12:40:29Z</time>
      </trkpt>
      <trkpt lat="49.45025" lon="3.69727">
        <ele>122.71</ele>
        <time>2017-04-30T12:40:37Z</time>
      </trkpt>
      <trkpt lat="49.45015" lon="3.69724">
        <ele>123.19</ele>
        <time>2017-04-30T12:40:45Z</time>
      </trkpt>
      <trkpt lat="49.45008" lon="3.69719">
        <ele>123.67</ele>
        <time>2017-04-30T12:40:52Z</time>
      </trkpt>
      <trkpt lat="49.45003" lon="3.69715">
        <ele>124.15</ele>
        <time>2017-04-30T12:40:58Z</time>
      </trkpt>
      <trkpt lat="49.44998" lon="3.69709">
        <ele>124.63</ele>
        <time>2017-04-30T12:41:03Z</time>
      </trkpt>
      <trkpt lat="49.44997" lon="3.69707">
        <ele>123.19</ele>
        <time>2017-04-30T12:41:05Z</time>
      </trkpt>
      <trkpt lat="49.44996" lon="3.69706">
        <ele>124.15</ele>
        <time>2017-04-30T12:41:06Z</time>
      </trkpt>
      <trkpt lat="49.44994" lon="3.69702">
        <ele>124.15</ele>
        <time>2017-04-30T12:41:09Z</time>
      </trkpt>
      <trkpt lat="49.44985" lon="3.69692">
        <ele>125.59</ele>
        <time>2017-04-30T12:41:17Z</time>
      </trkpt>
      <trkpt lat="49.44977" lon="3.69692">
        <ele>126.07</ele>
        <time>2017-04-30T12:41:24Z</time>
      </trkpt>
      <trkpt lat="49.44972" lon="3.69695">
        <ele>126.55</ele>
        <time>2017-04-30T12:41:28Z</time>
      </trkpt>
      <trkpt lat="49.44963" lon="3.69704">
        <ele>127.99</ele>
        <time>2017-04-30T12:41:37Z</time>
      </trkpt>
      <trkpt lat="49.44954" lon="3.69714">
        <ele>128.47</ele>
        <time>2017-04-30T12:41:46Z</time>
      </trkpt>
      <trkpt lat="49.44945" lon="3.6972">
        <ele>129.92</ele>
        <time>2017-04-30T12:41:53Z</time>
      </trkpt>
      <trkpt lat="49.44932" lon="3.69722">
        <ele>128.95</ele>
        <time>2017-04-30T12:42:02Z</time>
      </trkpt>
      <trkpt lat="49.44921" lon="3.69715">
        <ele>128.95</ele>
        <time>2017-04-30T12:42:11Z</time>
      </trkpt>
      <trkpt lat="49.44911" lon="3.6971">
        <ele>129.92</ele>
        <time>2017-04-30T12:42:19Z</time>
      </trkpt>
      <trkpt lat="49.44901" lon="3.69706">
        <ele>129.92</ele>
        <time>2017-04-30T12:42:27Z</time>
      </trkpt>
      <trkpt lat="49.44891" lon="3.69706">
        <ele>129.43</ele>
        <time>2017-04-30T12:42:35Z</time>
      </trkpt>
      <trkpt lat="49.44883" lon="3.69704">
        <ele>129.92</ele>
        <time>2017-04-30T12:42:42Z</time>
      </trkpt>
      <trkpt lat="49.44873" lon="3.69707">
        <ele>129.43</ele>
        <time>2017-04-30T12:42:50Z</time>
      </trkpt>
      <trkpt lat="49.44864" lon="3.69708">
        <ele>128.47</ele>
        <time>2017-04-30T12:42:57Z</time>
      </trkpt>
      <trkpt lat="49.44854" lon="3.69712">
        <ele>128.95</ele>
        <time>2017-04-30T12:43:05Z</time>
      </trkpt>
      <trkpt lat="49.44843" lon="3.69716">
        <ele>129.43</ele>
        <time>2017-04-30T12:43:14Z</time>
      </trkpt>
      <trkpt lat="49.44833" lon="3.69719">
        <ele>129.43</ele>
        <time>2017-04-30T12:43:22Z</time>
      </trkpt>
      <trkpt lat="49.44824" lon="3.69722">
        <ele>128.95</ele>
        <time>2017-04-30T12:43:29Z</time>
      </trkpt>
      <trkpt lat="49.44814" lon="3.69725">
        <ele>129.43</ele>
        <time>2017-04-30T12:43:37Z</time>
      </trkpt>
      <trkpt lat="49.44807" lon="3.69727">
        <ele>129.92</ele>
        <time>2017-04-30T12:43:42Z</time>
      </trkpt>
      <trkpt lat="49.44799" lon="3.69729">
        <ele>130.4</ele>
        <time>2017-04-30T12:43:48Z</time>
      </trkpt>
      <trkpt lat="49.44789" lon="3.69731">
        <ele>130.88</ele>
        <time>2017-04-30T12:43:57Z</time>
      </trkpt>
      <trkpt lat="49.44784" lon="3.69733">
        <ele>130.88</ele>
        <time>2017-04-30T12:44:02Z</time>
      </trkpt>
      <trkpt lat="49.44776" lon="3.69736">
        <ele>131.84</ele>
        <time>2017-04-30T12:44:09Z</time>
      </trkpt>
      <trkpt lat="49.44764" lon="3.69741">
        <ele>131.84</ele>
        <time>2017-04-30T12:44:19Z</time>
      </trkpt>
      <trkpt lat="49.44757" lon="3.69745">
        <ele>132.32</ele>
        <time>2017-04-30T12:44:26Z</time>
      </trkpt>
      <trkpt lat="49.44756" lon="3.69746">
        <ele>132.32</ele>
        <time>2017-04-30T12:44:27Z</time>
      </trkpt>
      <trkpt lat="49.44751" lon="3.6975">
        <ele>132.32</ele>
        <time>2017-04-30T12:44:32Z</time>
      </trkpt>
      <trkpt lat="49.44742" lon="3.69757">
        <ele>132.32</ele>
        <time>2017-04-30T12:44:41Z</time>
      </trkpt>
      <trkpt lat="49.44733" lon="3.69763">
        <ele>132.8</ele>
        <time>2017-04-30T12:44:49Z</time>
      </trkpt>
      <trkpt lat="49.44726" lon="3.6977">
        <ele>132.8</ele>
        <time>2017-04-30T12:44:57Z</time>
      </trkpt>
      <trkpt lat="49.44721" lon="3.69774">
        <ele>132.8</ele>
        <time>2017-04-30T12:45:01Z</time>
      </trkpt>
      <trkpt lat="49.4471" lon="3.69782">
        <ele>133.76</ele>
        <time>2017-04-30T12:45:10Z</time>
      </trkpt>
      <trkpt lat="49.44701" lon="3.6979">
        <ele>134.24</ele>
        <time>2017-04-30T12:45:18Z</time>
      </trkpt>
      <trkpt lat="49.44698" lon="3.69792">
        <ele>134.24</ele>
        <time>2017-04-30T12:45:21Z</time>
      </trkpt>
      <trkpt lat="49.44689" lon="3.698">
        <ele>134.24</ele>
        <time>2017-04-30T12:45:28Z</time>
      </trkpt>
      <trkpt lat="49.44684" lon="3.69804">
        <ele>134.72</ele>
        <time>2017-04-30T12:45:32Z</time>
      </trkpt>
      <trkpt lat="49.44677" lon="3.69813">
        <ele>135.2</ele>
        <time>2017-04-30T12:45:40Z</time>
      </trkpt>
      <trkpt lat="49.4467" lon="3.69819">
        <ele>135.68</ele>
        <time>2017-04-30T12:45:47Z</time>
      </trkpt>
      <trkpt lat="49.44665" lon="3.69827">
        <ele>136.64</ele>
        <time>2017-04-30T12:45:53Z</time>
      </trkpt>
      <trkpt lat="49.44658" lon="3.69833">
        <ele>136.16</ele>
        <time>2017-04-30T12:46:00Z</time>
      </trkpt>
      <trkpt lat="49.44652" lon="3.69841">
        <ele>137.13</ele>
        <time>2017-04-30T12:46:07Z</time>
      </trkpt>
      <trkpt lat="49.44646" lon="3.69848">
        <ele>137.61</ele>
        <time>2017-04-30T12:46:13Z</time>
      </trkpt>
      <trkpt lat="49.44638" lon="3.69858">
        <ele>138.57</ele>
        <time>2017-04-30T12:46:20Z</time>
      </trkpt>
      <trkpt lat="49.44632" lon="3.69866">
        <ele>138.57</ele>
        <time>2017-04-30T12:46:28Z</time>
      </trkpt>
      <trkpt lat="49.44631" lon="3.69867">
        <ele>138.57</ele>
        <time>2017-04-30T12:46:29Z</time>
      </trkpt>
      <trkpt lat="49.44626" lon="3.69871">
        <ele>139.53</ele>
        <time>2017-04-30T12:46:34Z</time>
      </trkpt>
      <trkpt lat="49.44622" lon="3.69878">
        <ele>140.01</ele>
        <time>2017-04-30T12:46:41Z</time>
      </trkpt>
      <trkpt lat="49.44619" lon="3.69884">
        <ele>140.01</ele>
        <time>2017-04-30T12:46:46Z</time>
      </trkpt>
      <trkpt lat="49.44615" lon="3.69893">
        <ele>140.97</ele>
        <time>2017-04-30T12:46:53Z</time>
      </trkpt>
      <trkpt lat="49.44612" lon="3.69899">
        <ele>141.93</ele>
        <time>2017-04-30T12:46:59Z</time>
      </trkpt>
      <trkpt lat="49.44612" lon="3.69906">
        <ele>141.93</ele>
        <time>2017-04-30T12:47:05Z</time>
      </trkpt>
      <trkpt lat="49.4461" lon="3.69906">
        <ele>142.41</ele>
        <time>2017-04-30T12:47:14Z</time>
      </trkpt>
      <trkpt lat="49.44608" lon="3.69906">
        <ele>142.41</ele>
        <time>2017-04-30T12:47:29Z</time>
      </trkpt>
      <trkpt lat="49.44607" lon="3.69906">
        <ele>142.41</ele>
        <time>2017-04-30T12:47:43Z</time>
      </trkpt>
      <trkpt lat="49.44607" lon="3.69906">
        <ele>142.89</ele>
        <time>2017-04-30T12:47:54Z</time>
      </trkpt>
      <trkpt lat="49.44607" lon="3.69911">
        <ele>142.89</ele>
        <time>2017-04-30T12:47:59Z</time>
      </trkpt>
      <trkpt lat="49.44602" lon="3.69919">
        <ele>143.85</ele>
        <time>2017-04-30T12:48:06Z</time>
      </trkpt>
      <trkpt lat="49.44601" lon="3.69927">
        <ele>144.34</ele>
        <time>2017-04-30T12:48:11Z</time>
      </trkpt>
      <trkpt lat="49.44599" lon="3.69937">
        <ele>144.82</ele>
        <time>2017-04-30T12:48:16Z</time>
      </trkpt>
      <trkpt lat="49.44599" lon="3.6995">
        <ele>145.78</ele>
        <time>2017-04-30T12:48:24Z</time>
      </trkpt>
      <trkpt lat="49.44598" lon="3.69959">
        <ele>146.26</ele>
        <time>2017-04-30T12:48:29Z</time>
      </trkpt>
      <trkpt lat="49.44598" lon="3.6997">
        <ele>146.26</ele>
        <time>2017-04-30T12:48:35Z</time>
      </trkpt>
      <trkpt lat="49.44601" lon="3.69984">
        <ele>147.7</ele>
        <time>2017-04-30T12:48:42Z</time>
      </trkpt>
      <trkpt lat="49.44607" lon="3.69998">
        <ele>148.18</ele>
        <time>2017-04-30T12:48:50Z</time>
      </trkpt>
      <trkpt lat="49.44607" lon="3.70001">
        <ele>148.18</ele>
        <time>2017-04-30T12:48:52Z</time>
      </trkpt>
      <trkpt lat="49.44609" lon="3.70009">
        <ele>148.66</ele>
        <time>2017-04-30T12:48:57Z</time>
      </trkpt>
      <trkpt lat="49.4461" lon="3.70015">
        <ele>149.14</ele>
        <time>2017-04-30T12:49:00Z</time>
      </trkpt>
      <trkpt lat="49.44612" lon="3.70023">
        <ele>149.62</ele>
        <time>2017-04-30T12:49:04Z</time>
      </trkpt>
      <trkpt lat="49.44613" lon="3.70029">
        <ele>150.1</ele>
        <time>2017-04-30T12:49:07Z</time>
      </trkpt>
      <trkpt lat="49.4461" lon="3.70043">
        <ele>151.06</ele>
        <time>2017-04-30T12:49:13Z</time>
      </trkpt>
      <trkpt lat="49.44611" lon="3.70046">
        <ele>151.06</ele>
        <time>2017-04-30T12:49:14Z</time>
      </trkpt>
      <trkpt lat="49.44613" lon="3.70057">
        <ele>152.03</ele>
        <time>2017-04-30T12:49:20Z</time>
      </trkpt>
      <trkpt lat="49.44612" lon="3.70059">
        <ele>152.03</ele>
        <time>2017-04-30T12:49:21Z</time>
      </trkpt>
      <trkpt lat="49.44607" lon="3.70073">
        <ele>152.51</ele>
        <time>2017-04-30T12:49:27Z</time>
      </trkpt>
      <trkpt lat="49.44607" lon="3.7008">
        <ele>152.99</ele>
        <time>2017-04-30T12:49:30Z</time>
      </trkpt>
      <trkpt lat="49.44607" lon="3.70099">
        <ele>154.91</ele>
        <time>2017-04-30T12:49:38Z</time>
      </trkpt>
      <trkpt lat="49.44606" lon="3.70101">
        <ele>154.91</ele>
        <time>2017-04-30T12:49:39Z</time>
      </trkpt>
      <trkpt lat="49.44603" lon="3.70115">
        <ele>155.39</ele>
        <time>2017-04-30T12:49:46Z</time>
      </trkpt>
      <trkpt lat="49.446" lon="3.70125">
        <ele>156.35</ele>
        <time>2017-04-30T12:49:51Z</time>
      </trkpt>
      <trkpt lat="49.44592" lon="3.7014">
        <ele>157.31</ele>
        <time>2017-04-30T12:49:58Z</time>
      </trkpt>
      <trkpt lat="49.44589" lon="3.70145">
        <ele>157.79</ele>
        <time>2017-04-30T12:50:01Z</time>
      </trkpt>
      <trkpt lat="49.44587" lon="3.7015">
        <ele>157.79</ele>
        <time>2017-04-30T12:50:04Z</time>
      </trkpt>
      <trkpt lat="49.44584" lon="3.70159">
        <ele>158.75</ele>
        <time>2017-04-30T12:50:09Z</time>
      </trkpt>
      <trkpt lat="49.44579" lon="3.70171">
        <ele>159.72</ele>
        <time>2017-04-30T12:50:17Z</time>
      </trkpt>
      <trkpt lat="49.4458" lon="3.70173">
        <ele>159.72</ele>
        <time>2017-04-30T12:50:18Z</time>
      </trkpt>
      <trkpt lat="49.4458" lon="3.70178">
        <ele>160.2</ele>
        <time>2017-04-30T12:50:21Z</time>
      </trkpt>
      <trkpt lat="49.44579" lon="3.70182">
        <ele>160.68</ele>
        <time>2017-04-30T12:50:24Z</time>
      </trkpt>
      <trkpt lat="49.44581" lon="3.70188">
        <ele>161.16</ele>
        <time>2017-04-30T12:50:28Z</time>
      </trkpt>
      <trkpt lat="49.44579" lon="3.70195">
        <ele>162.12</ele>
        <time>2017-04-30T12:50:32Z</time>
      </trkpt>
      <trkpt lat="49.4458" lon="3.70205">
        <ele>162.6</ele>
        <time>2017-04-30T12:50:38Z</time>
      </trkpt>
      <trkpt lat="49.4458" lon="3.70211">
        <ele>163.08</ele>
        <time>2017-04-30T12:50:41Z</time>
      </trkpt>
      <trkpt lat="49.44579" lon="3.70217">
        <ele>163.56</ele>
        <time>2017-04-30T12:50:44Z</time>
      </trkpt>
      <trkpt lat="49.4458" lon="3.70236">
        <ele>164.52</ele>
        <time>2017-04-30T12:50:53Z</time>
      </trkpt>
      <trkpt lat="49.4458" lon="3.70238">
        <ele>165</ele>
        <time>2017-04-30T12:50:55Z</time>
      </trkpt>
      <trkpt lat="49.44582" lon="3.7024">
        <ele>165</ele>
        <time>2017-04-30T12:50:57Z</time>
      </trkpt>
      <trkpt lat="49.44583" lon="3.70244">
        <ele>165.48</ele>
        <time>2017-04-30T12:51:00Z</time>
      </trkpt>
      <trkpt lat="49.44584" lon="3.7025">
        <ele>165.96</ele>
        <time>2017-04-30T12:51:04Z</time>
      </trkpt>
      <trkpt lat="49.44586" lon="3.70258">
        <ele>166.45</ele>
        <time>2017-04-30T12:51:09Z</time>
      </trkpt>
      <trkpt lat="49.44587" lon="3.70267">
        <ele>167.89</ele>
        <time>2017-04-30T12:51:14Z</time>
      </trkpt>
      <trkpt lat="49.44588" lon="3.70273">
        <ele>168.37</ele>
        <time>2017-04-30T12:51:17Z</time>
      </trkpt>
      <trkpt lat="49.44592" lon="3.70285">
        <ele>169.33</ele>
        <time>2017-04-30T12:51:23Z</time>
      </trkpt>
      <trkpt lat="49.44591" lon="3.70286">
        <ele>169.33</ele>
        <time>2017-04-30T12:51:24Z</time>
      </trkpt>
      <trkpt lat="49.44593" lon="3.70293">
        <ele>170.77</ele>
        <time>2017-04-30T12:51:32Z</time>
      </trkpt>
      <trkpt lat="49.44592" lon="3.70303">
        <ele>172.21</ele>
        <time>2017-04-30T12:51:38Z</time>
      </trkpt>
      <trkpt lat="49.44594" lon="3.7032">
        <ele>173.17</ele>
        <time>2017-04-30T12:51:45Z</time>
      </trkpt>
      <trkpt lat="49.44595" lon="3.70322">
        <ele>173.17</ele>
        <time>2017-04-30T12:51:46Z</time>
      </trkpt>
      <trkpt lat="49.44598" lon="3.70327">
        <ele>174.14</ele>
        <time>2017-04-30T12:51:49Z</time>
      </trkpt>
      <trkpt lat="49.44596" lon="3.70347">
        <ele>175.58</ele>
        <time>2017-04-30T12:51:58Z</time>
      </trkpt>
      <trkpt lat="49.44594" lon="3.70354">
        <ele>176.06</ele>
        <time>2017-04-30T12:52:02Z</time>
      </trkpt>
      <trkpt lat="49.44593" lon="3.70358">
        <ele>176.54</ele>
        <time>2017-04-30T12:52:04Z</time>
      </trkpt>
      <trkpt lat="49.44584" lon="3.70371">
        <ele>177.02</ele>
        <time>2017-04-30T12:52:08Z</time>
      </trkpt>
      <trkpt lat="49.44585" lon="3.70376">
        <ele>177.5</ele>
        <time>2017-04-30T12:52:11Z</time>
      </trkpt>
      <trkpt lat="49.44585" lon="3.70381">
        <ele>177.98</ele>
        <time>2017-04-30T12:52:14Z</time>
      </trkpt>
      <trkpt lat="49.44583" lon="3.70389">
        <ele>178.46</ele>
        <time>2017-04-30T12:52:18Z</time>
      </trkpt>
      <trkpt lat="49.44582" lon="3.70392">
        <ele>178.46</ele>
        <time>2017-04-30T12:52:20Z</time>
      </trkpt>
      <trkpt lat="49.44577" lon="3.70396">
        <ele>178.94</ele>
        <time>2017-04-30T12:52:23Z</time>
      </trkpt>
      <trkpt lat="49.4457" lon="3.70403">
        <ele>179.42</ele>
        <time>2017-04-30T12:52:25Z</time>
      </trkpt>
      <trkpt lat="49.44557" lon="3.70418">
        <ele>180.38</ele>
        <time>2017-04-30T12:52:33Z</time>
      </trkpt>
      <trkpt lat="49.44552" lon="3.70434">
        <ele>179.9</ele>
        <time>2017-04-30T12:52:41Z</time>
      </trkpt>
      <trkpt lat="49.44545" lon="3.70447">
        <ele>180.87</ele>
        <time>2017-04-30T12:52:49Z</time>
      </trkpt>
      <trkpt lat="49.44542" lon="3.70454">
        <ele>182.79</ele>
        <time>2017-04-30T12:52:54Z</time>
      </trkpt>
      <trkpt lat="49.44538" lon="3.70462">
        <ele>182.79</ele>
        <time>2017-04-30T12:52:59Z</time>
      </trkpt>
      <trkpt lat="49.44537" lon="3.70471">
        <ele>182.79</ele>
        <time>2017-04-30T12:53:04Z</time>
      </trkpt>
      <trkpt lat="49.44534" lon="3.70485">
        <ele>183.75</ele>
        <time>2017-04-30T12:53:12Z</time>
      </trkpt>
      <trkpt lat="49.44531" lon="3.70501">
        <ele>184.23</ele>
        <time>2017-04-30T12:53:21Z</time>
      </trkpt>
      <trkpt lat="49.44529" lon="3.70516">
        <ele>184.71</ele>
        <time>2017-04-30T12:53:30Z</time>
      </trkpt>
      <trkpt lat="49.44528" lon="3.70517">
        <ele>185.19</ele>
        <time>2017-04-30T12:53:31Z</time>
      </trkpt>
      <trkpt lat="49.44526" lon="3.70529">
        <ele>186.63</ele>
        <time>2017-04-30T12:53:38Z</time>
      </trkpt>
      <trkpt lat="49.44524" lon="3.70543">
        <ele>187.11</ele>
        <time>2017-04-30T12:53:46Z</time>
      </trkpt>
      <trkpt lat="49.44522" lon="3.70556">
        <ele>188.56</ele>
        <time>2017-04-30T12:53:54Z</time>
      </trkpt>
      <trkpt lat="49.44521" lon="3.70569">
        <ele>188.08</ele>
        <time>2017-04-30T12:54:01Z</time>
      </trkpt>
      <trkpt lat="49.44518" lon="3.70581">
        <ele>189.04</ele>
        <time>2017-04-30T12:54:08Z</time>
      </trkpt>
      <trkpt lat="49.44513" lon="3.70588">
        <ele>189.52</ele>
        <time>2017-04-30T12:54:16Z</time>
      </trkpt>
      <trkpt lat="49.44509" lon="3.70589">
        <ele>189.52</ele>
        <time>2017-04-30T12:54:23Z</time>
      </trkpt>
      <trkpt lat="49.44507" lon="3.7059">
        <ele>189.52</ele>
        <time>2017-04-30T12:54:26Z</time>
      </trkpt>
      <trkpt lat="49.44506" lon="3.7059">
        <ele>187.11</ele>
        <time>2017-04-30T12:54:33Z</time>
      </trkpt>
      <trkpt lat="49.44506" lon="3.7059">
        <ele>187.11</ele>
        <time>2017-04-30T12:54:52Z</time>
      </trkpt>
      <trkpt lat="49.44506" lon="3.70589">
        <ele>187.11</ele>
        <time>2017-04-30T12:54:55Z</time>
      </trkpt>
      <trkpt lat="49.44506" lon="3.70588">
        <ele>189.04</ele>
        <time>2017-04-30T12:54:58Z</time>
      </trkpt>
      <trkpt lat="49.44506" lon="3.70588">
        <ele>190</ele>
        <time>2017-04-30T12:55:01Z</time>
      </trkpt>
      <trkpt lat="49.44506" lon="3.70589">
        <ele>187.11</ele>
        <time>2017-04-30T12:55:04Z</time>
      </trkpt>
      <trkpt lat="49.44506" lon="3.70589">
        <ele>188.08</ele>
        <time>2017-04-30T12:55:05Z</time>
      </trkpt>
      <trkpt lat="49.44506" lon="3.70589">
        <ele>189.52</ele>
        <time>2017-04-30T12:55:09Z</time>
      </trkpt>
      <trkpt lat="49.44507" lon="3.70589">
        <ele>188.56</ele>
        <time>2017-04-30T12:55:17Z</time>
      </trkpt>
      <trkpt lat="49.44509" lon="3.70589">
        <ele>189.04</ele>
        <time>2017-04-30T12:55:25Z</time>
      </trkpt>
      <trkpt lat="49.44509" lon="3.70589">
        <ele>188.56</ele>
        <time>2017-04-30T12:55:37Z</time>
      </trkpt>
      <trkpt lat="49.44509" lon="3.7059">
        <ele>189.04</ele>
        <time>2017-04-30T12:55:46Z</time>
      </trkpt>
      <trkpt lat="49.44509" lon="3.7059">
        <ele>189.04</ele>
        <time>2017-04-30T12:55:57Z</time>
      </trkpt>
      <trkpt lat="49.44509" lon="3.7059">
        <ele>189.52</ele>
        <time>2017-04-30T12:56:02Z</time>
      </trkpt>
      <trkpt lat="49.44509" lon="3.7059">
        <ele>190.96</ele>
        <time>2017-04-30T12:56:07Z</time>
      </trkpt>
      <trkpt lat="49.44509" lon="3.7059">
        <ele>189.04</ele>
        <time>2017-04-30T12:56:19Z</time>
      </trkpt>
      <trkpt lat="49.44509" lon="3.7059">
        <ele>189.04</ele>
        <time>2017-04-30T12:56:35Z</time>
      </trkpt>
      <trkpt lat="49.44509" lon="3.7059">
        <ele>188.08</ele>
        <time>2017-04-30T12:56:47Z</time>
      </trkpt>
      <trkpt lat="49.44509" lon="3.7059">
        <ele>188.08</ele>
        <time>2017-04-30T12:57:01Z</time>
      </trkpt>
      <trkpt lat="49.44509" lon="3.7059">
        <ele>190</ele>
        <time>2017-04-30T12:57:11Z</time>
      </trkpt>
      <trkpt lat="49.44509" lon="3.7059">
        <ele>188.56</ele>
        <time>2017-04-30T12:57:26Z</time>
      </trkpt>
      <trkpt lat="49.44509" lon="3.7059">
        <ele>189.04</ele>
        <time>2017-04-30T12:57:40Z</time>
      </trkpt>
      <trkpt lat="49.44509" lon="3.7059">
        <ele>190</ele>
        <time>2017-04-30T12:57:52Z</time>
      </trkpt>
      <trkpt lat="49.44509" lon="3.7059">
        <ele>186.63</ele>
        <time>2017-04-30T12:58:05Z</time>
      </trkpt>
      <trkpt lat="49.44509" lon="3.7059">
        <ele>188.08</ele>
        <time>2017-04-30T12:58:09Z</time>
      </trkpt>
      <trkpt lat="49.44509" lon="3.7059">
        <ele>188.08</ele>
        <time>2017-04-30T12:58:16Z</time>
      </trkpt>
      <trkpt lat="49.44509" lon="3.7059">
        <ele>188.56</ele>
        <time>2017-04-30T12:58:28Z</time>
      </trkpt>
      <trkpt lat="49.44509" lon="3.7059">
        <ele>187.11</ele>
        <time>2017-04-30T12:58:44Z</time>
      </trkpt>
      <trkpt lat="49.44508" lon="3.7059">
        <ele>187.11</ele>
        <time>2017-04-30T12:58:58Z</time>
      </trkpt>
      <trkpt lat="49.44508" lon="3.70589">
        <ele>187.11</ele>
        <time>2017-04-30T12:59:08Z</time>
      </trkpt>
      <trkpt lat="49.44508" lon="3.7059">
        <ele>187.11</ele>
        <time>2017-04-30T12:59:20Z</time>
      </trkpt>
      <trkpt lat="49.44508" lon="3.70589">
        <ele>187.11</ele>
        <time>2017-04-30T12:59:34Z</time>
      </trkpt>
      <trkpt lat="49.44508" lon="3.70589">
        <ele>186.63</ele>
        <time>2017-04-30T12:59:50Z</time>
      </trkpt>
      <trkpt lat="49.44508" lon="3.70589">
        <ele>186.15</ele>
        <time>2017-04-30T13:00:05Z</time>
      </trkpt>
      <trkpt lat="49.44509" lon="3.70589">
        <ele>186.63</ele>
        <time>2017-04-30T13:00:15Z</time>
      </trkpt>
      <trkpt lat="49.44508" lon="3.70588">
        <ele>185.19</ele>
        <time>2017-04-30T13:00:26Z</time>
      </trkpt>
      <trkpt lat="49.44508" lon="3.70589">
        <ele>187.11</ele>
        <time>2017-04-30T13:00:28Z</time>
      </trkpt>
      <trkpt lat="49.44508" lon="3.70588">
        <ele>187.11</ele>
        <time>2017-04-30T13:00:46Z</time>
      </trkpt>
      <trkpt lat="49.44508" lon="3.70588">
        <ele>186.63</ele>
        <time>2017-04-30T13:01:02Z</time>
      </trkpt>
      <trkpt lat="49.44508" lon="3.70587">
        <ele>187.59</ele>
        <time>2017-04-30T13:01:12Z</time>
      </trkpt>
      <trkpt lat="49.44508" lon="3.70587">
        <ele>184.23</ele>
        <time>2017-04-30T13:01:23Z</time>
      </trkpt>
      <trkpt lat="49.44508" lon="3.70587">
        <ele>186.15</ele>
        <time>2017-04-30T13:01:24Z</time>
      </trkpt>
      <trkpt lat="49.44508" lon="3.70587">
        <ele>188.08</ele>
        <time>2017-04-30T13:01:25Z</time>
      </trkpt>
      <trkpt lat="49.44506" lon="3.70586">
        <ele>187.59</ele>
        <time>2017-04-30T13:01:28Z</time>
      </trkpt>
      <trkpt lat="49.44497" lon="3.70584">
        <ele>188.08</ele>
        <time>2017-04-30T13:01:36Z</time>
      </trkpt>
      <trkpt lat="49.44489" lon="3.70582">
        <ele>190.48</ele>
        <time>2017-04-30T13:01:43Z</time>
      </trkpt>
      <trkpt lat="49.44478" lon="3.7058">
        <ele>189.04</ele>
        <time>2017-04-30T13:01:52Z</time>
      </trkpt>
      <trkpt lat="49.44469" lon="3.70578">
        <ele>189.52</ele>
        <time>2017-04-30T13:02:00Z</time>
      </trkpt>
      <trkpt lat="49.44457" lon="3.70577">
        <ele>190.48</ele>
        <time>2017-04-30T13:02:09Z</time>
      </trkpt>
      <trkpt lat="49.44446" lon="3.70577">
        <ele>189.52</ele>
        <time>2017-04-30T13:02:18Z</time>
      </trkpt>
      <trkpt lat="49.44434" lon="3.70577">
        <ele>190.96</ele>
        <time>2017-04-30T13:02:27Z</time>
      </trkpt>
      <trkpt lat="49.44423" lon="3.70577">
        <ele>190</ele>
        <time>2017-04-30T13:02:36Z</time>
      </trkpt>
      <trkpt lat="49.44413" lon="3.70576">
        <ele>190.96</ele>
        <time>2017-04-30T13:02:44Z</time>
      </trkpt>
      <trkpt lat="49.44407" lon="3.70576">
        <ele>192.4</ele>
        <time>2017-04-30T13:02:49Z</time>
      </trkpt>
      <trkpt lat="49.44397" lon="3.70576">
        <ele>191.92</ele>
        <time>2017-04-30T13:02:57Z</time>
      </trkpt>
      <trkpt lat="49.44386" lon="3.70578">
        <ele>191.92</ele>
        <time>2017-04-30T13:03:06Z</time>
      </trkpt>
      <trkpt lat="49.44376" lon="3.70581">
        <ele>192.88</ele>
        <time>2017-04-30T13:03:15Z</time>
      </trkpt>
      <trkpt lat="49.44365" lon="3.70585">
        <ele>193.36</ele>
        <time>2017-04-30T13:03:24Z</time>
      </trkpt>
      <trkpt lat="49.44355" lon="3.70587">
        <ele>193.36</ele>
        <time>2017-04-30T13:03:32Z</time>
      </trkpt>
      <trkpt lat="49.44344" lon="3.70591">
        <ele>194.32</ele>
        <time>2017-04-30T13:03:41Z</time>
      </trkpt>
      <trkpt lat="49.44336" lon="3.70594">
        <ele>194.32</ele>
        <time>2017-04-30T13:03:48Z</time>
      </trkpt>
      <trkpt lat="49.44325" lon="3.70598">
        <ele>195.28</ele>
        <time>2017-04-30T13:03:57Z</time>
      </trkpt>
      <trkpt lat="49.44322" lon="3.706">
        <ele>196.25</ele>
        <time>2017-04-30T13:04:00Z</time>
      </trkpt>
      <trkpt lat="49.44313" lon="3.70603">
        <ele>196.25</ele>
        <time>2017-04-30T13:04:08Z</time>
      </trkpt>
      <trkpt lat="49.44303" lon="3.70605">
        <ele>196.25</ele>
        <time>2017-04-30T13:04:16Z</time>
      </trkpt>
      <trkpt lat="49.44293" lon="3.7061">
        <ele>196.73</ele>
        <time>2017-04-30T13:04:24Z</time>
      </trkpt>
      <trkpt lat="49.44284" lon="3.70613">
        <ele>197.69</ele>
        <time>2017-04-30T13:04:32Z</time>
      </trkpt>
      <trkpt lat="49.44274" lon="3.70617">
        <ele>198.17</ele>
        <time>2017-04-30T13:04:40Z</time>
      </trkpt>
      <trkpt lat="49.44272" lon="3.70618">
        <ele>197.69</ele>
        <time>2017-04-30T13:04:42Z</time>
      </trkpt>
      <trkpt lat="49.44263" lon="3.7062">
        <ele>198.17</ele>
        <time>2017-04-30T13:04:49Z</time>
      </trkpt>
      <trkpt lat="49.44258" lon="3.70622">
        <ele>198.17</ele>
        <time>2017-04-30T13:04:53Z</time>
      </trkpt>
      <trkpt lat="49.44249" lon="3.70615">
        <ele>198.17</ele>
        <time>2017-04-30T13:05:01Z</time>
      </trkpt>
      <trkpt lat="49.44246" lon="3.706">
        <ele>197.21</ele>
        <time>2017-04-30T13:05:09Z</time>
      </trkpt>
      <trkpt lat="49.44247" lon="3.70592">
        <ele>197.69</ele>
        <time>2017-04-30T13:05:13Z</time>
      </trkpt>
      <trkpt lat="49.44246" lon="3.70578">
        <ele>198.17</ele>
        <time>2017-04-30T13:05:20Z</time>
      </trkpt>
      <trkpt lat="49.44247" lon="3.7057">
        <ele>197.21</ele>
        <time>2017-04-30T13:05:24Z</time>
      </trkpt>
      <trkpt lat="49.44248" lon="3.70554">
        <ele>196.73</ele>
        <time>2017-04-30T13:05:32Z</time>
      </trkpt>
      <trkpt lat="49.44248" lon="3.70542">
        <ele>196.73</ele>
        <time>2017-04-30T13:05:38Z</time>
      </trkpt>
      <trkpt lat="49.4425" lon="3.70523">
        <ele>196.25</ele>
        <time>2017-04-30T13:05:47Z</time>
      </trkpt>
      <trkpt lat="49.4425" lon="3.70511">
        <ele>195.77</ele>
        <time>2017-04-30T13:05:53Z</time>
      </trkpt>
      <trkpt lat="49.44251" lon="3.70498">
        <ele>195.28</ele>
        <time>2017-04-30T13:05:59Z</time>
      </trkpt>
      <trkpt lat="49.44253" lon="3.70475">
        <ele>196.73</ele>
        <time>2017-04-30T13:06:10Z</time>
      </trkpt>
      <trkpt lat="49.44253" lon="3.70471">
        <ele>195.77</ele>
        <time>2017-04-30T13:06:12Z</time>
      </trkpt>
      <trkpt lat="49.44253" lon="3.70461">
        <ele>196.25</ele>
        <time>2017-04-30T13:06:17Z</time>
      </trkpt>
      <trkpt lat="49.44254" lon="3.70444">
        <ele>195.77</ele>
        <time>2017-04-30T13:06:25Z</time>
      </trkpt>
      <trkpt lat="49.44255" lon="3.70435">
        <ele>195.28</ele>
        <time>2017-04-30T13:06:29Z</time>
      </trkpt>
      <trkpt lat="49.44255" lon="3.7043">
        <ele>194.32</ele>
        <time>2017-04-30T13:06:31Z</time>
      </trkpt>
      <trkpt lat="49.44256" lon="3.70419">
        <ele>195.28</ele>
        <time>2017-04-30T13:06:37Z</time>
      </trkpt>
      <trkpt lat="49.44256" lon="3.70404">
        <ele>196.73</ele>
        <time>2017-04-30T13:06:44Z</time>
      </trkpt>
      <trkpt lat="49.44256" lon="3.70402">
        <ele>196.73</ele>
        <time>2017-04-30T13:06:45Z</time>
      </trkpt>
      <trkpt lat="49.44258" lon="3.70384">
        <ele>196.25</ele>
        <time>2017-04-30T13:06:54Z</time>
      </trkpt>
      <trkpt lat="49.44258" lon="3.70372">
        <ele>197.21</ele>
        <time>2017-04-30T13:07:00Z</time>
      </trkpt>
      <trkpt lat="49.44259" lon="3.70353">
        <ele>196.73</ele>
        <time>2017-04-30T13:07:09Z</time>
      </trkpt>
      <trkpt lat="49.4426" lon="3.70338">
        <ele>195.77</ele>
        <time>2017-04-30T13:07:16Z</time>
      </trkpt>
      <trkpt lat="49.4426" lon="3.70327">
        <ele>195.77</ele>
        <time>2017-04-30T13:07:21Z</time>
      </trkpt>
      <trkpt lat="49.4426" lon="3.70311">
        <ele>195.28</ele>
        <time>2017-04-30T13:07:29Z</time>
      </trkpt>
      <trkpt lat="49.44261" lon="3.70306">
        <ele>195.28</ele>
        <time>2017-04-30T13:07:31Z</time>
      </trkpt>
      <trkpt lat="49.44263" lon="3.70287">
        <ele>196.25</ele>
        <time>2017-04-30T13:07:40Z</time>
      </trkpt>
      <trkpt lat="49.44263" lon="3.70276">
        <ele>196.25</ele>
        <time>2017-04-30T13:07:46Z</time>
      </trkpt>
      <trkpt lat="49.44263" lon="3.70267">
        <ele>196.73</ele>
        <time>2017-04-30T13:07:50Z</time>
      </trkpt>
      <trkpt lat="49.44264" lon="3.70246">
        <ele>197.21</ele>
        <time>2017-04-30T13:08:00Z</time>
      </trkpt>
      <trkpt lat="49.44266" lon="3.70237">
        <ele>200.57</ele>
        <time>2017-04-30T13:08:04Z</time>
      </trkpt>
      <trkpt lat="49.44266" lon="3.70236">
        <ele>200.57</ele>
        <time>2017-04-30T13:08:05Z</time>
      </trkpt>
      <trkpt lat="49.44266" lon="3.70236">
        <ele>200.57</ele>
        <time>2017-04-30T13:08:18Z</time>
      </trkpt>
      <trkpt lat="49.44266" lon="3.70236">
        <ele>200.57</ele>
        <time>2017-04-30T13:08:29Z</time>
      </trkpt>
      <trkpt lat="49.44266" lon="3.70236">
        <ele>201.05</ele>
        <time>2017-04-30T13:08:44Z</time>
      </trkpt>
      <trkpt lat="49.44265" lon="3.70235">
        <ele>200.09</ele>
        <time>2017-04-30T13:08:50Z</time>
      </trkpt>
      <trkpt lat="49.44265" lon="3.70235">
        <ele>198.17</ele>
        <time>2017-04-30T13:08:51Z</time>
      </trkpt>
      <trkpt lat="49.44266" lon="3.70226">
        <ele>199.13</ele>
        <time>2017-04-30T13:08:56Z</time>
      </trkpt>
      <trkpt lat="49.44266" lon="3.70215">
        <ele>198.17</ele>
        <time>2017-04-30T13:09:02Z</time>
      </trkpt>
      <trkpt lat="49.44266" lon="3.70211">
        <ele>199.61</ele>
        <time>2017-04-30T13:09:04Z</time>
      </trkpt>
      <trkpt lat="49.44268" lon="3.70192">
        <ele>198.65</ele>
        <time>2017-04-30T13:09:13Z</time>
      </trkpt>
      <trkpt lat="49.44268" lon="3.7018">
        <ele>198.65</ele>
        <time>2017-04-30T13:09:19Z</time>
      </trkpt>
      <trkpt lat="49.44269" lon="3.70163">
        <ele>199.61</ele>
        <time>2017-04-30T13:09:27Z</time>
      </trkpt>
      <trkpt lat="49.44269" lon="3.70159">
        <ele>199.13</ele>
        <time>2017-04-30T13:09:29Z</time>
      </trkpt>
      <trkpt lat="49.4427" lon="3.70145">
        <ele>199.61</ele>
        <time>2017-04-30T13:09:36Z</time>
      </trkpt>
      <trkpt lat="49.4427" lon="3.70128">
        <ele>198.65</ele>
        <time>2017-04-30T13:09:44Z</time>
      </trkpt>
      <trkpt lat="49.44272" lon="3.70112">
        <ele>198.17</ele>
        <time>2017-04-30T13:09:52Z</time>
      </trkpt>
      <trkpt lat="49.44272" lon="3.70095">
        <ele>198.17</ele>
        <time>2017-04-30T13:10:00Z</time>
      </trkpt>
      <trkpt lat="49.44273" lon="3.70078">
        <ele>198.65</ele>
        <time>2017-04-30T13:10:08Z</time>
      </trkpt>
      <trkpt lat="49.44274" lon="3.70066">
        <ele>198.17</ele>
        <time>2017-04-30T13:10:14Z</time>
      </trkpt>
      <trkpt lat="49.44275" lon="3.70048">
        <ele>198.65</ele>
        <time>2017-04-30T13:10:22Z</time>
      </trkpt>
      <trkpt lat="49.44275" lon="3.70033">
        <ele>198.17</ele>
        <time>2017-04-30T13:10:29Z</time>
      </trkpt>
      <trkpt lat="49.44276" lon="3.70018">
        <ele>197.69</ele>
        <time>2017-04-30T13:10:36Z</time>
      </trkpt>
      <trkpt lat="49.44277" lon="3.70002">
        <ele>197.69</ele>
        <time>2017-04-30T13:10:44Z</time>
      </trkpt>
      <trkpt lat="49.44277" lon="3.69996">
        <ele>196.73</ele>
        <time>2017-04-30T13:10:47Z</time>
      </trkpt>
      <trkpt lat="49.44276" lon="3.6999">
        <ele>197.69</ele>
        <time>2017-04-30T13:10:50Z</time>
      </trkpt>
      <trkpt lat="49.44277" lon="3.69984">
        <ele>196.25</ele>
        <time>2017-04-30T13:10:53Z</time>
      </trkpt>
      <trkpt lat="49.44279" lon="3.69971">
        <ele>197.69</ele>
        <time>2017-04-30T13:10:59Z</time>
      </trkpt>
      <trkpt lat="49.44279" lon="3.69962">
        <ele>197.69</ele>
        <time>2017-04-30T13:11:04Z</time>
      </trkpt>
      <trkpt lat="49.44279" lon="3.69946">
        <ele>197.69</ele>
        <time>2017-04-30T13:11:12Z</time>
      </trkpt>
      <trkpt lat="49.4428" lon="3.69942">
        <ele>196.73</ele>
        <time>2017-04-30T13:11:14Z</time>
      </trkpt>
      <trkpt lat="49.44281" lon="3.69929">
        <ele>197.21</ele>
        <time>2017-04-30T13:11:20Z</time>
      </trkpt>
      <trkpt lat="49.44282" lon="3.69918">
        <ele>196.25</ele>
        <time>2017-04-30T13:11:25Z</time>
      </trkpt>
      <trkpt lat="49.44282" lon="3.69905">
        <ele>197.21</ele>
        <time>2017-04-30T13:11:31Z</time>
      </trkpt>
      <trkpt lat="49.44282" lon="3.69892">
        <ele>197.21</ele>
        <time>2017-04-30T13:11:37Z</time>
      </trkpt>
      <trkpt lat="49.44283" lon="3.6988">
        <ele>197.21</ele>
        <time>2017-04-30T13:11:43Z</time>
      </trkpt>
      <trkpt lat="49.44283" lon="3.69876">
        <ele>197.21</ele>
        <time>2017-04-30T13:11:45Z</time>
      </trkpt>
      <trkpt lat="49.44284" lon="3.69862">
        <ele>198.65</ele>
        <time>2017-04-30T13:11:51Z</time>
      </trkpt>
      <trkpt lat="49.44284" lon="3.69858">
        <ele>197.69</ele>
        <time>2017-04-30T13:11:53Z</time>
      </trkpt>
      <trkpt lat="49.44284" lon="3.69853">
        <ele>196.73</ele>
        <time>2017-04-30T13:11:55Z</time>
      </trkpt>
      <trkpt lat="49.44284" lon="3.69841">
        <ele>197.21</ele>
        <time>2017-04-30T13:12:01Z</time>
      </trkpt>
      <trkpt lat="49.44284" lon="3.69831">
        <ele>196.73</ele>
        <time>2017-04-30T13:12:06Z</time>
      </trkpt>
      <trkpt lat="49.44286" lon="3.69812">
        <ele>196.73</ele>
        <time>2017-04-30T13:12:15Z</time>
      </trkpt>
      <trkpt lat="49.44287" lon="3.69793">
        <ele>197.21</ele>
        <time>2017-04-30T13:12:24Z</time>
      </trkpt>
      <trkpt lat="49.44288" lon="3.69775">
        <ele>197.21</ele>
        <time>2017-04-30T13:12:33Z</time>
      </trkpt>
      <trkpt lat="49.44289" lon="3.69761">
        <ele>198.65</ele>
        <time>2017-04-30T13:12:40Z</time>
      </trkpt>
      <trkpt lat="49.44285" lon="3.69746">
        <ele>200.09</ele>
        <time>2017-04-30T13:12:48Z</time>
      </trkpt>
      <trkpt lat="49.44276" lon="3.69738">
        <ele>200.57</ele>
        <time>2017-04-30T13:12:56Z</time>
      </trkpt>
      <trkpt lat="49.44266" lon="3.69734">
        <ele>201.53</ele>
        <time>2017-04-30T13:13:05Z</time>
      </trkpt>
      <trkpt lat="49.44256" lon="3.69732">
        <ele>202.01</ele>
        <time>2017-04-30T13:13:13Z</time>
      </trkpt>
      <trkpt lat="49.44244" lon="3.69728">
        <ele>201.53</ele>
        <time>2017-04-30T13:13:23Z</time>
      </trkpt>
      <trkpt lat="49.44232" lon="3.69723">
        <ele>201.53</ele>
        <time>2017-04-30T13:13:32Z</time>
      </trkpt>
      <trkpt lat="49.44229" lon="3.69722">
        <ele>201.53</ele>
        <time>2017-04-30T13:13:34Z</time>
      </trkpt>
      <trkpt lat="49.44216" lon="3.69719">
        <ele>201.05</ele>
        <time>2017-04-30T13:13:44Z</time>
      </trkpt>
      <trkpt lat="49.44214" lon="3.69718">
        <ele>201.05</ele>
        <time>2017-04-30T13:13:46Z</time>
      </trkpt>
      <trkpt lat="49.44204" lon="3.69715">
        <ele>200.57</ele>
        <time>2017-04-30T13:13:54Z</time>
      </trkpt>
      <trkpt lat="49.44192" lon="3.69713">
        <ele>200.57</ele>
        <time>2017-04-30T13:14:03Z</time>
      </trkpt>
      <trkpt lat="49.44181" lon="3.6971">
        <ele>200.09</ele>
        <time>2017-04-30T13:14:12Z</time>
      </trkpt>
      <trkpt lat="49.4417" lon="3.69709">
        <ele>201.05</ele>
        <time>2017-04-30T13:14:20Z</time>
      </trkpt>
      <trkpt lat="49.4416" lon="3.69707">
        <ele>200.57</ele>
        <time>2017-04-30T13:14:28Z</time>
      </trkpt>
      <trkpt lat="49.44148" lon="3.69706">
        <ele>199.61</ele>
        <time>2017-04-30T13:14:38Z</time>
      </trkpt>
      <trkpt lat="49.44137" lon="3.69704">
        <ele>200.09</ele>
        <time>2017-04-30T13:14:47Z</time>
      </trkpt>
      <trkpt lat="49.44127" lon="3.69704">
        <ele>202.01</ele>
        <time>2017-04-30T13:14:55Z</time>
      </trkpt>
      <trkpt lat="49.44117" lon="3.69703">
        <ele>199.61</ele>
        <time>2017-04-30T13:15:03Z</time>
      </trkpt>
      <trkpt lat="49.44107" lon="3.69702">
        <ele>198.65</ele>
        <time>2017-04-30T13:15:11Z</time>
      </trkpt>
      <trkpt lat="49.44096" lon="3.69701">
        <ele>198.17</ele>
        <time>2017-04-30T13:15:20Z</time>
      </trkpt>
      <trkpt lat="49.44089" lon="3.69703">
        <ele>197.69</ele>
        <time>2017-04-30T13:15:27Z</time>
      </trkpt>
      <trkpt lat="49.44081" lon="3.69706">
        <ele>197.69</ele>
        <time>2017-04-30T13:15:35Z</time>
      </trkpt>
      <trkpt lat="49.44075" lon="3.69712">
        <ele>197.21</ele>
        <time>2017-04-30T13:15:43Z</time>
      </trkpt>
      <trkpt lat="49.44071" lon="3.69713">
        <ele>196.73</ele>
        <time>2017-04-30T13:15:50Z</time>
      </trkpt>
      <trkpt lat="49.44071" lon="3.69713">
        <ele>196.73</ele>
        <time>2017-04-30T13:15:55Z</time>
      </trkpt>
      <trkpt lat="49.44071" lon="3.69713">
        <ele>197.21</ele>
        <time>2017-04-30T13:16:08Z</time>
      </trkpt>
      <trkpt lat="49.44071" lon="3.69713">
        <ele>196.25</ele>
        <time>2017-04-30T13:16:10Z</time>
      </trkpt>
      <trkpt lat="49.44071" lon="3.69713">
        <ele>196.73</ele>
        <time>2017-04-30T13:16:21Z</time>
      </trkpt>
      <trkpt lat="49.44071" lon="3.69713">
        <ele>196.73</ele>
        <time>2017-04-30T13:16:31Z</time>
      </trkpt>
      <trkpt lat="49.44071" lon="3.69713">
        <ele>195.77</ele>
        <time>2017-04-30T13:16:37Z</time>
      </trkpt>
      <trkpt lat="49.44071" lon="3.69713">
        <ele>196.25</ele>
        <time>2017-04-30T13:16:53Z</time>
      </trkpt>
      <trkpt lat="49.44071" lon="3.69713">
        <ele>197.69</ele>
        <time>2017-04-30T13:17:01Z</time>
      </trkpt>
      <trkpt lat="49.44071" lon="3.69713">
        <ele>196.73</ele>
        <time>2017-04-30T13:17:09Z</time>
      </trkpt>
      <trkpt lat="49.44071" lon="3.69714">
        <ele>196.73</ele>
        <time>2017-04-30T13:17:15Z</time>
      </trkpt>
      <trkpt lat="49.4407" lon="3.69713">
        <ele>197.21</ele>
        <time>2017-04-30T13:17:22Z</time>
      </trkpt>
      <trkpt lat="49.44064" lon="3.69711">
        <ele>197.21</ele>
        <time>2017-04-30T13:17:29Z</time>
      </trkpt>
      <trkpt lat="49.44063" lon="3.6971">
        <ele>197.21</ele>
        <time>2017-04-30T13:17:38Z</time>
      </trkpt>
      <trkpt lat="49.44062" lon="3.6971">
        <ele>196.73</ele>
        <time>2017-04-30T13:17:48Z</time>
      </trkpt>
      <trkpt lat="49.44061" lon="3.69711">
        <ele>196.73</ele>
        <time>2017-04-30T13:17:51Z</time>
      </trkpt>
      <trkpt lat="49.44061" lon="3.69715">
        <ele>196.73</ele>
        <time>2017-04-30T13:17:53Z</time>
      </trkpt>
      <trkpt lat="49.44061" lon="3.69727">
        <ele>197.69</ele>
        <time>2017-04-30T13:18:00Z</time>
      </trkpt>
      <trkpt lat="49.4406" lon="3.69739">
        <ele>199.13</ele>
        <time>2017-04-30T13:18:07Z</time>
      </trkpt>
      <trkpt lat="49.44059" lon="3.69754">
        <ele>198.65</ele>
        <time>2017-04-30T13:18:14Z</time>
      </trkpt>
      <trkpt lat="49.44059" lon="3.69762">
        <ele>198.65</ele>
        <time>2017-04-30T13:18:18Z</time>
      </trkpt>
      <trkpt lat="49.44059" lon="3.69772">
        <ele>198.65</ele>
        <time>2017-04-30T13:18:23Z</time>
      </trkpt>
      <trkpt lat="49.44059" lon="3.69787">
        <ele>198.65</ele>
        <time>2017-04-30T13:18:30Z</time>
      </trkpt>
      <trkpt lat="49.44059" lon="3.69791">
        <ele>199.13</ele>
        <time>2017-04-30T13:18:32Z</time>
      </trkpt>
      <trkpt lat="49.44058" lon="3.69799">
        <ele>198.65</ele>
        <time>2017-04-30T13:18:40Z</time>
      </trkpt>
      <trkpt lat="49.44058" lon="3.69799">
        <ele>199.13</ele>
        <time>2017-04-30T13:18:43Z</time>
      </trkpt>
      <trkpt lat="49.44058" lon="3.69803">
        <ele>199.61</ele>
        <time>2017-04-30T13:18:46Z</time>
      </trkpt>
      <trkpt lat="49.44056" lon="3.69824">
        <ele>200.09</ele>
        <time>2017-04-30T13:18:56Z</time>
      </trkpt>
      <trkpt lat="49.44055" lon="3.69845">
        <ele>200.09</ele>
        <time>2017-04-30T13:19:06Z</time>
      </trkpt>
      <trkpt lat="49.44055" lon="3.69861">
        <ele>200.09</ele>
        <time>2017-04-30T13:19:14Z</time>
      </trkpt>
      <trkpt lat="49.44054" lon="3.69879">
        <ele>200.57</ele>
        <time>2017-04-30T13:19:24Z</time>
      </trkpt>
      <trkpt lat="49.44053" lon="3.69895">
        <ele>200.57</ele>
        <time>2017-04-30T13:19:32Z</time>
      </trkpt>
      <trkpt lat="49.44053" lon="3.6991">
        <ele>201.05</ele>
        <time>2017-04-30T13:19:39Z</time>
      </trkpt>
      <trkpt lat="49.44052" lon="3.69927">
        <ele>202.01</ele>
        <time>2017-04-30T13:19:48Z</time>
      </trkpt>
      <trkpt lat="49.4405" lon="3.69944">
        <ele>202.98</ele>
        <time>2017-04-30T13:19:57Z</time>
      </trkpt>
      <trkpt lat="49.44048" lon="3.69958">
        <ele>202.01</ele>
        <time>2017-04-30T13:20:04Z</time>
      </trkpt>
      <trkpt lat="49.4404" lon="3.69958">
        <ele>202.49</ele>
        <time>2017-04-30T13:20:11Z</time>
      </trkpt>
      <trkpt lat="49.44027" lon="3.69953">
        <ele>202.49</ele>
        <time>2017-04-30T13:20:21Z</time>
      </trkpt>
      <trkpt lat="49.44022" lon="3.69952">
        <ele>201.05</ele>
        <time>2017-04-30T13:20:25Z</time>
      </trkpt>
      <trkpt lat="49.44012" lon="3.69946">
        <ele>201.05</ele>
        <time>2017-04-30T13:20:34Z</time>
      </trkpt>
      <trkpt lat="49.44005" lon="3.69944">
        <ele>202.01</ele>
        <time>2017-04-30T13:20:39Z</time>
      </trkpt>
      <trkpt lat="49.44003" lon="3.69943">
        <ele>201.53</ele>
        <time>2017-04-30T13:20:41Z</time>
      </trkpt>
      <trkpt lat="49.43994" lon="3.69938">
        <ele>202.01</ele>
        <time>2017-04-30T13:20:49Z</time>
      </trkpt>
      <trkpt lat="49.43991" lon="3.69937">
        <ele>201.53</ele>
        <time>2017-04-30T13:20:51Z</time>
      </trkpt>
      <trkpt lat="49.43986" lon="3.69935">
        <ele>201.53</ele>
        <time>2017-04-30T13:20:55Z</time>
      </trkpt>
      <trkpt lat="49.43974" lon="3.69929">
        <ele>202.01</ele>
        <time>2017-04-30T13:21:04Z</time>
      </trkpt>
      <trkpt lat="49.43965" lon="3.69925">
        <ele>201.53</ele>
        <time>2017-04-30T13:21:11Z</time>
      </trkpt>
      <trkpt lat="49.43955" lon="3.6992">
        <ele>202.01</ele>
        <time>2017-04-30T13:21:19Z</time>
      </trkpt>
      <trkpt lat="49.4395" lon="3.69918">
        <ele>201.53</ele>
        <time>2017-04-30T13:21:23Z</time>
      </trkpt>
      <trkpt lat="49.43945" lon="3.69916">
        <ele>201.05</ele>
        <time>2017-04-30T13:21:27Z</time>
      </trkpt>
      <trkpt lat="49.43942" lon="3.69914">
        <ele>202.49</ele>
        <time>2017-04-30T13:21:30Z</time>
      </trkpt>
      <trkpt lat="49.43934" lon="3.69911">
        <ele>201.05</ele>
        <time>2017-04-30T13:21:36Z</time>
      </trkpt>
      <trkpt lat="49.43923" lon="3.69907">
        <ele>202.01</ele>
        <time>2017-04-30T13:21:44Z</time>
      </trkpt>
      <trkpt lat="49.43915" lon="3.69902">
        <ele>201.53</ele>
        <time>2017-04-30T13:21:52Z</time>
      </trkpt>
      <trkpt lat="49.43913" lon="3.69902">
        <ele>202.01</ele>
        <time>2017-04-30T13:21:53Z</time>
      </trkpt>
      <trkpt lat="49.43903" lon="3.69899">
        <ele>200.57</ele>
        <time>2017-04-30T13:22:02Z</time>
      </trkpt>
      <trkpt lat="49.43893" lon="3.69896">
        <ele>202.98</ele>
        <time>2017-04-30T13:22:10Z</time>
      </trkpt>
      <trkpt lat="49.43886" lon="3.69895">
        <ele>201.05</ele>
        <time>2017-04-30T13:22:15Z</time>
      </trkpt>
      <trkpt lat="49.43876" lon="3.69891">
        <ele>200.57</ele>
        <time>2017-04-30T13:22:23Z</time>
      </trkpt>
      <trkpt lat="49.43866" lon="3.69889">
        <ele>200.09</ele>
        <time>2017-04-30T13:22:30Z</time>
      </trkpt>
      <trkpt lat="49.43855" lon="3.69886">
        <ele>199.61</ele>
        <time>2017-04-30T13:22:39Z</time>
      </trkpt>
      <trkpt lat="49.43843" lon="3.69884">
        <ele>200.57</ele>
        <time>2017-04-30T13:22:48Z</time>
      </trkpt>
      <trkpt lat="49.4383" lon="3.69881">
        <ele>200.09</ele>
        <time>2017-04-30T13:22:58Z</time>
      </trkpt>
      <trkpt lat="49.43821" lon="3.69878">
        <ele>198.65</ele>
        <time>2017-04-30T13:23:05Z</time>
      </trkpt>
      <trkpt lat="49.43808" lon="3.69876">
        <ele>199.13</ele>
        <time>2017-04-30T13:23:15Z</time>
      </trkpt>
      <trkpt lat="49.43793" lon="3.69872">
        <ele>198.17</ele>
        <time>2017-04-30T13:23:26Z</time>
      </trkpt>
      <trkpt lat="49.43782" lon="3.69869">
        <ele>198.65</ele>
        <time>2017-04-30T13:23:34Z</time>
      </trkpt>
      <trkpt lat="49.4377" lon="3.69866">
        <ele>197.21</ele>
        <time>2017-04-30T13:23:43Z</time>
      </trkpt>
      <trkpt lat="49.43758" lon="3.69864">
        <ele>197.21</ele>
        <time>2017-04-30T13:23:52Z</time>
      </trkpt>
      <trkpt lat="49.43755" lon="3.69862">
        <ele>198.17</ele>
        <time>2017-04-30T13:23:55Z</time>
      </trkpt>
      <trkpt lat="49.43743" lon="3.69859">
        <ele>197.21</ele>
        <time>2017-04-30T13:24:04Z</time>
      </trkpt>
      <trkpt lat="49.43729" lon="3.69857">
        <ele>197.69</ele>
        <time>2017-04-30T13:24:14Z</time>
      </trkpt>
      <trkpt lat="49.43717" lon="3.69855">
        <ele>197.69</ele>
        <time>2017-04-30T13:24:23Z</time>
      </trkpt>
      <trkpt lat="49.43705" lon="3.69855">
        <ele>197.21</ele>
        <time>2017-04-30T13:24:32Z</time>
      </trkpt>
      <trkpt lat="49.43692" lon="3.69855">
        <ele>196.25</ele>
        <time>2017-04-30T13:24:42Z</time>
      </trkpt>
      <trkpt lat="49.43678" lon="3.69854">
        <ele>196.25</ele>
        <time>2017-04-30T13:24:52Z</time>
      </trkpt>
      <trkpt lat="49.43665" lon="3.69854">
        <ele>196.25</ele>
        <time>2017-04-30T13:25:01Z</time>
      </trkpt>
      <trkpt lat="49.43654" lon="3.69854">
        <ele>195.77</ele>
        <time>2017-04-30T13:25:10Z</time>
      </trkpt>
      <trkpt lat="49.43644" lon="3.69853">
        <ele>195.77</ele>
        <time>2017-04-30T13:25:17Z</time>
      </trkpt>
      <trkpt lat="49.43633" lon="3.69852">
        <ele>194.8</ele>
        <time>2017-04-30T13:25:25Z</time>
      </trkpt>
      <trkpt lat="49.4362" lon="3.69851">
        <ele>194.32</ele>
        <time>2017-04-30T13:25:35Z</time>
      </trkpt>
      <trkpt lat="49.43616" lon="3.69851">
        <ele>195.77</ele>
        <time>2017-04-30T13:25:38Z</time>
      </trkpt>
      <trkpt lat="49.43604" lon="3.69851">
        <ele>194.8</ele>
        <time>2017-04-30T13:25:47Z</time>
      </trkpt>
      <trkpt lat="49.43595" lon="3.69851">
        <ele>194.8</ele>
        <time>2017-04-30T13:25:54Z</time>
      </trkpt>
      <trkpt lat="49.43585" lon="3.6985">
        <ele>192.88</ele>
        <time>2017-04-30T13:26:03Z</time>
      </trkpt>
      <trkpt lat="49.43579" lon="3.69851">
        <ele>192.88</ele>
        <time>2017-04-30T13:26:07Z</time>
      </trkpt>
      <trkpt lat="49.43566" lon="3.69852">
        <ele>191.44</ele>
        <time>2017-04-30T13:26:17Z</time>
      </trkpt>
      <trkpt lat="49.43553" lon="3.69851">
        <ele>192.4</ele>
        <time>2017-04-30T13:26:27Z</time>
      </trkpt>
      <trkpt lat="49.43541" lon="3.69852">
        <ele>190.96</ele>
        <time>2017-04-30T13:26:36Z</time>
      </trkpt>
      <trkpt lat="49.43528" lon="3.69851">
        <ele>190.48</ele>
        <time>2017-04-30T13:26:45Z</time>
      </trkpt>
      <trkpt lat="49.43518" lon="3.69852">
        <ele>189.04</ele>
        <time>2017-04-30T13:26:53Z</time>
      </trkpt>
      <trkpt lat="49.43504" lon="3.69851">
        <ele>187.59</ele>
        <time>2017-04-30T13:27:03Z</time>
      </trkpt>
      <trkpt lat="49.43494" lon="3.69852">
        <ele>187.11</ele>
        <time>2017-04-30T13:27:11Z</time>
      </trkpt>
      <trkpt lat="49.43483" lon="3.69853">
        <ele>186.63</ele>
        <time>2017-04-30T13:27:19Z</time>
      </trkpt>
      <trkpt lat="49.4347" lon="3.69853">
        <ele>184.23</ele>
        <time>2017-04-30T13:27:29Z</time>
      </trkpt>
      <trkpt lat="49.4346" lon="3.69852">
        <ele>183.75</ele>
        <time>2017-04-30T13:27:36Z</time>
      </trkpt>
      <trkpt lat="49.4345" lon="3.69853">
        <ele>182.31</ele>
        <time>2017-04-30T13:27:44Z</time>
      </trkpt>
      <trkpt lat="49.43442" lon="3.69856">
        <ele>181.83</ele>
        <time>2017-04-30T13:27:50Z</time>
      </trkpt>
      <trkpt lat="49.43434" lon="3.69855">
        <ele>181.83</ele>
        <time>2017-04-30T13:27:56Z</time>
      </trkpt>
      <trkpt lat="49.43424" lon="3.69855">
        <ele>181.35</ele>
        <time>2017-04-30T13:28:04Z</time>
      </trkpt>
      <trkpt lat="49.43415" lon="3.69855">
        <ele>180.38</ele>
        <time>2017-04-30T13:28:10Z</time>
      </trkpt>
      <trkpt lat="49.43403" lon="3.69855">
        <ele>179.42</ele>
        <time>2017-04-30T13:28:19Z</time>
      </trkpt>
      <trkpt lat="49.43395" lon="3.69855">
        <ele>177.98</ele>
        <time>2017-04-30T13:28:25Z</time>
      </trkpt>
      <trkpt lat="49.43383" lon="3.69855">
        <ele>177.02</ele>
        <time>2017-04-30T13:28:34Z</time>
      </trkpt>
      <trkpt lat="49.43372" lon="3.69846">
        <ele>177.02</ele>
        <time>2017-04-30T13:28:42Z</time>
      </trkpt>
      <trkpt lat="49.43367" lon="3.69838">
        <ele>177.02</ele>
        <time>2017-04-30T13:28:48Z</time>
      </trkpt>
      <trkpt lat="49.43364" lon="3.69828">
        <ele>178.46</ele>
        <time>2017-04-30T13:28:53Z</time>
      </trkpt>
      <trkpt lat="49.4336" lon="3.69817">
        <ele>178.94</ele>
        <time>2017-04-30T13:29:00Z</time>
      </trkpt>
      <trkpt lat="49.43358" lon="3.6981">
        <ele>177.5</ele>
        <time>2017-04-30T13:29:07Z</time>
      </trkpt>
      <trkpt lat="49.43356" lon="3.69809">
        <ele>177.5</ele>
        <time>2017-04-30T13:29:14Z</time>
      </trkpt>
      <trkpt lat="49.43356" lon="3.69808">
        <ele>176.54</ele>
        <time>2017-04-30T13:29:31Z</time>
      </trkpt>
      <trkpt lat="49.43356" lon="3.69808">
        <ele>177.02</ele>
        <time>2017-04-30T13:29:36Z</time>
      </trkpt>
      <trkpt lat="49.43356" lon="3.69808">
        <ele>177.5</ele>
        <time>2017-04-30T13:29:43Z</time>
      </trkpt>
      <trkpt lat="49.43356" lon="3.69806">
        <ele>177.02</ele>
        <time>2017-04-30T13:29:51Z</time>
      </trkpt>
      <trkpt lat="49.43356" lon="3.69803">
        <ele>177.5</ele>
        <time>2017-04-30T13:30:06Z</time>
      </trkpt>
      <trkpt lat="49.43357" lon="3.69802">
        <ele>177.5</ele>
        <time>2017-04-30T13:30:22Z</time>
      </trkpt>
      <trkpt lat="49.43357" lon="3.69801">
        <ele>177.02</ele>
        <time>2017-04-30T13:30:28Z</time>
      </trkpt>
      <trkpt lat="49.43355" lon="3.69791">
        <ele>177.02</ele>
        <time>2017-04-30T13:30:37Z</time>
      </trkpt>
      <trkpt lat="49.43353" lon="3.69776">
        <ele>177.5</ele>
        <time>2017-04-30T13:30:44Z</time>
      </trkpt>
      <trkpt lat="49.4335" lon="3.6976">
        <ele>177.98</ele>
        <time>2017-04-30T13:30:52Z</time>
      </trkpt>
      <trkpt lat="49.43346" lon="3.69744">
        <ele>178.94</ele>
        <time>2017-04-30T13:31:00Z</time>
      </trkpt>
      <trkpt lat="49.43344" lon="3.69734">
        <ele>179.42</ele>
        <time>2017-04-30T13:31:05Z</time>
      </trkpt>
      <trkpt lat="49.43341" lon="3.69723">
        <ele>178.46</ele>
        <time>2017-04-30T13:31:11Z</time>
      </trkpt>
      <trkpt lat="49.43339" lon="3.69708">
        <ele>178.46</ele>
        <time>2017-04-30T13:31:18Z</time>
      </trkpt>
      <trkpt lat="49.43337" lon="3.69703">
        <ele>178.46</ele>
        <time>2017-04-30T13:31:20Z</time>
      </trkpt>
      <trkpt lat="49.43336" lon="3.69691">
        <ele>177.5</ele>
        <time>2017-04-30T13:31:26Z</time>
      </trkpt>
      <trkpt lat="49.43333" lon="3.69677">
        <ele>178.46</ele>
        <time>2017-04-30T13:31:33Z</time>
      </trkpt>
      <trkpt lat="49.43331" lon="3.69661">
        <ele>178.94</ele>
        <time>2017-04-30T13:31:41Z</time>
      </trkpt>
      <trkpt lat="49.4333" lon="3.69659">
        <ele>178.46</ele>
        <time>2017-04-30T13:31:42Z</time>
      </trkpt>
      <trkpt lat="49.43329" lon="3.69649">
        <ele>177.98</ele>
        <time>2017-04-30T13:31:47Z</time>
      </trkpt>
      <trkpt lat="49.43327" lon="3.69639">
        <ele>177.98</ele>
        <time>2017-04-30T13:31:52Z</time>
      </trkpt>
      <trkpt lat="49.43326" lon="3.69631">
        <ele>177.5</ele>
        <time>2017-04-30T13:31:57Z</time>
      </trkpt>
      <trkpt lat="49.43323" lon="3.69615">
        <ele>177.98</ele>
        <time>2017-04-30T13:32:05Z</time>
      </trkpt>
      <trkpt lat="49.43321" lon="3.69607">
        <ele>177.98</ele>
        <time>2017-04-30T13:32:10Z</time>
      </trkpt>
      <trkpt lat="49.43318" lon="3.69594">
        <ele>177.98</ele>
        <time>2017-04-30T13:32:15Z</time>
      </trkpt>
      <trkpt lat="49.43317" lon="3.69588">
        <ele>177.98</ele>
        <time>2017-04-30T13:32:19Z</time>
      </trkpt>
      <trkpt lat="49.43315" lon="3.69582">
        <ele>177.98</ele>
        <time>2017-04-30T13:32:22Z</time>
      </trkpt>
      <trkpt lat="49.43312" lon="3.6957">
        <ele>177.5</ele>
        <time>2017-04-30T13:32:28Z</time>
      </trkpt>
      <trkpt lat="49.43311" lon="3.69564">
        <ele>177.5</ele>
        <time>2017-04-30T13:32:31Z</time>
      </trkpt>
      <trkpt lat="49.43307" lon="3.69548">
        <ele>177.02</ele>
        <time>2017-04-30T13:32:38Z</time>
      </trkpt>
      <trkpt lat="49.43307" lon="3.69546">
        <ele>177.5</ele>
        <time>2017-04-30T13:32:39Z</time>
      </trkpt>
      <trkpt lat="49.43303" lon="3.69529">
        <ele>177.98</ele>
        <time>2017-04-30T13:32:48Z</time>
      </trkpt>
      <trkpt lat="49.43299" lon="3.69516">
        <ele>179.42</ele>
        <time>2017-04-30T13:32:54Z</time>
      </trkpt>
      <trkpt lat="49.43296" lon="3.69506">
        <ele>180.87</ele>
        <time>2017-04-30T13:32:59Z</time>
      </trkpt>
      <trkpt lat="49.43295" lon="3.69503">
        <ele>180.38</ele>
        <time>2017-04-30T13:33:01Z</time>
      </trkpt>
      <trkpt lat="49.43293" lon="3.6949">
        <ele>177.98</ele>
        <time>2017-04-30T13:33:08Z</time>
      </trkpt>
      <trkpt lat="49.43292" lon="3.69481">
        <ele>179.42</ele>
        <time>2017-04-30T13:33:13Z</time>
      </trkpt>
      <trkpt lat="49.43291" lon="3.69477">
        <ele>177.5</ele>
        <time>2017-04-30T13:33:15Z</time>
      </trkpt>
      <trkpt lat="49.43286" lon="3.69461">
        <ele>177.98</ele>
        <time>2017-04-30T13:33:23Z</time>
      </trkpt>
      <trkpt lat="49.43282" lon="3.6944">
        <ele>176.54</ele>
        <time>2017-04-30T13:33:34Z</time>
      </trkpt>
      <trkpt lat="49.43279" lon="3.69428">
        <ele>177.98</ele>
        <time>2017-04-30T13:33:40Z</time>
      </trkpt>
      <trkpt lat="49.43275" lon="3.69412">
        <ele>177.5</ele>
        <time>2017-04-30T13:33:48Z</time>
      </trkpt>
      <trkpt lat="49.43271" lon="3.69396">
        <ele>177.5</ele>
        <time>2017-04-30T13:33:57Z</time>
      </trkpt>
      <trkpt lat="49.43267" lon="3.69375">
        <ele>178.94</ele>
        <time>2017-04-30T13:34:08Z</time>
      </trkpt>
      <trkpt lat="49.43262" lon="3.69356">
        <ele>178.46</ele>
        <time>2017-04-30T13:34:17Z</time>
      </trkpt>
      <trkpt lat="49.43259" lon="3.69344">
        <ele>177.98</ele>
        <time>2017-04-30T13:34:23Z</time>
      </trkpt>
      <trkpt lat="49.43259" lon="3.69343">
        <ele>177.98</ele>
        <time>2017-04-30T13:34:24Z</time>
      </trkpt>
      <trkpt lat="49.43256" lon="3.69333">
        <ele>177.02</ele>
        <time>2017-04-30T13:34:28Z</time>
      </trkpt>
      <trkpt lat="49.43252" lon="3.69323">
        <ele>177.02</ele>
        <time>2017-04-30T13:34:33Z</time>
      </trkpt>
      <trkpt lat="49.43251" lon="3.69309">
        <ele>177.5</ele>
        <time>2017-04-30T13:34:40Z</time>
      </trkpt>
      <trkpt lat="49.4325" lon="3.69299">
        <ele>177.02</ele>
        <time>2017-04-30T13:34:45Z</time>
      </trkpt>
      <trkpt lat="49.43249" lon="3.69298">
        <ele>177.5</ele>
        <time>2017-04-30T13:34:46Z</time>
      </trkpt>
      <trkpt lat="49.43247" lon="3.69286">
        <ele>177.5</ele>
        <time>2017-04-30T13:34:51Z</time>
      </trkpt>
      <trkpt lat="49.43245" lon="3.69271">
        <ele>177.5</ele>
        <time>2017-04-30T13:34:59Z</time>
      </trkpt>
      <trkpt lat="49.43239" lon="3.69257">
        <ele>177.02</ele>
        <time>2017-04-30T13:35:07Z</time>
      </trkpt>
      <trkpt lat="49.43233" lon="3.69245">
        <ele>175.58</ele>
        <time>2017-04-30T13:35:14Z</time>
      </trkpt>
      <trkpt lat="49.43226" lon="3.69229">
        <ele>175.1</ele>
        <time>2017-04-30T13:35:23Z</time>
      </trkpt>
      <trkpt lat="49.43219" lon="3.69215">
        <ele>174.62</ele>
        <time>2017-04-30T13:35:31Z</time>
      </trkpt>
      <trkpt lat="49.43215" lon="3.69205">
        <ele>174.14</ele>
        <time>2017-04-30T13:35:37Z</time>
      </trkpt>
      <trkpt lat="49.43214" lon="3.69191">
        <ele>174.62</ele>
        <time>2017-04-30T13:35:44Z</time>
      </trkpt>
      <trkpt lat="49.43214" lon="3.69186">
        <ele>175.1</ele>
        <time>2017-04-30T13:35:47Z</time>
      </trkpt>
      <trkpt lat="49.43215" lon="3.69174">
        <ele>175.58</ele>
        <time>2017-04-30T13:35:54Z</time>
      </trkpt>
      <trkpt lat="49.43214" lon="3.69171">
        <ele>175.58</ele>
        <time>2017-04-30T13:35:56Z</time>
      </trkpt>
      <trkpt lat="49.43213" lon="3.69161">
        <ele>175.58</ele>
        <time>2017-04-30T13:36:01Z</time>
      </trkpt>
      <trkpt lat="49.43212" lon="3.69151">
        <ele>175.58</ele>
        <time>2017-04-30T13:36:06Z</time>
      </trkpt>
      <trkpt lat="49.4321" lon="3.69142">
        <ele>175.58</ele>
        <time>2017-04-30T13:36:11Z</time>
      </trkpt>
      <trkpt lat="49.43207" lon="3.69125">
        <ele>176.06</ele>
        <time>2017-04-30T13:36:20Z</time>
      </trkpt>
      <trkpt lat="49.43203" lon="3.69112">
        <ele>177.02</ele>
        <time>2017-04-30T13:36:26Z</time>
      </trkpt>
      <trkpt lat="49.432" lon="3.69099">
        <ele>177.02</ele>
        <time>2017-04-30T13:36:33Z</time>
      </trkpt>
      <trkpt lat="49.43195" lon="3.69085">
        <ele>177.02</ele>
        <time>2017-04-30T13:36:41Z</time>
      </trkpt>
      <trkpt lat="49.43191" lon="3.69073">
        <ele>177.02</ele>
        <time>2017-04-30T13:36:47Z</time>
      </trkpt>
      <trkpt lat="49.43185" lon="3.69057">
        <ele>177.02</ele>
        <time>2017-04-30T13:36:56Z</time>
      </trkpt>
      <trkpt lat="49.4318" lon="3.69041">
        <ele>176.54</ele>
        <time>2017-04-30T13:37:04Z</time>
      </trkpt>
      <trkpt lat="49.43177" lon="3.69028">
        <ele>176.54</ele>
        <time>2017-04-30T13:37:11Z</time>
      </trkpt>
      <trkpt lat="49.43171" lon="3.69013">
        <ele>176.54</ele>
        <time>2017-04-30T13:37:19Z</time>
      </trkpt>
      <trkpt lat="49.43165" lon="3.68998">
        <ele>177.02</ele>
        <time>2017-04-30T13:37:27Z</time>
      </trkpt>
      <trkpt lat="49.43162" lon="3.68993">
        <ele>177.02</ele>
        <time>2017-04-30T13:37:31Z</time>
      </trkpt>
      <trkpt lat="49.4316" lon="3.68982">
        <ele>177.02</ele>
        <time>2017-04-30T13:37:36Z</time>
      </trkpt>
      <trkpt lat="49.43155" lon="3.68964">
        <ele>176.54</ele>
        <time>2017-04-30T13:37:45Z</time>
      </trkpt>
      <trkpt lat="49.43152" lon="3.68953">
        <ele>177.02</ele>
        <time>2017-04-30T13:37:51Z</time>
      </trkpt>
      <trkpt lat="49.43148" lon="3.6894">
        <ele>177.02</ele>
        <time>2017-04-30T13:37:58Z</time>
      </trkpt>
      <trkpt lat="49.43143" lon="3.68924">
        <ele>177.02</ele>
        <time>2017-04-30T13:38:06Z</time>
      </trkpt>
      <trkpt lat="49.43139" lon="3.68907">
        <ele>177.5</ele>
        <time>2017-04-30T13:38:15Z</time>
      </trkpt>
      <trkpt lat="49.43134" lon="3.68893">
        <ele>177.02</ele>
        <time>2017-04-30T13:38:22Z</time>
      </trkpt>
      <trkpt lat="49.43125" lon="3.68877">
        <ele>176.06</ele>
        <time>2017-04-30T13:38:32Z</time>
      </trkpt>
      <trkpt lat="49.43118" lon="3.68864">
        <ele>176.06</ele>
        <time>2017-04-30T13:38:40Z</time>
      </trkpt>
      <trkpt lat="49.43111" lon="3.68847">
        <ele>176.06</ele>
        <time>2017-04-30T13:38:49Z</time>
      </trkpt>
      <trkpt lat="49.43107" lon="3.6884">
        <ele>176.06</ele>
        <time>2017-04-30T13:38:54Z</time>
      </trkpt>
      <trkpt lat="49.43098" lon="3.68827">
        <ele>175.58</ele>
        <time>2017-04-30T13:39:02Z</time>
      </trkpt>
      <trkpt lat="49.4309" lon="3.68811">
        <ele>175.1</ele>
        <time>2017-04-30T13:39:11Z</time>
      </trkpt>
      <trkpt lat="49.43084" lon="3.68801">
        <ele>174.62</ele>
        <time>2017-04-30T13:39:18Z</time>
      </trkpt>
      <trkpt lat="49.43077" lon="3.68791">
        <ele>174.62</ele>
        <time>2017-04-30T13:39:25Z</time>
      </trkpt>
      <trkpt lat="49.43071" lon="3.68782">
        <ele>174.14</ele>
        <time>2017-04-30T13:39:31Z</time>
      </trkpt>
      <trkpt lat="49.43063" lon="3.68769">
        <ele>174.14</ele>
        <time>2017-04-30T13:39:40Z</time>
      </trkpt>
      <trkpt lat="49.43054" lon="3.68755">
        <ele>173.66</ele>
        <time>2017-04-30T13:39:49Z</time>
      </trkpt>
      <trkpt lat="49.43047" lon="3.68744">
        <ele>173.17</ele>
        <time>2017-04-30T13:39:56Z</time>
      </trkpt>
      <trkpt lat="49.43036" lon="3.68729">
        <ele>172.69</ele>
        <time>2017-04-30T13:40:06Z</time>
      </trkpt>
      <trkpt lat="49.43027" lon="3.68717">
        <ele>172.21</ele>
        <time>2017-04-30T13:40:14Z</time>
      </trkpt>
      <trkpt lat="49.43019" lon="3.68705">
        <ele>172.21</ele>
        <time>2017-04-30T13:40:21Z</time>
      </trkpt>
      <trkpt lat="49.4301" lon="3.68693">
        <ele>172.21</ele>
        <time>2017-04-30T13:40:29Z</time>
      </trkpt>
      <trkpt lat="49.43009" lon="3.68691">
        <ele>172.21</ele>
        <time>2017-04-30T13:40:31Z</time>
      </trkpt>
      <trkpt lat="49.43001" lon="3.68682">
        <ele>172.21</ele>
        <time>2017-04-30T13:40:39Z</time>
      </trkpt>
      <trkpt lat="49.42992" lon="3.6867">
        <ele>172.21</ele>
        <time>2017-04-30T13:40:47Z</time>
      </trkpt>
      <trkpt lat="49.42984" lon="3.68658">
        <ele>172.21</ele>
        <time>2017-04-30T13:40:55Z</time>
      </trkpt>
      <trkpt lat="49.42976" lon="3.68644">
        <ele>172.69</ele>
        <time>2017-04-30T13:41:03Z</time>
      </trkpt>
      <trkpt lat="49.42972" lon="3.6864">
        <ele>172.69</ele>
        <time>2017-04-30T13:41:06Z</time>
      </trkpt>
      <trkpt lat="49.4297" lon="3.68637">
        <ele>172.69</ele>
        <time>2017-04-30T13:41:08Z</time>
      </trkpt>
      <trkpt lat="49.42961" lon="3.68625">
        <ele>172.69</ele>
        <time>2017-04-30T13:41:16Z</time>
      </trkpt>
      <trkpt lat="49.42953" lon="3.68615">
        <ele>173.17</ele>
        <time>2017-04-30T13:41:23Z</time>
      </trkpt>
      <trkpt lat="49.42946" lon="3.68607">
        <ele>173.17</ele>
        <time>2017-04-30T13:41:29Z</time>
      </trkpt>
      <trkpt lat="49.42938" lon="3.68599">
        <ele>172.69</ele>
        <time>2017-04-30T13:41:36Z</time>
      </trkpt>
      <trkpt lat="49.4293" lon="3.68594">
        <ele>172.21</ele>
        <time>2017-04-30T13:41:42Z</time>
      </trkpt>
      <trkpt lat="49.42922" lon="3.68585">
        <ele>171.73</ele>
        <time>2017-04-30T13:41:49Z</time>
      </trkpt>
      <trkpt lat="49.42915" lon="3.68578">
        <ele>171.25</ele>
        <time>2017-04-30T13:41:55Z</time>
      </trkpt>
      <trkpt lat="49.42905" lon="3.6857">
        <ele>171.73</ele>
        <time>2017-04-30T13:42:02Z</time>
      </trkpt>
      <trkpt lat="49.42895" lon="3.68557">
        <ele>171.73</ele>
        <time>2017-04-30T13:42:11Z</time>
      </trkpt>
      <trkpt lat="49.42888" lon="3.6855">
        <ele>171.73</ele>
        <time>2017-04-30T13:42:17Z</time>
      </trkpt>
      <trkpt lat="49.42881" lon="3.68541">
        <ele>171.73</ele>
        <time>2017-04-30T13:42:23Z</time>
      </trkpt>
      <trkpt lat="49.42874" lon="3.68533">
        <ele>172.21</ele>
        <time>2017-04-30T13:42:30Z</time>
      </trkpt>
      <trkpt lat="49.42868" lon="3.68523">
        <ele>172.21</ele>
        <time>2017-04-30T13:42:38Z</time>
      </trkpt>
      <trkpt lat="49.42857" lon="3.68512">
        <ele>172.21</ele>
        <time>2017-04-30T13:42:47Z</time>
      </trkpt>
      <trkpt lat="49.42851" lon="3.68503">
        <ele>172.21</ele>
        <time>2017-04-30T13:42:54Z</time>
      </trkpt>
      <trkpt lat="49.42843" lon="3.68495">
        <ele>172.21</ele>
        <time>2017-04-30T13:43:01Z</time>
      </trkpt>
      <trkpt lat="49.42832" lon="3.68482">
        <ele>172.69</ele>
        <time>2017-04-30T13:43:10Z</time>
      </trkpt>
      <trkpt lat="49.4283" lon="3.68481">
        <ele>172.69</ele>
        <time>2017-04-30T13:43:11Z</time>
      </trkpt>
      <trkpt lat="49.4282" lon="3.68465">
        <ele>173.17</ele>
        <time>2017-04-30T13:43:21Z</time>
      </trkpt>
      <trkpt lat="49.42813" lon="3.68455">
        <ele>173.66</ele>
        <time>2017-04-30T13:43:28Z</time>
      </trkpt>
      <trkpt lat="49.42805" lon="3.68442">
        <ele>173.66</ele>
        <time>2017-04-30T13:43:37Z</time>
      </trkpt>
      <trkpt lat="49.42797" lon="3.68431">
        <ele>173.17</ele>
        <time>2017-04-30T13:43:46Z</time>
      </trkpt>
      <trkpt lat="49.42792" lon="3.68424">
        <ele>173.66</ele>
        <time>2017-04-30T13:43:51Z</time>
      </trkpt>
      <trkpt lat="49.42784" lon="3.68418">
        <ele>173.17</ele>
        <time>2017-04-30T13:43:58Z</time>
      </trkpt>
      <trkpt lat="49.42777" lon="3.68412">
        <ele>173.17</ele>
        <time>2017-04-30T13:44:04Z</time>
      </trkpt>
      <trkpt lat="49.42773" lon="3.6841">
        <ele>172.69</ele>
        <time>2017-04-30T13:44:09Z</time>
      </trkpt>
      <trkpt lat="49.42767" lon="3.68404">
        <ele>172.21</ele>
        <time>2017-04-30T13:44:17Z</time>
      </trkpt>
      <trkpt lat="49.42767" lon="3.68403">
        <ele>172.21</ele>
        <time>2017-04-30T13:44:25Z</time>
      </trkpt>
      <trkpt lat="49.42766" lon="3.68403">
        <ele>172.21</ele>
        <time>2017-04-30T13:44:30Z</time>
      </trkpt>
      <trkpt lat="49.42765" lon="3.68403">
        <ele>172.21</ele>
        <time>2017-04-30T13:44:43Z</time>
      </trkpt>
      <trkpt lat="49.42765" lon="3.68403">
        <ele>171.73</ele>
        <time>2017-04-30T13:44:50Z</time>
      </trkpt>
      <trkpt lat="49.42765" lon="3.68403">
        <ele>171.73</ele>
        <time>2017-04-30T13:44:52Z</time>
      </trkpt>
      <trkpt lat="49.42766" lon="3.68402">
        <ele>172.21</ele>
        <time>2017-04-30T13:44:58Z</time>
      </trkpt>
      <trkpt lat="49.42766" lon="3.68402">
        <ele>172.69</ele>
        <time>2017-04-30T13:45:08Z</time>
      </trkpt>
      <trkpt lat="49.42767" lon="3.68401">
        <ele>172.21</ele>
        <time>2017-04-30T13:45:19Z</time>
      </trkpt>
      <trkpt lat="49.42767" lon="3.68401">
        <ele>172.21</ele>
        <time>2017-04-30T13:45:37Z</time>
      </trkpt>
      <trkpt lat="49.42767" lon="3.68401">
        <ele>172.21</ele>
        <time>2017-04-30T13:45:51Z</time>
      </trkpt>
      <trkpt lat="49.42767" lon="3.684">
        <ele>173.17</ele>
        <time>2017-04-30T13:46:00Z</time>
      </trkpt>
      <trkpt lat="49.42766" lon="3.68399">
        <ele>172.21</ele>
        <time>2017-04-30T13:46:12Z</time>
      </trkpt>
      <trkpt lat="49.42767" lon="3.68399">
        <ele>172.21</ele>
        <time>2017-04-30T13:46:25Z</time>
      </trkpt>
      <trkpt lat="49.42767" lon="3.68399">
        <ele>172.21</ele>
        <time>2017-04-30T13:46:36Z</time>
      </trkpt>
      <trkpt lat="49.42767" lon="3.68399">
        <ele>172.69</ele>
        <time>2017-04-30T13:46:48Z</time>
      </trkpt>
      <trkpt lat="49.42767" lon="3.68398">
        <ele>172.69</ele>
        <time>2017-04-30T13:47:00Z</time>
      </trkpt>
      <trkpt lat="49.42767" lon="3.68398">
        <ele>172.21</ele>
        <time>2017-04-30T13:47:13Z</time>
      </trkpt>
      <trkpt lat="49.42767" lon="3.68398">
        <ele>172.69</ele>
        <time>2017-04-30T13:47:22Z</time>
      </trkpt>
      <trkpt lat="49.42767" lon="3.68397">
        <ele>172.69</ele>
        <time>2017-04-30T13:47:34Z</time>
      </trkpt>
      <trkpt lat="49.42767" lon="3.68397">
        <ele>172.21</ele>
        <time>2017-04-30T13:47:43Z</time>
      </trkpt>
      <trkpt lat="49.42767" lon="3.68397">
        <ele>172.69</ele>
        <time>2017-04-30T13:47:55Z</time>
      </trkpt>
      <trkpt lat="49.42767" lon="3.68397">
        <ele>172.69</ele>
        <time>2017-04-30T13:48:06Z</time>
      </trkpt>
      <trkpt lat="49.42767" lon="3.68397">
        <ele>172.69</ele>
        <time>2017-04-30T13:48:16Z</time>
      </trkpt>
      <trkpt lat="49.42767" lon="3.68397">
        <ele>173.17</ele>
        <time>2017-04-30T13:48:28Z</time>
      </trkpt>
      <trkpt lat="49.42767" lon="3.68397">
        <ele>173.17</ele>
        <time>2017-04-30T13:48:42Z</time>
      </trkpt>
      <trkpt lat="49.42766" lon="3.68397">
        <ele>173.66</ele>
        <time>2017-04-30T13:48:54Z</time>
      </trkpt>
      <trkpt lat="49.42766" lon="3.68396">
        <ele>173.17</ele>
        <time>2017-04-30T13:49:05Z</time>
      </trkpt>
      <trkpt lat="49.42766" lon="3.68396">
        <ele>172.69</ele>
        <time>2017-04-30T13:49:16Z</time>
      </trkpt>
      <trkpt lat="49.42766" lon="3.68396">
        <ele>173.17</ele>
        <time>2017-04-30T13:49:31Z</time>
      </trkpt>
      <trkpt lat="49.42767" lon="3.68396">
        <ele>172.69</ele>
        <time>2017-04-30T13:49:41Z</time>
      </trkpt>
      <trkpt lat="49.42767" lon="3.68396">
        <ele>173.17</ele>
        <time>2017-04-30T13:49:54Z</time>
      </trkpt>
      <trkpt lat="49.42767" lon="3.68396">
        <ele>172.69</ele>
        <time>2017-04-30T13:50:03Z</time>
      </trkpt>
      <trkpt lat="49.42767" lon="3.68397">
        <ele>173.17</ele>
        <time>2017-04-30T13:50:12Z</time>
      </trkpt>
      <trkpt lat="49.42767" lon="3.68397">
        <ele>172.69</ele>
        <time>2017-04-30T13:50:22Z</time>
      </trkpt>
      <trkpt lat="49.42767" lon="3.68397">
        <ele>173.17</ele>
        <time>2017-04-30T13:50:33Z</time>
      </trkpt>
      <trkpt lat="49.42767" lon="3.68398">
        <ele>173.17</ele>
        <time>2017-04-30T13:50:47Z</time>
      </trkpt>
      <trkpt lat="49.42767" lon="3.68398">
        <ele>172.69</ele>
        <time>2017-04-30T13:50:56Z</time>
      </trkpt>
      <trkpt lat="49.42767" lon="3.68398">
        <ele>173.17</ele>
        <time>2017-04-30T13:51:06Z</time>
      </trkpt>
      <trkpt lat="49.42767" lon="3.68398">
        <ele>172.69</ele>
        <time>2017-04-30T13:51:18Z</time>
      </trkpt>
      <trkpt lat="49.42767" lon="3.68398">
        <ele>172.69</ele>
        <time>2017-04-30T13:51:28Z</time>
      </trkpt>
      <trkpt lat="49.42766" lon="3.68398">
        <ele>173.17</ele>
        <time>2017-04-30T13:51:39Z</time>
      </trkpt>
      <trkpt lat="49.42767" lon="3.68398">
        <ele>172.69</ele>
        <time>2017-04-30T13:51:53Z</time>
      </trkpt>
      <trkpt lat="49.42767" lon="3.68398">
        <ele>172.69</ele>
        <time>2017-04-30T13:52:05Z</time>
      </trkpt>
      <trkpt lat="49.42767" lon="3.68399">
        <ele>173.17</ele>
        <time>2017-04-30T13:52:16Z</time>
      </trkpt>
      <trkpt lat="49.42767" lon="3.68399">
        <ele>173.17</ele>
        <time>2017-04-30T13:52:24Z</time>
      </trkpt>
      <trkpt lat="49.42767" lon="3.68399">
        <ele>171.73</ele>
        <time>2017-04-30T13:52:31Z</time>
      </trkpt>
      <trkpt lat="49.42767" lon="3.684">
        <ele>172.69</ele>
        <time>2017-04-30T13:52:37Z</time>
      </trkpt>
      <trkpt lat="49.42767" lon="3.68401">
        <ele>172.21</ele>
        <time>2017-04-30T13:52:47Z</time>
      </trkpt>
      <trkpt lat="49.42766" lon="3.68401">
        <ele>172.21</ele>
        <time>2017-04-30T13:52:56Z</time>
      </trkpt>
      <trkpt lat="49.42766" lon="3.68401">
        <ele>171.73</ele>
        <time>2017-04-30T13:53:14Z</time>
      </trkpt>
      <trkpt lat="49.42766" lon="3.68401">
        <ele>171.73</ele>
        <time>2017-04-30T13:53:27Z</time>
      </trkpt>
      <trkpt lat="49.42767" lon="3.68401">
        <ele>172.21</ele>
        <time>2017-04-30T13:53:40Z</time>
      </trkpt>
      <trkpt lat="49.42767" lon="3.68401">
        <ele>171.73</ele>
        <time>2017-04-30T13:53:55Z</time>
      </trkpt>
      <trkpt lat="49.42767" lon="3.684">
        <ele>171.73</ele>
        <time>2017-04-30T13:54:14Z</time>
      </trkpt>
      <trkpt lat="49.42767" lon="3.684">
        <ele>171.25</ele>
        <time>2017-04-30T13:54:32Z</time>
      </trkpt>
      <trkpt lat="49.42767" lon="3.684">
        <ele>171.73</ele>
        <time>2017-04-30T13:54:49Z</time>
      </trkpt>
      <trkpt lat="49.42767" lon="3.684">
        <ele>172.21</ele>
        <time>2017-04-30T13:55:04Z</time>
      </trkpt>
      <trkpt lat="49.42767" lon="3.68399">
        <ele>172.21</ele>
        <time>2017-04-30T13:55:18Z</time>
      </trkpt>
      <trkpt lat="49.42767" lon="3.68399">
        <ele>172.21</ele>
        <time>2017-04-30T13:55:32Z</time>
      </trkpt>
      <trkpt lat="49.42767" lon="3.68399">
        <ele>172.69</ele>
        <time>2017-04-30T13:55:49Z</time>
      </trkpt>
      <trkpt lat="49.42767" lon="3.68398">
        <ele>173.17</ele>
        <time>2017-04-30T13:56:05Z</time>
      </trkpt>
      <trkpt lat="49.42767" lon="3.68398">
        <ele>172.21</ele>
        <time>2017-04-30T13:56:20Z</time>
      </trkpt>
      <trkpt lat="49.42767" lon="3.68398">
        <ele>172.69</ele>
        <time>2017-04-30T13:56:40Z</time>
      </trkpt>
      <trkpt lat="49.42766" lon="3.68398">
        <ele>172.21</ele>
        <time>2017-04-30T13:56:57Z</time>
      </trkpt>
      <trkpt lat="49.42767" lon="3.68398">
        <ele>172.21</ele>
        <time>2017-04-30T13:57:14Z</time>
      </trkpt>
      <trkpt lat="49.42767" lon="3.68398">
        <ele>172.21</ele>
        <time>2017-04-30T13:57:30Z</time>
      </trkpt>
      <trkpt lat="49.42766" lon="3.68398">
        <ele>172.21</ele>
        <time>2017-04-30T13:57:48Z</time>
      </trkpt>
      <trkpt lat="49.42766" lon="3.68398">
        <ele>171.73</ele>
        <time>2017-04-30T13:58:05Z</time>
      </trkpt>
      <trkpt lat="49.42766" lon="3.68399">
        <ele>171.73</ele>
        <time>2017-04-30T13:58:25Z</time>
      </trkpt>
      <trkpt lat="49.42766" lon="3.684">
        <ele>171.73</ele>
        <time>2017-04-30T13:58:39Z</time>
      </trkpt>
      <trkpt lat="49.42766" lon="3.684">
        <ele>172.21</ele>
        <time>2017-04-30T13:58:55Z</time>
      </trkpt>
      <trkpt lat="49.42767" lon="3.684">
        <ele>175.58</ele>
        <time>2017-04-30T13:59:03Z</time>
      </trkpt>
      <trkpt lat="49.42766" lon="3.68399">
        <ele>172.69</ele>
        <time>2017-04-30T13:59:08Z</time>
      </trkpt>
      <trkpt lat="49.42767" lon="3.68398">
        <ele>172.69</ele>
        <time>2017-04-30T13:59:13Z</time>
      </trkpt>
      <trkpt lat="49.42767" lon="3.68399">
        <ele>172.69</ele>
        <time>2017-04-30T13:59:14Z</time>
      </trkpt>
      <trkpt lat="49.42763" lon="3.68401">
        <ele>172.21</ele>
        <time>2017-04-30T13:59:20Z</time>
      </trkpt>
      <trkpt lat="49.42758" lon="3.68398">
        <ele>171.25</ele>
        <time>2017-04-30T13:59:27Z</time>
      </trkpt>
      <trkpt lat="49.42751" lon="3.68395">
        <ele>170.77</ele>
        <time>2017-04-30T13:59:35Z</time>
      </trkpt>
      <trkpt lat="49.42749" lon="3.68393">
        <ele>170.29</ele>
        <time>2017-04-30T13:59:38Z</time>
      </trkpt>
      <trkpt lat="49.42742" lon="3.68386">
        <ele>171.25</ele>
        <time>2017-04-30T13:59:47Z</time>
      </trkpt>
      <trkpt lat="49.4274" lon="3.68383">
        <ele>171.25</ele>
        <time>2017-04-30T13:59:50Z</time>
      </trkpt>
      <trkpt lat="49.42733" lon="3.68372">
        <ele>170.77</ele>
        <time>2017-04-30T13:59:59Z</time>
      </trkpt>
      <trkpt lat="49.42731" lon="3.6837">
        <ele>170.77</ele>
        <time>2017-04-30T14:00:05Z</time>
      </trkpt>
      <trkpt lat="49.4273" lon="3.68369">
        <ele>170.77</ele>
        <time>2017-04-30T14:00:07Z</time>
      </trkpt>
      <trkpt lat="49.42725" lon="3.68364">
        <ele>169.81</ele>
        <time>2017-04-30T14:00:14Z</time>
      </trkpt>
      <trkpt lat="49.42721" lon="3.68358">
        <ele>168.85</ele>
        <time>2017-04-30T14:00:21Z</time>
      </trkpt>
      <trkpt lat="49.4272" lon="3.68355">
        <ele>168.85</ele>
        <time>2017-04-30T14:00:26Z</time>
      </trkpt>
      <trkpt lat="49.42717" lon="3.68351">
        <ele>167.89</ele>
        <time>2017-04-30T14:00:32Z</time>
      </trkpt>
      <trkpt lat="49.42713" lon="3.68347">
        <ele>166.93</ele>
        <time>2017-04-30T14:00:38Z</time>
      </trkpt>
      <trkpt lat="49.42709" lon="3.68346">
        <ele>165.48</ele>
        <time>2017-04-30T14:00:44Z</time>
      </trkpt>
      <trkpt lat="49.42701" lon="3.68339">
        <ele>164.04</ele>
        <time>2017-04-30T14:00:52Z</time>
      </trkpt>
      <trkpt lat="49.42694" lon="3.68332">
        <ele>162.6</ele>
        <time>2017-04-30T14:00:59Z</time>
      </trkpt>
      <trkpt lat="49.42692" lon="3.68326">
        <ele>161.64</ele>
        <time>2017-04-30T14:01:05Z</time>
      </trkpt>
      <trkpt lat="49.42687" lon="3.68316">
        <ele>160.68</ele>
        <time>2017-04-30T14:01:11Z</time>
      </trkpt>
      <trkpt lat="49.42685" lon="3.6831">
        <ele>159.72</ele>
        <time>2017-04-30T14:01:16Z</time>
      </trkpt>
      <trkpt lat="49.42688" lon="3.68308">
        <ele>159.72</ele>
        <time>2017-04-30T14:01:18Z</time>
      </trkpt>
      <trkpt lat="49.42688" lon="3.68303">
        <ele>158.75</ele>
        <time>2017-04-30T14:01:21Z</time>
      </trkpt>
      <trkpt lat="49.42685" lon="3.68296">
        <ele>158.75</ele>
        <time>2017-04-30T14:01:24Z</time>
      </trkpt>
      <trkpt lat="49.42679" lon="3.6829">
        <ele>158.75</ele>
        <time>2017-04-30T14:01:27Z</time>
      </trkpt>
      <trkpt lat="49.4267" lon="3.68281">
        <ele>158.27</ele>
        <time>2017-04-30T14:01:32Z</time>
      </trkpt>
      <trkpt lat="49.42666" lon="3.68274">
        <ele>158.27</ele>
        <time>2017-04-30T14:01:35Z</time>
      </trkpt>
      <trkpt lat="49.42661" lon="3.68269">
        <ele>158.27</ele>
        <time>2017-04-30T14:01:38Z</time>
      </trkpt>
      <trkpt lat="49.4265" lon="3.68262">
        <ele>158.27</ele>
        <time>2017-04-30T14:01:42Z</time>
      </trkpt>
      <trkpt lat="49.42636" lon="3.68253">
        <ele>158.75</ele>
        <time>2017-04-30T14:01:46Z</time>
      </trkpt>
      <trkpt lat="49.42634" lon="3.6825">
        <ele>158.27</ele>
        <time>2017-04-30T14:01:49Z</time>
      </trkpt>
      <trkpt lat="49.42634" lon="3.68246">
        <ele>158.27</ele>
        <time>2017-04-30T14:01:51Z</time>
      </trkpt>
      <trkpt lat="49.42633" lon="3.68231">
        <ele>158.75</ele>
        <time>2017-04-30T14:01:59Z</time>
      </trkpt>
      <trkpt lat="49.42633" lon="3.68227">
        <ele>159.24</ele>
        <time>2017-04-30T14:02:02Z</time>
      </trkpt>
      <trkpt lat="49.42634" lon="3.68216">
        <ele>158.75</ele>
        <time>2017-04-30T14:02:08Z</time>
      </trkpt>
      <trkpt lat="49.42634" lon="3.68212">
        <ele>158.27</ele>
        <time>2017-04-30T14:02:10Z</time>
      </trkpt>
      <trkpt lat="49.42632" lon="3.68199">
        <ele>158.27</ele>
        <time>2017-04-30T14:02:18Z</time>
      </trkpt>
      <trkpt lat="49.42637" lon="3.68181">
        <ele>157.79</ele>
        <time>2017-04-30T14:02:25Z</time>
      </trkpt>
      <trkpt lat="49.42638" lon="3.68179">
        <ele>157.79</ele>
        <time>2017-04-30T14:02:35Z</time>
      </trkpt>
      <trkpt lat="49.42639" lon="3.68177">
        <ele>158.27</ele>
        <time>2017-04-30T14:02:46Z</time>
      </trkpt>
      <trkpt lat="49.42638" lon="3.6817">
        <ele>158.27</ele>
        <time>2017-04-30T14:02:53Z</time>
      </trkpt>
      <trkpt lat="49.42635" lon="3.68163">
        <ele>158.27</ele>
        <time>2017-04-30T14:02:59Z</time>
      </trkpt>
      <trkpt lat="49.42634" lon="3.68162">
        <ele>158.27</ele>
        <time>2017-04-30T14:03:00Z</time>
      </trkpt>
      <trkpt lat="49.4263" lon="3.6815">
        <ele>157.79</ele>
        <time>2017-04-30T14:03:08Z</time>
      </trkpt>
      <trkpt lat="49.42628" lon="3.68133">
        <ele>156.83</ele>
        <time>2017-04-30T14:03:17Z</time>
      </trkpt>
      <trkpt lat="49.42628" lon="3.68129">
        <ele>156.83</ele>
        <time>2017-04-30T14:03:20Z</time>
      </trkpt>
      <trkpt lat="49.42627" lon="3.68124">
        <ele>156.83</ele>
        <time>2017-04-30T14:03:23Z</time>
      </trkpt>
      <trkpt lat="49.42627" lon="3.6812">
        <ele>157.31</ele>
        <time>2017-04-30T14:03:25Z</time>
      </trkpt>
      <trkpt lat="49.42623" lon="3.68109">
        <ele>157.31</ele>
        <time>2017-04-30T14:03:32Z</time>
      </trkpt>
      <trkpt lat="49.42623" lon="3.68105">
        <ele>157.31</ele>
        <time>2017-04-30T14:03:34Z</time>
      </trkpt>
      <trkpt lat="49.42624" lon="3.68103">
        <ele>157.31</ele>
        <time>2017-04-30T14:03:35Z</time>
      </trkpt>
      <trkpt lat="49.42622" lon="3.68082">
        <ele>156.83</ele>
        <time>2017-04-30T14:03:44Z</time>
      </trkpt>
      <trkpt lat="49.42622" lon="3.68064">
        <ele>156.83</ele>
        <time>2017-04-30T14:03:51Z</time>
      </trkpt>
      <trkpt lat="49.42623" lon="3.68055">
        <ele>156.83</ele>
        <time>2017-04-30T14:03:55Z</time>
      </trkpt>
      <trkpt lat="49.42623" lon="3.68037">
        <ele>156.83</ele>
        <time>2017-04-30T14:04:03Z</time>
      </trkpt>
      <trkpt lat="49.42623" lon="3.68033">
        <ele>156.35</ele>
        <time>2017-04-30T14:04:05Z</time>
      </trkpt>
      <trkpt lat="49.42622" lon="3.68028">
        <ele>156.83</ele>
        <time>2017-04-30T14:04:07Z</time>
      </trkpt>
      <trkpt lat="49.42621" lon="3.68017">
        <ele>156.83</ele>
        <time>2017-04-30T14:04:13Z</time>
      </trkpt>
      <trkpt lat="49.42621" lon="3.68015">
        <ele>156.83</ele>
        <time>2017-04-30T14:04:14Z</time>
      </trkpt>
      <trkpt lat="49.42621" lon="3.68011">
        <ele>156.83</ele>
        <time>2017-04-30T14:04:16Z</time>
      </trkpt>
      <trkpt lat="49.42621" lon="3.68005">
        <ele>157.31</ele>
        <time>2017-04-30T14:04:18Z</time>
      </trkpt>
      <trkpt lat="49.42622" lon="3.67996">
        <ele>157.31</ele>
        <time>2017-04-30T14:04:22Z</time>
      </trkpt>
      <trkpt lat="49.4262" lon="3.67987">
        <ele>157.31</ele>
        <time>2017-04-30T14:04:27Z</time>
      </trkpt>
      <trkpt lat="49.42619" lon="3.67979">
        <ele>156.83</ele>
        <time>2017-04-30T14:04:35Z</time>
      </trkpt>
      <trkpt lat="49.42619" lon="3.67973">
        <ele>157.31</ele>
        <time>2017-04-30T14:04:43Z</time>
      </trkpt>
      <trkpt lat="49.42618" lon="3.67968">
        <ele>157.31</ele>
        <time>2017-04-30T14:04:48Z</time>
      </trkpt>
      <trkpt lat="49.42617" lon="3.67966">
        <ele>157.31</ele>
        <time>2017-04-30T14:04:50Z</time>
      </trkpt>
      <trkpt lat="49.42611" lon="3.67952">
        <ele>156.35</ele>
        <time>2017-04-30T14:04:58Z</time>
      </trkpt>
      <trkpt lat="49.42607" lon="3.67938">
        <ele>155.39</ele>
        <time>2017-04-30T14:05:05Z</time>
      </trkpt>
      <trkpt lat="49.42605" lon="3.67929">
        <ele>155.39</ele>
        <time>2017-04-30T14:05:10Z</time>
      </trkpt>
      <trkpt lat="49.42601" lon="3.67914">
        <ele>154.43</ele>
        <time>2017-04-30T14:05:18Z</time>
      </trkpt>
      <trkpt lat="49.426" lon="3.67913">
        <ele>154.43</ele>
        <time>2017-04-30T14:05:19Z</time>
      </trkpt>
      <trkpt lat="49.42598" lon="3.67897">
        <ele>153.95</ele>
        <time>2017-04-30T14:05:27Z</time>
      </trkpt>
      <trkpt lat="49.42597" lon="3.67893">
        <ele>153.95</ele>
        <time>2017-04-30T14:05:29Z</time>
      </trkpt>
      <trkpt lat="49.42596" lon="3.67876">
        <ele>153.95</ele>
        <time>2017-04-30T14:05:37Z</time>
      </trkpt>
      <trkpt lat="49.42596" lon="3.67866">
        <ele>153.47</ele>
        <time>2017-04-30T14:05:41Z</time>
      </trkpt>
      <trkpt lat="49.42595" lon="3.67858">
        <ele>153.47</ele>
        <time>2017-04-30T14:05:45Z</time>
      </trkpt>
      <trkpt lat="49.42594" lon="3.67846">
        <ele>152.99</ele>
        <time>2017-04-30T14:05:51Z</time>
      </trkpt>
      <trkpt lat="49.42589" lon="3.67834">
        <ele>151.54</ele>
        <time>2017-04-30T14:05:59Z</time>
      </trkpt>
      <trkpt lat="49.42585" lon="3.67818">
        <ele>150.58</ele>
        <time>2017-04-30T14:06:08Z</time>
      </trkpt>
      <trkpt lat="49.42581" lon="3.67803">
        <ele>150.1</ele>
        <time>2017-04-30T14:06:17Z</time>
      </trkpt>
      <trkpt lat="49.42579" lon="3.67791">
        <ele>150.1</ele>
        <time>2017-04-30T14:06:22Z</time>
      </trkpt>
      <trkpt lat="49.42578" lon="3.67787">
        <ele>149.62</ele>
        <time>2017-04-30T14:06:25Z</time>
      </trkpt>
      <trkpt lat="49.42577" lon="3.67782">
        <ele>149.62</ele>
        <time>2017-04-30T14:06:27Z</time>
      </trkpt>
      <trkpt lat="49.42576" lon="3.67773">
        <ele>148.18</ele>
        <time>2017-04-30T14:06:31Z</time>
      </trkpt>
      <trkpt lat="49.42577" lon="3.67765">
        <ele>146.74</ele>
        <time>2017-04-30T14:06:35Z</time>
      </trkpt>
      <trkpt lat="49.42576" lon="3.67762">
        <ele>146.74</ele>
        <time>2017-04-30T14:06:37Z</time>
      </trkpt>
      <trkpt lat="49.42576" lon="3.67761">
        <ele>146.26</ele>
        <time>2017-04-30T14:06:38Z</time>
      </trkpt>
      <trkpt lat="49.42576" lon="3.67757">
        <ele>145.78</ele>
        <time>2017-04-30T14:06:40Z</time>
      </trkpt>
      <trkpt lat="49.42578" lon="3.67749">
        <ele>145.3</ele>
        <time>2017-04-30T14:06:44Z</time>
      </trkpt>
      <trkpt lat="49.42584" lon="3.67733">
        <ele>144.34</ele>
        <time>2017-04-30T14:06:51Z</time>
      </trkpt>
      <trkpt lat="49.42591" lon="3.67722">
        <ele>143.37</ele>
        <time>2017-04-30T14:06:57Z</time>
      </trkpt>
      <trkpt lat="49.42598" lon="3.67713">
        <ele>142.41</ele>
        <time>2017-04-30T14:07:03Z</time>
      </trkpt>
      <trkpt lat="49.426" lon="3.67711">
        <ele>142.41</ele>
        <time>2017-04-30T14:07:05Z</time>
      </trkpt>
      <trkpt lat="49.42603" lon="3.67709">
        <ele>141.93</ele>
        <time>2017-04-30T14:07:07Z</time>
      </trkpt>
      <trkpt lat="49.42605" lon="3.67706">
        <ele>140.97</ele>
        <time>2017-04-30T14:07:09Z</time>
      </trkpt>
      <trkpt lat="49.42609" lon="3.677">
        <ele>140.97</ele>
        <time>2017-04-30T14:07:12Z</time>
      </trkpt>
      <trkpt lat="49.42615" lon="3.67694">
        <ele>140.49</ele>
        <time>2017-04-30T14:07:17Z</time>
      </trkpt>
      <trkpt lat="49.4262" lon="3.67688">
        <ele>138.57</ele>
        <time>2017-04-30T14:07:24Z</time>
      </trkpt>
      <trkpt lat="49.42622" lon="3.6768">
        <ele>138.09</ele>
        <time>2017-04-30T14:07:30Z</time>
      </trkpt>
      <trkpt lat="49.42625" lon="3.67677">
        <ele>139.53</ele>
        <time>2017-04-30T14:07:37Z</time>
      </trkpt>
      <trkpt lat="49.42627" lon="3.67677">
        <ele>139.05</ele>
        <time>2017-04-30T14:07:50Z</time>
      </trkpt>
      <trkpt lat="49.42629" lon="3.67676">
        <ele>138.57</ele>
        <time>2017-04-30T14:08:04Z</time>
      </trkpt>
      <trkpt lat="49.4263" lon="3.67676">
        <ele>139.05</ele>
        <time>2017-04-30T14:08:13Z</time>
      </trkpt>
      <trkpt lat="49.42631" lon="3.67675">
        <ele>139.53</ele>
        <time>2017-04-30T14:08:24Z</time>
      </trkpt>
      <trkpt lat="49.42632" lon="3.67674">
        <ele>138.57</ele>
        <time>2017-04-30T14:08:33Z</time>
      </trkpt>
      <trkpt lat="49.42633" lon="3.67673">
        <ele>139.05</ele>
        <time>2017-04-30T14:08:41Z</time>
      </trkpt>
      <trkpt lat="49.42634" lon="3.67673">
        <ele>138.09</ele>
        <time>2017-04-30T14:08:50Z</time>
      </trkpt>
      <trkpt lat="49.42633" lon="3.6767">
        <ele>138.09</ele>
        <time>2017-04-30T14:08:56Z</time>
      </trkpt>
      <trkpt lat="49.42632" lon="3.67666">
        <ele>136.64</ele>
        <time>2017-04-30T14:09:02Z</time>
      </trkpt>
      <trkpt lat="49.42629" lon="3.67662">
        <ele>136.64</ele>
        <time>2017-04-30T14:09:09Z</time>
      </trkpt>
      <trkpt lat="49.42627" lon="3.6766">
        <ele>136.16</ele>
        <time>2017-04-30T14:09:22Z</time>
      </trkpt>
      <trkpt lat="49.42626" lon="3.6766">
        <ele>136.16</ele>
        <time>2017-04-30T14:09:33Z</time>
      </trkpt>
      <trkpt lat="49.42624" lon="3.67657">
        <ele>134.72</ele>
        <time>2017-04-30T14:09:38Z</time>
      </trkpt>
      <trkpt lat="49.42617" lon="3.67653">
        <ele>133.76</ele>
        <time>2017-04-30T14:09:45Z</time>
      </trkpt>
      <trkpt lat="49.42611" lon="3.67651">
        <ele>133.28</ele>
        <time>2017-04-30T14:09:52Z</time>
      </trkpt>
      <trkpt lat="49.42609" lon="3.67649">
        <ele>133.28</ele>
        <time>2017-04-30T14:09:58Z</time>
      </trkpt>
      <trkpt lat="49.42607" lon="3.67649">
        <ele>133.28</ele>
        <time>2017-04-30T14:09:59Z</time>
      </trkpt>
      <trkpt lat="49.426" lon="3.67648">
        <ele>131.84</ele>
        <time>2017-04-30T14:10:05Z</time>
      </trkpt>
      <trkpt lat="49.42599" lon="3.67648">
        <ele>131.36</ele>
        <time>2017-04-30T14:10:06Z</time>
      </trkpt>
      <trkpt lat="49.42593" lon="3.67645">
        <ele>130.88</ele>
        <time>2017-04-30T14:10:13Z</time>
      </trkpt>
      <trkpt lat="49.42591" lon="3.67644">
        <ele>130.4</ele>
        <time>2017-04-30T14:10:20Z</time>
      </trkpt>
      <trkpt lat="49.42587" lon="3.67643">
        <ele>129.92</ele>
        <time>2017-04-30T14:10:27Z</time>
      </trkpt>
      <trkpt lat="49.42586" lon="3.67644">
        <ele>129.92</ele>
        <time>2017-04-30T14:10:36Z</time>
      </trkpt>
      <trkpt lat="49.42585" lon="3.67644">
        <ele>128.47</ele>
        <time>2017-04-30T14:10:39Z</time>
      </trkpt>
      <trkpt lat="49.42585" lon="3.67643">
        <ele>129.92</ele>
        <time>2017-04-30T14:10:43Z</time>
      </trkpt>
      <trkpt lat="49.42585" lon="3.67642">
        <ele>129.43</ele>
        <time>2017-04-30T14:10:53Z</time>
      </trkpt>
      <trkpt lat="49.42585" lon="3.67641">
        <ele>129.43</ele>
        <time>2017-04-30T14:10:59Z</time>
      </trkpt>
      <trkpt lat="49.42585" lon="3.67641">
        <ele>128.95</ele>
        <time>2017-04-30T14:11:06Z</time>
      </trkpt>
      <trkpt lat="49.42585" lon="3.67641">
        <ele>128.95</ele>
        <time>2017-04-30T14:11:10Z</time>
      </trkpt>
      <trkpt lat="49.42585" lon="3.6764">
        <ele>128.47</ele>
        <time>2017-04-30T14:11:12Z</time>
      </trkpt>
      <trkpt lat="49.4258" lon="3.67632">
        <ele>127.99</ele>
        <time>2017-04-30T14:11:18Z</time>
      </trkpt>
      <trkpt lat="49.42576" lon="3.67623">
        <ele>127.51</ele>
        <time>2017-04-30T14:11:22Z</time>
      </trkpt>
      <trkpt lat="49.4257" lon="3.67616">
        <ele>126.55</ele>
        <time>2017-04-30T14:11:27Z</time>
      </trkpt>
      <trkpt lat="49.4256" lon="3.67606">
        <ele>126.07</ele>
        <time>2017-04-30T14:11:34Z</time>
      </trkpt>
      <trkpt lat="49.4255" lon="3.67596">
        <ele>125.11</ele>
        <time>2017-04-30T14:11:42Z</time>
      </trkpt>
      <trkpt lat="49.4254" lon="3.67588">
        <ele>124.15</ele>
        <time>2017-04-30T14:11:50Z</time>
      </trkpt>
      <trkpt lat="49.42529" lon="3.67578">
        <ele>123.19</ele>
        <time>2017-04-30T14:11:59Z</time>
      </trkpt>
      <trkpt lat="49.42519" lon="3.6757">
        <ele>122.22</ele>
        <time>2017-04-30T14:12:07Z</time>
      </trkpt>
      <trkpt lat="49.42514" lon="3.67566">
        <ele>122.22</ele>
        <time>2017-04-30T14:12:11Z</time>
      </trkpt>
      <trkpt lat="49.42505" lon="3.67556">
        <ele>121.74</ele>
        <time>2017-04-30T14:12:20Z</time>
      </trkpt>
      <trkpt lat="49.42498" lon="3.6755">
        <ele>121.26</ele>
        <time>2017-04-30T14:12:27Z</time>
      </trkpt>
      <trkpt lat="49.42488" lon="3.6754">
        <ele>120.78</ele>
        <time>2017-04-30T14:12:36Z</time>
      </trkpt>
      <trkpt lat="49.42485" lon="3.67537">
        <ele>120.3</ele>
        <time>2017-04-30T14:12:39Z</time>
      </trkpt>
      <trkpt lat="49.42475" lon="3.67526">
        <ele>119.82</ele>
        <time>2017-04-30T14:12:48Z</time>
      </trkpt>
      <trkpt lat="49.42471" lon="3.67517">
        <ele>119.34</ele>
        <time>2017-04-30T14:12:54Z</time>
      </trkpt>
      <trkpt lat="49.42465" lon="3.67509">
        <ele>118.86</ele>
        <time>2017-04-30T14:13:00Z</time>
      </trkpt>
      <trkpt lat="49.42461" lon="3.67498">
        <ele>117.9</ele>
        <time>2017-04-30T14:13:06Z</time>
      </trkpt>
      <trkpt lat="49.42461" lon="3.67489">
        <ele>116.94</ele>
        <time>2017-04-30T14:13:13Z</time>
      </trkpt>
      <trkpt lat="49.42464" lon="3.67482">
        <ele>116.94</ele>
        <time>2017-04-30T14:13:21Z</time>
      </trkpt>
      <trkpt lat="49.42466" lon="3.67479">
        <ele>116.46</ele>
        <time>2017-04-30T14:13:25Z</time>
      </trkpt>
      <trkpt lat="49.42468" lon="3.67475">
        <ele>115.98</ele>
        <time>2017-04-30T14:13:28Z</time>
      </trkpt>
      <trkpt lat="49.42469" lon="3.67472">
        <ele>115.98</ele>
        <time>2017-04-30T14:13:31Z</time>
      </trkpt>
      <trkpt lat="49.42473" lon="3.67464">
        <ele>114.53</ele>
        <time>2017-04-30T14:13:38Z</time>
      </trkpt>
      <trkpt lat="49.42476" lon="3.67459">
        <ele>115.01</ele>
        <time>2017-04-30T14:13:43Z</time>
      </trkpt>
      <trkpt lat="49.42479" lon="3.67452">
        <ele>115.01</ele>
        <time>2017-04-30T14:13:49Z</time>
      </trkpt>
      <trkpt lat="49.4248" lon="3.6745">
        <ele>115.01</ele>
        <time>2017-04-30T14:13:50Z</time>
      </trkpt>
      <trkpt lat="49.42482" lon="3.67446">
        <ele>114.53</ele>
        <time>2017-04-30T14:13:53Z</time>
      </trkpt>
      <trkpt lat="49.42485" lon="3.67438">
        <ele>114.53</ele>
        <time>2017-04-30T14:13:58Z</time>
      </trkpt>
      <trkpt lat="49.42487" lon="3.67435">
        <ele>114.05</ele>
        <time>2017-04-30T14:14:01Z</time>
      </trkpt>
      <trkpt lat="49.42488" lon="3.67432">
        <ele>115.01</ele>
        <time>2017-04-30T14:14:03Z</time>
      </trkpt>
      <trkpt lat="49.42493" lon="3.6742">
        <ele>113.57</ele>
        <time>2017-04-30T14:14:10Z</time>
      </trkpt>
      <trkpt lat="49.42497" lon="3.67412">
        <ele>113.09</ele>
        <time>2017-04-30T14:14:15Z</time>
      </trkpt>
      <trkpt lat="49.42499" lon="3.67396">
        <ele>112.61</ele>
        <time>2017-04-30T14:14:24Z</time>
      </trkpt>
      <trkpt lat="49.42501" lon="3.67386">
        <ele>111.65</ele>
        <time>2017-04-30T14:14:30Z</time>
      </trkpt>
      <trkpt lat="49.42505" lon="3.67368">
        <ele>111.17</ele>
        <time>2017-04-30T14:14:38Z</time>
      </trkpt>
      <trkpt lat="49.42507" lon="3.67354">
        <ele>110.21</ele>
        <time>2017-04-30T14:14:45Z</time>
      </trkpt>
      <trkpt lat="49.42507" lon="3.67349">
        <ele>110.21</ele>
        <time>2017-04-30T14:14:48Z</time>
      </trkpt>
      <trkpt lat="49.42505" lon="3.67332">
        <ele>109.73</ele>
        <time>2017-04-30T14:14:57Z</time>
      </trkpt>
      <trkpt lat="49.42506" lon="3.67318">
        <ele>108.77</ele>
        <time>2017-04-30T14:15:05Z</time>
      </trkpt>
      <trkpt lat="49.42506" lon="3.67308">
        <ele>108.77</ele>
        <time>2017-04-30T14:15:10Z</time>
      </trkpt>
      <trkpt lat="49.42506" lon="3.67296">
        <ele>107.81</ele>
        <time>2017-04-30T14:15:17Z</time>
      </trkpt>
      <trkpt lat="49.42503" lon="3.67285">
        <ele>107.32</ele>
        <time>2017-04-30T14:15:24Z</time>
      </trkpt>
      <trkpt lat="49.42503" lon="3.67277">
        <ele>106.36</ele>
        <time>2017-04-30T14:15:29Z</time>
      </trkpt>
      <trkpt lat="49.42507" lon="3.67259">
        <ele>105.88</ele>
        <time>2017-04-30T14:15:37Z</time>
      </trkpt>
      <trkpt lat="49.42509" lon="3.67247">
        <ele>105.88</ele>
        <time>2017-04-30T14:15:42Z</time>
      </trkpt>
      <trkpt lat="49.42511" lon="3.6723">
        <ele>105.4</ele>
        <time>2017-04-30T14:15:49Z</time>
      </trkpt>
      <trkpt lat="49.42512" lon="3.67215">
        <ele>104.92</ele>
        <time>2017-04-30T14:15:55Z</time>
      </trkpt>
      <trkpt lat="49.42514" lon="3.67203">
        <ele>104.44</ele>
        <time>2017-04-30T14:16:02Z</time>
      </trkpt>
      <trkpt lat="49.42518" lon="3.67187">
        <ele>103.48</ele>
        <time>2017-04-30T14:16:10Z</time>
      </trkpt>
      <trkpt lat="49.4252" lon="3.67174">
        <ele>102.52</ele>
        <time>2017-04-30T14:16:16Z</time>
      </trkpt>
      <trkpt lat="49.42525" lon="3.6716">
        <ele>102.52</ele>
        <time>2017-04-30T14:16:24Z</time>
      </trkpt>
      <trkpt lat="49.4253" lon="3.67143">
        <ele>101.08</ele>
        <time>2017-04-30T14:16:32Z</time>
      </trkpt>
      <trkpt lat="49.42534" lon="3.67128">
        <ele>100.11</ele>
        <time>2017-04-30T14:16:40Z</time>
      </trkpt>
      <trkpt lat="49.42538" lon="3.67115">
        <ele>99.63</ele>
        <time>2017-04-30T14:16:47Z</time>
      </trkpt>
      <trkpt lat="49.4254" lon="3.67101">
        <ele>99.63</ele>
        <time>2017-04-30T14:16:54Z</time>
      </trkpt>
      <trkpt lat="49.42544" lon="3.67091">
        <ele>99.15</ele>
        <time>2017-04-30T14:17:01Z</time>
      </trkpt>
      <trkpt lat="49.42546" lon="3.6708">
        <ele>98.19</ele>
        <time>2017-04-30T14:17:07Z</time>
      </trkpt>
      <trkpt lat="49.4255" lon="3.67069">
        <ele>97.71</ele>
        <time>2017-04-30T14:17:13Z</time>
      </trkpt>
      <trkpt lat="49.42553" lon="3.67057">
        <ele>97.71</ele>
        <time>2017-04-30T14:17:20Z</time>
      </trkpt>
      <trkpt lat="49.42555" lon="3.67045">
        <ele>97.23</ele>
        <time>2017-04-30T14:17:27Z</time>
      </trkpt>
      <trkpt lat="49.42557" lon="3.6703">
        <ele>97.23</ele>
        <time>2017-04-30T14:17:34Z</time>
      </trkpt>
      <trkpt lat="49.42559" lon="3.67022">
        <ele>97.23</ele>
        <time>2017-04-30T14:17:38Z</time>
      </trkpt>
      <trkpt lat="49.42561" lon="3.67005">
        <ele>97.23</ele>
        <time>2017-04-30T14:17:46Z</time>
      </trkpt>
      <trkpt lat="49.42561" lon="3.66987">
        <ele>96.75</ele>
        <time>2017-04-30T14:17:55Z</time>
      </trkpt>
      <trkpt lat="49.42562" lon="3.66975">
        <ele>96.75</ele>
        <time>2017-04-30T14:18:01Z</time>
      </trkpt>
      <trkpt lat="49.42561" lon="3.66961">
        <ele>96.75</ele>
        <time>2017-04-30T14:18:08Z</time>
      </trkpt>
      <trkpt lat="49.42561" lon="3.66945">
        <ele>96.27</ele>
        <time>2017-04-30T14:18:16Z</time>
      </trkpt>
      <trkpt lat="49.42565" lon="3.66935">
        <ele>97.23</ele>
        <time>2017-04-30T14:18:23Z</time>
      </trkpt>
      <trkpt lat="49.42571" lon="3.66927">
        <ele>96.75</ele>
        <time>2017-04-30T14:18:30Z</time>
      </trkpt>
      <trkpt lat="49.42584" lon="3.66927">
        <ele>96.27</ele>
        <time>2017-04-30T14:18:41Z</time>
      </trkpt>
      <trkpt lat="49.42594" lon="3.66928">
        <ele>96.27</ele>
        <time>2017-04-30T14:18:49Z</time>
      </trkpt>
      <trkpt lat="49.42603" lon="3.66931">
        <ele>96.27</ele>
        <time>2017-04-30T14:18:57Z</time>
      </trkpt>
      <trkpt lat="49.42611" lon="3.66932">
        <ele>96.75</ele>
        <time>2017-04-30T14:19:03Z</time>
      </trkpt>
      <trkpt lat="49.42619" lon="3.66936">
        <ele>96.75</ele>
        <time>2017-04-30T14:19:11Z</time>
      </trkpt>
      <trkpt lat="49.42629" lon="3.66938">
        <ele>96.75</ele>
        <time>2017-04-30T14:19:19Z</time>
      </trkpt>
      <trkpt lat="49.42639" lon="3.66939">
        <ele>96.75</ele>
        <time>2017-04-30T14:19:26Z</time>
      </trkpt>
      <trkpt lat="49.4264" lon="3.66939">
        <ele>96.75</ele>
        <time>2017-04-30T14:19:33Z</time>
      </trkpt>
      <trkpt lat="49.42641" lon="3.66939">
        <ele>96.75</ele>
        <time>2017-04-30T14:19:42Z</time>
      </trkpt>
      <trkpt lat="49.42642" lon="3.6694">
        <ele>96.75</ele>
        <time>2017-04-30T14:19:53Z</time>
      </trkpt>
      <trkpt lat="49.42644" lon="3.6694">
        <ele>96.75</ele>
        <time>2017-04-30T14:19:55Z</time>
      </trkpt>
      <trkpt lat="49.42651" lon="3.6694">
        <ele>97.23</ele>
        <time>2017-04-30T14:20:00Z</time>
      </trkpt>
      <trkpt lat="49.42664" lon="3.66938">
        <ele>98.19</ele>
        <time>2017-04-30T14:20:11Z</time>
      </trkpt>
      <trkpt lat="49.42671" lon="3.66936">
        <ele>98.67</ele>
        <time>2017-04-30T14:20:18Z</time>
      </trkpt>
      <trkpt lat="49.42681" lon="3.66931">
        <ele>99.15</ele>
        <time>2017-04-30T14:20:26Z</time>
      </trkpt>
      <trkpt lat="49.42694" lon="3.66923">
        <ele>100.11</ele>
        <time>2017-04-30T14:20:37Z</time>
      </trkpt>
      <trkpt lat="49.42702" lon="3.66915">
        <ele>100.6</ele>
        <time>2017-04-30T14:20:45Z</time>
      </trkpt>
      <trkpt lat="49.42708" lon="3.66905">
        <ele>101.08</ele>
        <time>2017-04-30T14:20:53Z</time>
      </trkpt>
      <trkpt lat="49.42714" lon="3.66896">
        <ele>101.56</ele>
        <time>2017-04-30T14:21:00Z</time>
      </trkpt>
      <trkpt lat="49.42719" lon="3.66889">
        <ele>102.04</ele>
        <time>2017-04-30T14:21:05Z</time>
      </trkpt>
      <trkpt lat="49.42724" lon="3.66881">
        <ele>102.52</ele>
        <time>2017-04-30T14:21:12Z</time>
      </trkpt>
      <trkpt lat="49.42726" lon="3.66879">
        <ele>103</ele>
        <time>2017-04-30T14:21:14Z</time>
      </trkpt>
      <trkpt lat="49.42732" lon="3.66869">
        <ele>103.96</ele>
        <time>2017-04-30T14:21:22Z</time>
      </trkpt>
      <trkpt lat="49.42739" lon="3.66859">
        <ele>104.92</ele>
        <time>2017-04-30T14:21:30Z</time>
      </trkpt>
      <trkpt lat="49.42747" lon="3.6685">
        <ele>106.36</ele>
        <time>2017-04-30T14:21:38Z</time>
      </trkpt>
      <trkpt lat="49.42757" lon="3.66842">
        <ele>107.32</ele>
        <time>2017-04-30T14:21:47Z</time>
      </trkpt>
      <trkpt lat="49.42763" lon="3.66833">
        <ele>107.81</ele>
        <time>2017-04-30T14:21:55Z</time>
      </trkpt>
      <trkpt lat="49.42764" lon="3.66832">
        <ele>107.81</ele>
        <time>2017-04-30T14:21:56Z</time>
      </trkpt>
      <trkpt lat="49.42767" lon="3.66831">
        <ele>108.29</ele>
        <time>2017-04-30T14:21:59Z</time>
      </trkpt>
      <trkpt lat="49.42772" lon="3.66828">
        <ele>109.25</ele>
        <time>2017-04-30T14:22:04Z</time>
      </trkpt>
      <trkpt lat="49.42776" lon="3.66822">
        <ele>109.73</ele>
        <time>2017-04-30T14:22:11Z</time>
      </trkpt>
      <trkpt lat="49.42782" lon="3.66809">
        <ele>110.69</ele>
        <time>2017-04-30T14:22:20Z</time>
      </trkpt>
      <trkpt lat="49.4279" lon="3.66797">
        <ele>112.13</ele>
        <time>2017-04-30T14:22:30Z</time>
      </trkpt>
      <trkpt lat="49.42793" lon="3.66789">
        <ele>112.61</ele>
        <time>2017-04-30T14:22:36Z</time>
      </trkpt>
      <trkpt lat="49.42796" lon="3.6678">
        <ele>113.57</ele>
        <time>2017-04-30T14:22:42Z</time>
      </trkpt>
      <trkpt lat="49.42798" lon="3.66774">
        <ele>114.05</ele>
        <time>2017-04-30T14:22:46Z</time>
      </trkpt>
      <trkpt lat="49.42799" lon="3.66769">
        <ele>114.05</ele>
        <time>2017-04-30T14:22:49Z</time>
      </trkpt>
      <trkpt lat="49.42804" lon="3.6676">
        <ele>115.01</ele>
        <time>2017-04-30T14:22:55Z</time>
      </trkpt>
      <trkpt lat="49.42813" lon="3.66748">
        <ele>115.98</ele>
        <time>2017-04-30T14:23:03Z</time>
      </trkpt>
      <trkpt lat="49.42821" lon="3.6674">
        <ele>116.46</ele>
        <time>2017-04-30T14:23:11Z</time>
      </trkpt>
      <trkpt lat="49.42821" lon="3.66739">
        <ele>116.46</ele>
        <time>2017-04-30T14:23:12Z</time>
      </trkpt>
      <trkpt lat="49.42828" lon="3.6673">
        <ele>116.94</ele>
        <time>2017-04-30T14:23:20Z</time>
      </trkpt>
      <trkpt lat="49.42836" lon="3.66719">
        <ele>117.42</ele>
        <time>2017-04-30T14:23:29Z</time>
      </trkpt>
      <trkpt lat="49.42842" lon="3.6671">
        <ele>117.42</ele>
        <time>2017-04-30T14:23:36Z</time>
      </trkpt>
      <trkpt lat="49.42849" lon="3.66704">
        <ele>117.42</ele>
        <time>2017-04-30T14:23:43Z</time>
      </trkpt>
      <trkpt lat="49.42856" lon="3.66699">
        <ele>118.38</ele>
        <time>2017-04-30T14:23:48Z</time>
      </trkpt>
      <trkpt lat="49.42867" lon="3.66691">
        <ele>118.38</ele>
        <time>2017-04-30T14:23:57Z</time>
      </trkpt>
      <trkpt lat="49.42875" lon="3.66685">
        <ele>118.86</ele>
        <time>2017-04-30T14:24:05Z</time>
      </trkpt>
      <trkpt lat="49.42879" lon="3.66678">
        <ele>119.34</ele>
        <time>2017-04-30T14:24:12Z</time>
      </trkpt>
      <trkpt lat="49.42885" lon="3.66666">
        <ele>120.78</ele>
        <time>2017-04-30T14:24:21Z</time>
      </trkpt>
      <trkpt lat="49.42892" lon="3.66653">
        <ele>121.74</ele>
        <time>2017-04-30T14:24:30Z</time>
      </trkpt>
      <trkpt lat="49.429" lon="3.66642">
        <ele>122.22</ele>
        <time>2017-04-30T14:24:38Z</time>
      </trkpt>
      <trkpt lat="49.42904" lon="3.66635">
        <ele>123.19</ele>
        <time>2017-04-30T14:24:44Z</time>
      </trkpt>
      <trkpt lat="49.42912" lon="3.66625">
        <ele>123.19</ele>
        <time>2017-04-30T14:24:53Z</time>
      </trkpt>
      <trkpt lat="49.4292" lon="3.66616">
        <ele>124.63</ele>
        <time>2017-04-30T14:25:01Z</time>
      </trkpt>
      <trkpt lat="49.42928" lon="3.66607">
        <ele>125.11</ele>
        <time>2017-04-30T14:25:09Z</time>
      </trkpt>
      <trkpt lat="49.42938" lon="3.66597">
        <ele>125.59</ele>
        <time>2017-04-30T14:25:19Z</time>
      </trkpt>
      <trkpt lat="49.42947" lon="3.66589">
        <ele>125.59</ele>
        <time>2017-04-30T14:25:27Z</time>
      </trkpt>
      <trkpt lat="49.42956" lon="3.6658">
        <ele>126.55</ele>
        <time>2017-04-30T14:25:36Z</time>
      </trkpt>
      <trkpt lat="49.42964" lon="3.66572">
        <ele>127.03</ele>
        <time>2017-04-30T14:25:44Z</time>
      </trkpt>
      <trkpt lat="49.42971" lon="3.66565">
        <ele>127.51</ele>
        <time>2017-04-30T14:25:51Z</time>
      </trkpt>
      <trkpt lat="49.4298" lon="3.66556">
        <ele>129.43</ele>
        <time>2017-04-30T14:26:00Z</time>
      </trkpt>
      <trkpt lat="49.42988" lon="3.66548">
        <ele>129.92</ele>
        <time>2017-04-30T14:26:08Z</time>
      </trkpt>
      <trkpt lat="49.42998" lon="3.66539">
        <ele>131.84</ele>
        <time>2017-04-30T14:26:17Z</time>
      </trkpt>
      <trkpt lat="49.43007" lon="3.66533">
        <ele>132.32</ele>
        <time>2017-04-30T14:26:25Z</time>
      </trkpt>
      <trkpt lat="49.43014" lon="3.66525">
        <ele>132.8</ele>
        <time>2017-04-30T14:26:32Z</time>
      </trkpt>
      <trkpt lat="49.43019" lon="3.66519">
        <ele>134.24</ele>
        <time>2017-04-30T14:26:38Z</time>
      </trkpt>
      <trkpt lat="49.43026" lon="3.66513">
        <ele>135.2</ele>
        <time>2017-04-30T14:26:45Z</time>
      </trkpt>
      <trkpt lat="49.43031" lon="3.66503">
        <ele>136.16</ele>
        <time>2017-04-30T14:26:52Z</time>
      </trkpt>
      <trkpt lat="49.43032" lon="3.665">
        <ele>136.64</ele>
        <time>2017-04-30T14:26:54Z</time>
      </trkpt>
      <trkpt lat="49.43034" lon="3.66488">
        <ele>137.61</ele>
        <time>2017-04-30T14:27:01Z</time>
      </trkpt>
      <trkpt lat="49.43033" lon="3.66484">
        <ele>138.09</ele>
        <time>2017-04-30T14:27:04Z</time>
      </trkpt>
      <trkpt lat="49.43031" lon="3.66481">
        <ele>138.57</ele>
        <time>2017-04-30T14:27:07Z</time>
      </trkpt>
      <trkpt lat="49.43028" lon="3.66472">
        <ele>139.05</ele>
        <time>2017-04-30T14:27:12Z</time>
      </trkpt>
      <trkpt lat="49.43026" lon="3.66469">
        <ele>139.53</ele>
        <time>2017-04-30T14:27:15Z</time>
      </trkpt>
      <trkpt lat="49.43023" lon="3.66463">
        <ele>139.53</ele>
        <time>2017-04-30T14:27:19Z</time>
      </trkpt>
      <trkpt lat="49.4302" lon="3.66454">
        <ele>140.49</ele>
        <time>2017-04-30T14:27:24Z</time>
      </trkpt>
      <trkpt lat="49.43018" lon="3.6645">
        <ele>141.45</ele>
        <time>2017-04-30T14:27:27Z</time>
      </trkpt>
      <trkpt lat="49.43014" lon="3.66449">
        <ele>141.93</ele>
        <time>2017-04-30T14:27:30Z</time>
      </trkpt>
      <trkpt lat="49.43011" lon="3.66442">
        <ele>142.89</ele>
        <time>2017-04-30T14:27:34Z</time>
      </trkpt>
      <trkpt lat="49.43009" lon="3.66437">
        <ele>143.37</ele>
        <time>2017-04-30T14:27:37Z</time>
      </trkpt>
      <trkpt lat="49.43006" lon="3.66426">
        <ele>143.85</ele>
        <time>2017-04-30T14:27:44Z</time>
      </trkpt>
      <trkpt lat="49.43004" lon="3.66423">
        <ele>144.34</ele>
        <time>2017-04-30T14:27:47Z</time>
      </trkpt>
      <trkpt lat="49.42999" lon="3.66416">
        <ele>144.34</ele>
        <time>2017-04-30T14:27:53Z</time>
      </trkpt>
      <trkpt lat="49.42997" lon="3.66413">
        <ele>144.34</ele>
        <time>2017-04-30T14:27:55Z</time>
      </trkpt>
      <trkpt lat="49.42991" lon="3.66405">
        <ele>145.3</ele>
        <time>2017-04-30T14:28:02Z</time>
      </trkpt>
      <trkpt lat="49.42988" lon="3.66398">
        <ele>145.78</ele>
        <time>2017-04-30T14:28:06Z</time>
      </trkpt>
      <trkpt lat="49.42983" lon="3.66392">
        <ele>146.26</ele>
        <time>2017-04-30T14:28:11Z</time>
      </trkpt>
      <trkpt lat="49.42982" lon="3.6639">
        <ele>146.26</ele>
        <time>2017-04-30T14:28:12Z</time>
      </trkpt>
      <trkpt lat="49.4298" lon="3.6638">
        <ele>147.22</ele>
        <time>2017-04-30T14:28:17Z</time>
      </trkpt>
      <trkpt lat="49.4298" lon="3.6637">
        <ele>148.18</ele>
        <time>2017-04-30T14:28:22Z</time>
      </trkpt>
      <trkpt lat="49.42976" lon="3.66365">
        <ele>148.18</ele>
        <time>2017-04-30T14:28:26Z</time>
      </trkpt>
      <trkpt lat="49.42975" lon="3.66362">
        <ele>148.66</ele>
        <time>2017-04-30T14:28:28Z</time>
      </trkpt>
      <trkpt lat="49.42972" lon="3.66351">
        <ele>149.62</ele>
        <time>2017-04-30T14:28:34Z</time>
      </trkpt>
      <trkpt lat="49.42969" lon="3.6634">
        <ele>150.58</ele>
        <time>2017-04-30T14:28:41Z</time>
      </trkpt>
      <trkpt lat="49.42965" lon="3.66334">
        <ele>151.06</ele>
        <time>2017-04-30T14:28:46Z</time>
      </trkpt>
      <trkpt lat="49.42962" lon="3.66329">
        <ele>151.54</ele>
        <time>2017-04-30T14:28:49Z</time>
      </trkpt>
      <trkpt lat="49.4296" lon="3.66323">
        <ele>152.51</ele>
        <time>2017-04-30T14:28:54Z</time>
      </trkpt>
      <trkpt lat="49.42955" lon="3.66319">
        <ele>152.99</ele>
        <time>2017-04-30T14:28:59Z</time>
      </trkpt>
      <trkpt lat="49.42949" lon="3.66314">
        <ele>153.95</ele>
        <time>2017-04-30T14:29:06Z</time>
      </trkpt>
      <trkpt lat="49.42948" lon="3.66302">
        <ele>154.91</ele>
        <time>2017-04-30T14:29:12Z</time>
      </trkpt>
      <trkpt lat="49.42947" lon="3.66293">
        <ele>155.39</ele>
        <time>2017-04-30T14:29:17Z</time>
      </trkpt>
      <trkpt lat="49.42946" lon="3.66291">
        <ele>155.87</ele>
        <time>2017-04-30T14:29:19Z</time>
      </trkpt>
      <trkpt lat="49.42945" lon="3.66286">
        <ele>155.87</ele>
        <time>2017-04-30T14:29:22Z</time>
      </trkpt>
      <trkpt lat="49.42943" lon="3.66279">
        <ele>156.35</ele>
        <time>2017-04-30T14:29:27Z</time>
      </trkpt>
      <trkpt lat="49.42941" lon="3.66268">
        <ele>157.31</ele>
        <time>2017-04-30T14:29:32Z</time>
      </trkpt>
      <trkpt lat="49.4294" lon="3.66258">
        <ele>157.79</ele>
        <time>2017-04-30T14:29:37Z</time>
      </trkpt>
      <trkpt lat="49.42938" lon="3.66242">
        <ele>158.27</ele>
        <time>2017-04-30T14:29:44Z</time>
      </trkpt>
      <trkpt lat="49.42938" lon="3.6624">
        <ele>158.75</ele>
        <time>2017-04-30T14:29:45Z</time>
      </trkpt>
      <trkpt lat="49.42938" lon="3.66226">
        <ele>158.75</ele>
        <time>2017-04-30T14:29:51Z</time>
      </trkpt>
      <trkpt lat="49.4294" lon="3.66211">
        <ele>159.72</ele>
        <time>2017-04-30T14:29:55Z</time>
      </trkpt>
      <trkpt lat="49.4294" lon="3.66207">
        <ele>160.2</ele>
        <time>2017-04-30T14:29:57Z</time>
      </trkpt>
      <trkpt lat="49.4294" lon="3.66197">
        <ele>160.68</ele>
        <time>2017-04-30T14:30:01Z</time>
      </trkpt>
      <trkpt lat="49.42937" lon="3.6619">
        <ele>161.16</ele>
        <time>2017-04-30T14:30:06Z</time>
      </trkpt>
      <trkpt lat="49.42937" lon="3.66189">
        <ele>161.16</ele>
        <time>2017-04-30T14:30:07Z</time>
      </trkpt>
      <trkpt lat="49.42936" lon="3.66181">
        <ele>161.16</ele>
        <time>2017-04-30T14:30:11Z</time>
      </trkpt>
      <trkpt lat="49.42935" lon="3.6617">
        <ele>162.12</ele>
        <time>2017-04-30T14:30:17Z</time>
      </trkpt>
      <trkpt lat="49.42933" lon="3.66159">
        <ele>163.08</ele>
        <time>2017-04-30T14:30:23Z</time>
      </trkpt>
      <trkpt lat="49.42932" lon="3.6615">
        <ele>163.08</ele>
        <time>2017-04-30T14:30:28Z</time>
      </trkpt>
      <trkpt lat="49.42931" lon="3.66143">
        <ele>163.08</ele>
        <time>2017-04-30T14:30:32Z</time>
      </trkpt>
      <trkpt lat="49.42929" lon="3.66133">
        <ele>164.04</ele>
        <time>2017-04-30T14:30:38Z</time>
      </trkpt>
      <trkpt lat="49.42927" lon="3.66124">
        <ele>165</ele>
        <time>2017-04-30T14:30:43Z</time>
      </trkpt>
      <trkpt lat="49.42927" lon="3.66117">
        <ele>165.96</ele>
        <time>2017-04-30T14:30:49Z</time>
      </trkpt>
      <trkpt lat="49.42928" lon="3.66108">
        <ele>166.93</ele>
        <time>2017-04-30T14:30:55Z</time>
      </trkpt>
      <trkpt lat="49.42932" lon="3.66096">
        <ele>167.41</ele>
        <time>2017-04-30T14:31:01Z</time>
      </trkpt>
      <trkpt lat="49.42935" lon="3.66094">
        <ele>167.41</ele>
        <time>2017-04-30T14:31:09Z</time>
      </trkpt>
      <trkpt lat="49.42936" lon="3.66092">
        <ele>167.41</ele>
        <time>2017-04-30T14:31:19Z</time>
      </trkpt>
      <trkpt lat="49.42935" lon="3.66091">
        <ele>166.93</ele>
        <time>2017-04-30T14:31:31Z</time>
      </trkpt>
      <trkpt lat="49.42936" lon="3.66091">
        <ele>167.41</ele>
        <time>2017-04-30T14:31:39Z</time>
      </trkpt>
      <trkpt lat="49.42937" lon="3.6609">
        <ele>167.41</ele>
        <time>2017-04-30T14:31:52Z</time>
      </trkpt>
      <trkpt lat="49.42937" lon="3.6609">
        <ele>166.93</ele>
        <time>2017-04-30T14:32:06Z</time>
      </trkpt>
      <trkpt lat="49.42937" lon="3.66089">
        <ele>166.93</ele>
        <time>2017-04-30T14:32:18Z</time>
      </trkpt>
      <trkpt lat="49.42937" lon="3.66089">
        <ele>166.93</ele>
        <time>2017-04-30T14:32:31Z</time>
      </trkpt>
      <trkpt lat="49.42937" lon="3.66089">
        <ele>166.93</ele>
        <time>2017-04-30T14:32:44Z</time>
      </trkpt>
      <trkpt lat="49.42938" lon="3.66089">
        <ele>166.45</ele>
        <time>2017-04-30T14:32:50Z</time>
      </trkpt>
      <trkpt lat="49.42937" lon="3.66088">
        <ele>166.45</ele>
        <time>2017-04-30T14:33:04Z</time>
      </trkpt>
      <trkpt lat="49.42936" lon="3.66088">
        <ele>166.93</ele>
        <time>2017-04-30T14:33:21Z</time>
      </trkpt>
      <trkpt lat="49.42936" lon="3.66088">
        <ele>166.93</ele>
        <time>2017-04-30T14:33:34Z</time>
      </trkpt>
      <trkpt lat="49.42937" lon="3.66088">
        <ele>166.45</ele>
        <time>2017-04-30T14:33:49Z</time>
      </trkpt>
      <trkpt lat="49.42937" lon="3.66087">
        <ele>166.45</ele>
        <time>2017-04-30T14:34:04Z</time>
      </trkpt>
      <trkpt lat="49.42937" lon="3.66087">
        <ele>166.45</ele>
        <time>2017-04-30T14:34:15Z</time>
      </trkpt>
      <trkpt lat="49.42937" lon="3.66087">
        <ele>166.45</ele>
        <time>2017-04-30T14:34:26Z</time>
      </trkpt>
      <trkpt lat="49.42938" lon="3.66085">
        <ele>166.93</ele>
        <time>2017-04-30T14:34:32Z</time>
      </trkpt>
      <trkpt lat="49.42937" lon="3.66085">
        <ele>166.45</ele>
        <time>2017-04-30T14:34:37Z</time>
      </trkpt>
      <trkpt lat="49.42937" lon="3.66085">
        <ele>166.93</ele>
        <time>2017-04-30T14:34:48Z</time>
      </trkpt>
      <trkpt lat="49.42937" lon="3.66086">
        <ele>166.93</ele>
        <time>2017-04-30T14:34:59Z</time>
      </trkpt>
      <trkpt lat="49.42936" lon="3.66085">
        <ele>166.45</ele>
        <time>2017-04-30T14:35:02Z</time>
      </trkpt>
      <trkpt lat="49.42936" lon="3.66083">
        <ele>166.45</ele>
        <time>2017-04-30T14:35:08Z</time>
      </trkpt>
      <trkpt lat="49.42936" lon="3.66083">
        <ele>166.93</ele>
        <time>2017-04-30T14:35:19Z</time>
      </trkpt>
      <trkpt lat="49.42936" lon="3.66083">
        <ele>166.93</ele>
        <time>2017-04-30T14:35:30Z</time>
      </trkpt>
      <trkpt lat="49.42936" lon="3.66083">
        <ele>166.93</ele>
        <time>2017-04-30T14:35:39Z</time>
      </trkpt>
      <trkpt lat="49.42935" lon="3.66082">
        <ele>166.93</ele>
        <time>2017-04-30T14:35:51Z</time>
      </trkpt>
      <trkpt lat="49.42935" lon="3.66082">
        <ele>166.93</ele>
        <time>2017-04-30T14:35:57Z</time>
      </trkpt>
      <trkpt lat="49.42935" lon="3.66081">
        <ele>167.41</ele>
        <time>2017-04-30T14:36:08Z</time>
      </trkpt>
      <trkpt lat="49.42935" lon="3.66081">
        <ele>166.93</ele>
        <time>2017-04-30T14:36:19Z</time>
      </trkpt>
      <trkpt lat="49.42935" lon="3.66082">
        <ele>166.45</ele>
        <time>2017-04-30T14:36:29Z</time>
      </trkpt>
      <trkpt lat="49.42935" lon="3.66082">
        <ele>166.45</ele>
        <time>2017-04-30T14:36:38Z</time>
      </trkpt>
      <trkpt lat="49.42934" lon="3.66079">
        <ele>166.93</ele>
        <time>2017-04-30T14:36:45Z</time>
      </trkpt>
      <trkpt lat="49.42933" lon="3.66074">
        <ele>166.93</ele>
        <time>2017-04-30T14:36:49Z</time>
      </trkpt>
      <trkpt lat="49.4293" lon="3.66061">
        <ele>166.93</ele>
        <time>2017-04-30T14:36:57Z</time>
      </trkpt>
      <trkpt lat="49.42929" lon="3.66055">
        <ele>167.41</ele>
        <time>2017-04-30T14:37:00Z</time>
      </trkpt>
      <trkpt lat="49.42926" lon="3.66041">
        <ele>167.89</ele>
        <time>2017-04-30T14:37:08Z</time>
      </trkpt>
      <trkpt lat="49.42923" lon="3.66031">
        <ele>168.37</ele>
        <time>2017-04-30T14:37:14Z</time>
      </trkpt>
      <trkpt lat="49.42922" lon="3.66026">
        <ele>168.85</ele>
        <time>2017-04-30T14:37:17Z</time>
      </trkpt>
      <trkpt lat="49.42922" lon="3.66018">
        <ele>169.33</ele>
        <time>2017-04-30T14:37:21Z</time>
      </trkpt>
      <trkpt lat="49.42921" lon="3.66014">
        <ele>169.33</ele>
        <time>2017-04-30T14:37:24Z</time>
      </trkpt>
      <trkpt lat="49.42919" lon="3.6601">
        <ele>169.33</ele>
        <time>2017-04-30T14:37:27Z</time>
      </trkpt>
      <trkpt lat="49.42916" lon="3.66001">
        <ele>169.81</ele>
        <time>2017-04-30T14:37:33Z</time>
      </trkpt>
      <trkpt lat="49.42917" lon="3.65989">
        <ele>169.81</ele>
        <time>2017-04-30T14:37:39Z</time>
      </trkpt>
      <trkpt lat="49.42917" lon="3.65982">
        <ele>170.29</ele>
        <time>2017-04-30T14:37:43Z</time>
      </trkpt>
      <trkpt lat="49.42918" lon="3.65977">
        <ele>170.29</ele>
        <time>2017-04-30T14:37:46Z</time>
      </trkpt>
      <trkpt lat="49.4292" lon="3.65972">
        <ele>170.77</ele>
        <time>2017-04-30T14:37:48Z</time>
      </trkpt>
      <trkpt lat="49.42921" lon="3.65964">
        <ele>170.29</ele>
        <time>2017-04-30T14:37:52Z</time>
      </trkpt>
      <trkpt lat="49.42924" lon="3.65949">
        <ele>170.77</ele>
        <time>2017-04-30T14:38:00Z</time>
      </trkpt>
      <trkpt lat="49.42926" lon="3.65938">
        <ele>171.25</ele>
        <time>2017-04-30T14:38:06Z</time>
      </trkpt>
      <trkpt lat="49.42926" lon="3.65936">
        <ele>171.25</ele>
        <time>2017-04-30T14:38:08Z</time>
      </trkpt>
      <trkpt lat="49.42925" lon="3.6593">
        <ele>171.25</ele>
        <time>2017-04-30T14:38:12Z</time>
      </trkpt>
      <trkpt lat="49.42926" lon="3.65921">
        <ele>171.73</ele>
        <time>2017-04-30T14:38:17Z</time>
      </trkpt>
      <trkpt lat="49.42926" lon="3.65911">
        <ele>171.73</ele>
        <time>2017-04-30T14:38:22Z</time>
      </trkpt>
      <trkpt lat="49.42929" lon="3.65902">
        <ele>171.73</ele>
        <time>2017-04-30T14:38:27Z</time>
      </trkpt>
      <trkpt lat="49.42929" lon="3.659">
        <ele>171.73</ele>
        <time>2017-04-30T14:38:28Z</time>
      </trkpt>
      <trkpt lat="49.42929" lon="3.65886">
        <ele>171.25</ele>
        <time>2017-04-30T14:38:36Z</time>
      </trkpt>
      <trkpt lat="49.42929" lon="3.65876">
        <ele>171.25</ele>
        <time>2017-04-30T14:38:42Z</time>
      </trkpt>
      <trkpt lat="49.4293" lon="3.65872">
        <ele>171.73</ele>
        <time>2017-04-30T14:38:45Z</time>
      </trkpt>
      <trkpt lat="49.42935" lon="3.65867">
        <ele>172.21</ele>
        <time>2017-04-30T14:38:50Z</time>
      </trkpt>
      <trkpt lat="49.42942" lon="3.6586">
        <ele>172.21</ele>
        <time>2017-04-30T14:38:55Z</time>
      </trkpt>
      <trkpt lat="49.4295" lon="3.6585">
        <ele>173.17</ele>
        <time>2017-04-30T14:39:01Z</time>
      </trkpt>
      <trkpt lat="49.42959" lon="3.65839">
        <ele>174.14</ele>
        <time>2017-04-30T14:39:09Z</time>
      </trkpt>
      <trkpt lat="49.42967" lon="3.65832">
        <ele>174.62</ele>
        <time>2017-04-30T14:39:15Z</time>
      </trkpt>
      <trkpt lat="49.42968" lon="3.65829">
        <ele>174.62</ele>
        <time>2017-04-30T14:39:17Z</time>
      </trkpt>
      <trkpt lat="49.42976" lon="3.65821">
        <ele>175.1</ele>
        <time>2017-04-30T14:39:23Z</time>
      </trkpt>
      <trkpt lat="49.42978" lon="3.6582">
        <ele>175.1</ele>
        <time>2017-04-30T14:39:24Z</time>
      </trkpt>
      <trkpt lat="49.42981" lon="3.65817">
        <ele>175.58</ele>
        <time>2017-04-30T14:39:29Z</time>
      </trkpt>
      <trkpt lat="49.42986" lon="3.65812">
        <ele>175.58</ele>
        <time>2017-04-30T14:39:34Z</time>
      </trkpt>
      <trkpt lat="49.4299" lon="3.65805">
        <ele>175.1</ele>
        <time>2017-04-30T14:39:39Z</time>
      </trkpt>
      <trkpt lat="49.42993" lon="3.65795">
        <ele>175.1</ele>
        <time>2017-04-30T14:39:44Z</time>
      </trkpt>
      <trkpt lat="49.42996" lon="3.65782">
        <ele>174.62</ele>
        <time>2017-04-30T14:39:51Z</time>
      </trkpt>
      <trkpt lat="49.43001" lon="3.65769">
        <ele>174.62</ele>
        <time>2017-04-30T14:39:58Z</time>
      </trkpt>
      <trkpt lat="49.43008" lon="3.6575">
        <ele>174.14</ele>
        <time>2017-04-30T14:40:08Z</time>
      </trkpt>
      <trkpt lat="49.43016" lon="3.65734">
        <ele>173.66</ele>
        <time>2017-04-30T14:40:17Z</time>
      </trkpt>
      <trkpt lat="49.43017" lon="3.65731">
        <ele>173.66</ele>
        <time>2017-04-30T14:40:19Z</time>
      </trkpt>
      <trkpt lat="49.43021" lon="3.65724">
        <ele>173.17</ele>
        <time>2017-04-30T14:40:23Z</time>
      </trkpt>
      <trkpt lat="49.43029" lon="3.65705">
        <ele>173.17</ele>
        <time>2017-04-30T14:40:33Z</time>
      </trkpt>
      <trkpt lat="49.43034" lon="3.65692">
        <ele>172.21</ele>
        <time>2017-04-30T14:40:40Z</time>
      </trkpt>
      <trkpt lat="49.4304" lon="3.65678">
        <ele>172.21</ele>
        <time>2017-04-30T14:40:48Z</time>
      </trkpt>
      <trkpt lat="49.43048" lon="3.65674">
        <ele>172.21</ele>
        <time>2017-04-30T14:40:55Z</time>
      </trkpt>
      <trkpt lat="49.43049" lon="3.65675">
        <ele>172.21</ele>
        <time>2017-04-30T14:40:57Z</time>
      </trkpt>
      <trkpt lat="49.43054" lon="3.6568">
        <ele>172.69</ele>
        <time>2017-04-30T14:41:02Z</time>
      </trkpt>
      <trkpt lat="49.43062" lon="3.65686">
        <ele>172.69</ele>
        <time>2017-04-30T14:41:08Z</time>
      </trkpt>
      <trkpt lat="49.43068" lon="3.65695">
        <ele>172.21</ele>
        <time>2017-04-30T14:41:14Z</time>
      </trkpt>
      <trkpt lat="49.43072" lon="3.65701">
        <ele>172.69</ele>
        <time>2017-04-30T14:41:19Z</time>
      </trkpt>
      <trkpt lat="49.4308" lon="3.65709">
        <ele>172.21</ele>
        <time>2017-04-30T14:41:26Z</time>
      </trkpt>
      <trkpt lat="49.43085" lon="3.65715">
        <ele>172.69</ele>
        <time>2017-04-30T14:41:31Z</time>
      </trkpt>
      <trkpt lat="49.43088" lon="3.65719">
        <ele>172.69</ele>
        <time>2017-04-30T14:41:34Z</time>
      </trkpt>
      <trkpt lat="49.43094" lon="3.65726">
        <ele>172.69</ele>
        <time>2017-04-30T14:41:40Z</time>
      </trkpt>
      <trkpt lat="49.43097" lon="3.65729">
        <ele>172.69</ele>
        <time>2017-04-30T14:41:42Z</time>
      </trkpt>
      <trkpt lat="49.43098" lon="3.65733">
        <ele>172.69</ele>
        <time>2017-04-30T14:41:45Z</time>
      </trkpt>
      <trkpt lat="49.43107" lon="3.65742">
        <ele>173.17</ele>
        <time>2017-04-30T14:41:52Z</time>
      </trkpt>
      <trkpt lat="49.43108" lon="3.65745">
        <ele>173.66</ele>
        <time>2017-04-30T14:41:54Z</time>
      </trkpt>
      <trkpt lat="49.43114" lon="3.65754">
        <ele>173.66</ele>
        <time>2017-04-30T14:42:00Z</time>
      </trkpt>
      <trkpt lat="49.43122" lon="3.65762">
        <ele>174.62</ele>
        <time>2017-04-30T14:42:07Z</time>
      </trkpt>
      <trkpt lat="49.43125" lon="3.65768">
        <ele>174.14</ele>
        <time>2017-04-30T14:42:11Z</time>
      </trkpt>
      <trkpt lat="49.4313" lon="3.65773">
        <ele>173.66</ele>
        <time>2017-04-30T14:42:15Z</time>
      </trkpt>
      <trkpt lat="49.43137" lon="3.65779">
        <ele>174.14</ele>
        <time>2017-04-30T14:42:21Z</time>
      </trkpt>
      <trkpt lat="49.43141" lon="3.65784">
        <ele>174.14</ele>
        <time>2017-04-30T14:42:25Z</time>
      </trkpt>
      <trkpt lat="49.43146" lon="3.65788">
        <ele>173.66</ele>
        <time>2017-04-30T14:42:29Z</time>
      </trkpt>
      <trkpt lat="49.43149" lon="3.65794">
        <ele>173.66</ele>
        <time>2017-04-30T14:42:33Z</time>
      </trkpt>
      <trkpt lat="49.43158" lon="3.65802">
        <ele>174.14</ele>
        <time>2017-04-30T14:42:40Z</time>
      </trkpt>
      <trkpt lat="49.43163" lon="3.65808">
        <ele>174.62</ele>
        <time>2017-04-30T14:42:45Z</time>
      </trkpt>
      <trkpt lat="49.43164" lon="3.65809">
        <ele>174.62</ele>
        <time>2017-04-30T14:42:46Z</time>
      </trkpt>
      <trkpt lat="49.43168" lon="3.65817">
        <ele>174.14</ele>
        <time>2017-04-30T14:42:51Z</time>
      </trkpt>
      <trkpt lat="49.43175" lon="3.65826">
        <ele>174.14</ele>
        <time>2017-04-30T14:42:57Z</time>
      </trkpt>
      <trkpt lat="49.43181" lon="3.65833">
        <ele>174.62</ele>
        <time>2017-04-30T14:43:02Z</time>
      </trkpt>
      <trkpt lat="49.43184" lon="3.65839">
        <ele>175.1</ele>
        <time>2017-04-30T14:43:06Z</time>
      </trkpt>
      <trkpt lat="49.4319" lon="3.65846">
        <ele>175.1</ele>
        <time>2017-04-30T14:43:12Z</time>
      </trkpt>
      <trkpt lat="49.43195" lon="3.65852">
        <ele>174.62</ele>
        <time>2017-04-30T14:43:17Z</time>
      </trkpt>
      <trkpt lat="49.43198" lon="3.65857">
        <ele>175.1</ele>
        <time>2017-04-30T14:43:21Z</time>
      </trkpt>
      <trkpt lat="49.43204" lon="3.65863">
        <ele>174.62</ele>
        <time>2017-04-30T14:43:26Z</time>
      </trkpt>
      <trkpt lat="49.43211" lon="3.65872">
        <ele>174.62</ele>
        <time>2017-04-30T14:43:33Z</time>
      </trkpt>
      <trkpt lat="49.43213" lon="3.65876">
        <ele>174.14</ele>
        <time>2017-04-30T14:43:35Z</time>
      </trkpt>
      <trkpt lat="49.43215" lon="3.65882">
        <ele>174.62</ele>
        <time>2017-04-30T14:43:39Z</time>
      </trkpt>
      <trkpt lat="49.43222" lon="3.65887">
        <ele>174.62</ele>
        <time>2017-04-30T14:43:44Z</time>
      </trkpt>
      <trkpt lat="49.43222" lon="3.65888">
        <ele>174.62</ele>
        <time>2017-04-30T14:43:45Z</time>
      </trkpt>
      <trkpt lat="49.43225" lon="3.65891">
        <ele>174.14</ele>
        <time>2017-04-30T14:43:47Z</time>
      </trkpt>
      <trkpt lat="49.43231" lon="3.65899">
        <ele>174.62</ele>
        <time>2017-04-30T14:43:53Z</time>
      </trkpt>
      <trkpt lat="49.43239" lon="3.65904">
        <ele>174.62</ele>
        <time>2017-04-30T14:43:58Z</time>
      </trkpt>
      <trkpt lat="49.43239" lon="3.65905">
        <ele>174.14</ele>
        <time>2017-04-30T14:43:59Z</time>
      </trkpt>
      <trkpt lat="49.43242" lon="3.65908">
        <ele>174.14</ele>
        <time>2017-04-30T14:44:02Z</time>
      </trkpt>
      <trkpt lat="49.43248" lon="3.65914">
        <ele>174.14</ele>
        <time>2017-04-30T14:44:07Z</time>
      </trkpt>
      <trkpt lat="49.43253" lon="3.65917">
        <ele>174.62</ele>
        <time>2017-04-30T14:44:11Z</time>
      </trkpt>
      <trkpt lat="49.43258" lon="3.65923">
        <ele>174.62</ele>
        <time>2017-04-30T14:44:16Z</time>
      </trkpt>
      <trkpt lat="49.43265" lon="3.65927">
        <ele>174.14</ele>
        <time>2017-04-30T14:44:20Z</time>
      </trkpt>
      <trkpt lat="49.43272" lon="3.65931">
        <ele>174.62</ele>
        <time>2017-04-30T14:44:26Z</time>
      </trkpt>
      <trkpt lat="49.43278" lon="3.65935">
        <ele>174.62</ele>
        <time>2017-04-30T14:44:32Z</time>
      </trkpt>
      <trkpt lat="49.43285" lon="3.65938">
        <ele>173.66</ele>
        <time>2017-04-30T14:44:37Z</time>
      </trkpt>
      <trkpt lat="49.43287" lon="3.65938">
        <ele>173.66</ele>
        <time>2017-04-30T14:44:39Z</time>
      </trkpt>
      <trkpt lat="49.43292" lon="3.65942">
        <ele>173.17</ele>
        <time>2017-04-30T14:44:43Z</time>
      </trkpt>
      <trkpt lat="49.43295" lon="3.65943">
        <ele>173.17</ele>
        <time>2017-04-30T14:44:46Z</time>
      </trkpt>
      <trkpt lat="49.43299" lon="3.65945">
        <ele>172.69</ele>
        <time>2017-04-30T14:44:50Z</time>
      </trkpt>
      <trkpt lat="49.43305" lon="3.65947">
        <ele>172.21</ele>
        <time>2017-04-30T14:44:54Z</time>
      </trkpt>
      <trkpt lat="49.43305" lon="3.6595">
        <ele>172.21</ele>
        <time>2017-04-30T14:44:56Z</time>
      </trkpt>
      <trkpt lat="49.43308" lon="3.65954">
        <ele>172.21</ele>
        <time>2017-04-30T14:44:59Z</time>
      </trkpt>
      <trkpt lat="49.43311" lon="3.65958">
        <ele>172.21</ele>
        <time>2017-04-30T14:45:02Z</time>
      </trkpt>
      <trkpt lat="49.43318" lon="3.6596">
        <ele>172.21</ele>
        <time>2017-04-30T14:45:05Z</time>
      </trkpt>
      <trkpt lat="49.43318" lon="3.65963">
        <ele>172.21</ele>
        <time>2017-04-30T14:45:07Z</time>
      </trkpt>
      <trkpt lat="49.43323" lon="3.65972">
        <ele>172.21</ele>
        <time>2017-04-30T14:45:13Z</time>
      </trkpt>
      <trkpt lat="49.43329" lon="3.65977">
        <ele>172.21</ele>
        <time>2017-04-30T14:45:17Z</time>
      </trkpt>
      <trkpt lat="49.43334" lon="3.65984">
        <ele>172.21</ele>
        <time>2017-04-30T14:45:22Z</time>
      </trkpt>
      <trkpt lat="49.43339" lon="3.65989">
        <ele>172.21</ele>
        <time>2017-04-30T14:45:26Z</time>
      </trkpt>
      <trkpt lat="49.43346" lon="3.65999">
        <ele>172.21</ele>
        <time>2017-04-30T14:45:33Z</time>
      </trkpt>
      <trkpt lat="49.43348" lon="3.66001">
        <ele>172.21</ele>
        <time>2017-04-30T14:45:35Z</time>
      </trkpt>
      <trkpt lat="49.4335" lon="3.66005">
        <ele>172.21</ele>
        <time>2017-04-30T14:45:38Z</time>
      </trkpt>
      <trkpt lat="49.43356" lon="3.6601">
        <ele>172.21</ele>
        <time>2017-04-30T14:45:43Z</time>
      </trkpt>
      <trkpt lat="49.43361" lon="3.66017">
        <ele>172.69</ele>
        <time>2017-04-30T14:45:49Z</time>
      </trkpt>
      <trkpt lat="49.43366" lon="3.66024">
        <ele>172.69</ele>
        <time>2017-04-30T14:45:53Z</time>
      </trkpt>
      <trkpt lat="49.43368" lon="3.66028">
        <ele>173.17</ele>
        <time>2017-04-30T14:45:56Z</time>
      </trkpt>
      <trkpt lat="49.4337" lon="3.66031">
        <ele>173.17</ele>
        <time>2017-04-30T14:45:59Z</time>
      </trkpt>
      <trkpt lat="49.43376" lon="3.66036">
        <ele>173.17</ele>
        <time>2017-04-30T14:46:03Z</time>
      </trkpt>
      <trkpt lat="49.43381" lon="3.66043">
        <ele>173.17</ele>
        <time>2017-04-30T14:46:08Z</time>
      </trkpt>
      <trkpt lat="49.43386" lon="3.66049">
        <ele>173.17</ele>
        <time>2017-04-30T14:46:12Z</time>
      </trkpt>
      <trkpt lat="49.43392" lon="3.66054">
        <ele>173.17</ele>
        <time>2017-04-30T14:46:17Z</time>
      </trkpt>
      <trkpt lat="49.43393" lon="3.66055">
        <ele>173.17</ele>
        <time>2017-04-30T14:46:18Z</time>
      </trkpt>
      <trkpt lat="49.43395" lon="3.66058">
        <ele>173.17</ele>
        <time>2017-04-30T14:46:21Z</time>
      </trkpt>
      <trkpt lat="49.43399" lon="3.66061">
        <ele>173.66</ele>
        <time>2017-04-30T14:46:24Z</time>
      </trkpt>
      <trkpt lat="49.43403" lon="3.66065">
        <ele>173.66</ele>
        <time>2017-04-30T14:46:30Z</time>
      </trkpt>
      <trkpt lat="49.43409" lon="3.66068">
        <ele>173.66</ele>
        <time>2017-04-30T14:46:35Z</time>
      </trkpt>
      <trkpt lat="49.4341" lon="3.66071">
        <ele>173.66</ele>
        <time>2017-04-30T14:46:37Z</time>
      </trkpt>
      <trkpt lat="49.43413" lon="3.66076">
        <ele>173.66</ele>
        <time>2017-04-30T14:46:41Z</time>
      </trkpt>
      <trkpt lat="49.43422" lon="3.66087">
        <ele>173.66</ele>
        <time>2017-04-30T14:46:48Z</time>
      </trkpt>
      <trkpt lat="49.43428" lon="3.66093">
        <ele>175.1</ele>
        <time>2017-04-30T14:46:52Z</time>
      </trkpt>
      <trkpt lat="49.43433" lon="3.661">
        <ele>174.14</ele>
        <time>2017-04-30T14:46:57Z</time>
      </trkpt>
      <trkpt lat="49.43434" lon="3.66101">
        <ele>173.66</ele>
        <time>2017-04-30T14:46:58Z</time>
      </trkpt>
      <trkpt lat="49.43443" lon="3.66109">
        <ele>173.17</ele>
        <time>2017-04-30T14:47:04Z</time>
      </trkpt>
      <trkpt lat="49.4345" lon="3.66116">
        <ele>174.14</ele>
        <time>2017-04-30T14:47:10Z</time>
      </trkpt>
      <trkpt lat="49.43457" lon="3.66124">
        <ele>174.62</ele>
        <time>2017-04-30T14:47:16Z</time>
      </trkpt>
      <trkpt lat="49.43462" lon="3.66128">
        <ele>174.14</ele>
        <time>2017-04-30T14:47:20Z</time>
      </trkpt>
      <trkpt lat="49.43469" lon="3.66133">
        <ele>174.62</ele>
        <time>2017-04-30T14:47:25Z</time>
      </trkpt>
      <trkpt lat="49.43476" lon="3.66138">
        <ele>174.14</ele>
        <time>2017-04-30T14:47:30Z</time>
      </trkpt>
      <trkpt lat="49.43481" lon="3.66143">
        <ele>174.62</ele>
        <time>2017-04-30T14:47:34Z</time>
      </trkpt>
      <trkpt lat="49.43487" lon="3.66152">
        <ele>174.62</ele>
        <time>2017-04-30T14:47:40Z</time>
      </trkpt>
      <trkpt lat="49.43488" lon="3.66155">
        <ele>174.62</ele>
        <time>2017-04-30T14:47:42Z</time>
      </trkpt>
      <trkpt lat="49.43495" lon="3.6616">
        <ele>175.1</ele>
        <time>2017-04-30T14:47:47Z</time>
      </trkpt>
      <trkpt lat="49.43498" lon="3.66162">
        <ele>175.1</ele>
        <time>2017-04-30T14:47:50Z</time>
      </trkpt>
      <trkpt lat="49.43506" lon="3.66173">
        <ele>175.1</ele>
        <time>2017-04-30T14:47:57Z</time>
      </trkpt>
      <trkpt lat="49.43512" lon="3.66181">
        <ele>174.62</ele>
        <time>2017-04-30T14:48:04Z</time>
      </trkpt>
      <trkpt lat="49.43517" lon="3.66187">
        <ele>174.62</ele>
        <time>2017-04-30T14:48:09Z</time>
      </trkpt>
      <trkpt lat="49.4352" lon="3.66191">
        <ele>174.62</ele>
        <time>2017-04-30T14:48:12Z</time>
      </trkpt>
      <trkpt lat="49.43523" lon="3.66195">
        <ele>175.1</ele>
        <time>2017-04-30T14:48:15Z</time>
      </trkpt>
      <trkpt lat="49.43529" lon="3.66202">
        <ele>174.62</ele>
        <time>2017-04-30T14:48:20Z</time>
      </trkpt>
      <trkpt lat="49.43535" lon="3.66209">
        <ele>174.62</ele>
        <time>2017-04-30T14:48:25Z</time>
      </trkpt>
      <trkpt lat="49.43537" lon="3.66211">
        <ele>174.14</ele>
        <time>2017-04-30T14:48:27Z</time>
      </trkpt>
      <trkpt lat="49.43541" lon="3.66214">
        <ele>174.14</ele>
        <time>2017-04-30T14:48:30Z</time>
      </trkpt>
      <trkpt lat="49.43544" lon="3.66218">
        <ele>174.14</ele>
        <time>2017-04-30T14:48:33Z</time>
      </trkpt>
      <trkpt lat="49.43546" lon="3.6622">
        <ele>173.66</ele>
        <time>2017-04-30T14:48:35Z</time>
      </trkpt>
      <trkpt lat="49.43552" lon="3.66226">
        <ele>173.66</ele>
        <time>2017-04-30T14:48:40Z</time>
      </trkpt>
      <trkpt lat="49.43557" lon="3.66231">
        <ele>174.14</ele>
        <time>2017-04-30T14:48:44Z</time>
      </trkpt>
      <trkpt lat="49.43562" lon="3.66235">
        <ele>173.17</ele>
        <time>2017-04-30T14:48:47Z</time>
      </trkpt>
      <trkpt lat="49.4357" lon="3.66244">
        <ele>173.17</ele>
        <time>2017-04-30T14:48:53Z</time>
      </trkpt>
      <trkpt lat="49.43575" lon="3.66248">
        <ele>172.69</ele>
        <time>2017-04-30T14:48:57Z</time>
      </trkpt>
      <trkpt lat="49.4358" lon="3.66251">
        <ele>172.69</ele>
        <time>2017-04-30T14:49:00Z</time>
      </trkpt>
      <trkpt lat="49.43588" lon="3.66257">
        <ele>172.69</ele>
        <time>2017-04-30T14:49:06Z</time>
      </trkpt>
      <trkpt lat="49.43591" lon="3.66261">
        <ele>172.69</ele>
        <time>2017-04-30T14:49:09Z</time>
      </trkpt>
      <trkpt lat="49.43594" lon="3.66265">
        <ele>172.69</ele>
        <time>2017-04-30T14:49:12Z</time>
      </trkpt>
      <trkpt lat="49.436" lon="3.66271">
        <ele>172.69</ele>
        <time>2017-04-30T14:49:17Z</time>
      </trkpt>
      <trkpt lat="49.43604" lon="3.66275">
        <ele>172.69</ele>
        <time>2017-04-30T14:49:21Z</time>
      </trkpt>
      <trkpt lat="49.43609" lon="3.66279">
        <ele>172.21</ele>
        <time>2017-04-30T14:49:25Z</time>
      </trkpt>
      <trkpt lat="49.43616" lon="3.66285">
        <ele>172.21</ele>
        <time>2017-04-30T14:49:30Z</time>
      </trkpt>
      <trkpt lat="49.43621" lon="3.66291">
        <ele>172.69</ele>
        <time>2017-04-30T14:49:35Z</time>
      </trkpt>
      <trkpt lat="49.43622" lon="3.66293">
        <ele>172.69</ele>
        <time>2017-04-30T14:49:36Z</time>
      </trkpt>
      <trkpt lat="49.43624" lon="3.66295">
        <ele>172.69</ele>
        <time>2017-04-30T14:49:39Z</time>
      </trkpt>
      <trkpt lat="49.43627" lon="3.66299">
        <ele>172.69</ele>
        <time>2017-04-30T14:49:42Z</time>
      </trkpt>
      <trkpt lat="49.43634" lon="3.66306">
        <ele>172.69</ele>
        <time>2017-04-30T14:49:48Z</time>
      </trkpt>
      <trkpt lat="49.4364" lon="3.66312">
        <ele>173.17</ele>
        <time>2017-04-30T14:49:54Z</time>
      </trkpt>
      <trkpt lat="49.43643" lon="3.66314">
        <ele>173.17</ele>
        <time>2017-04-30T14:49:56Z</time>
      </trkpt>
      <trkpt lat="49.43649" lon="3.6632">
        <ele>173.17</ele>
        <time>2017-04-30T14:50:01Z</time>
      </trkpt>
      <trkpt lat="49.43653" lon="3.66324">
        <ele>172.69</ele>
        <time>2017-04-30T14:50:05Z</time>
      </trkpt>
      <trkpt lat="49.43657" lon="3.66325">
        <ele>172.69</ele>
        <time>2017-04-30T14:50:08Z</time>
      </trkpt>
      <trkpt lat="49.43661" lon="3.66328">
        <ele>172.69</ele>
        <time>2017-04-30T14:50:11Z</time>
      </trkpt>
      <trkpt lat="49.43667" lon="3.66331">
        <ele>172.69</ele>
        <time>2017-04-30T14:50:16Z</time>
      </trkpt>
      <trkpt lat="49.43669" lon="3.66331">
        <ele>172.69</ele>
        <time>2017-04-30T14:50:18Z</time>
      </trkpt>
      <trkpt lat="49.43676" lon="3.66335">
        <ele>172.69</ele>
        <time>2017-04-30T14:50:24Z</time>
      </trkpt>
      <trkpt lat="49.43679" lon="3.66336">
        <ele>172.69</ele>
        <time>2017-04-30T14:50:27Z</time>
      </trkpt>
      <trkpt lat="49.43689" lon="3.66342">
        <ele>171.73</ele>
        <time>2017-04-30T14:50:35Z</time>
      </trkpt>
      <trkpt lat="49.43696" lon="3.66347">
        <ele>172.21</ele>
        <time>2017-04-30T14:50:41Z</time>
      </trkpt>
      <trkpt lat="49.43704" lon="3.66352">
        <ele>172.21</ele>
        <time>2017-04-30T14:50:45Z</time>
      </trkpt>
      <trkpt lat="49.43706" lon="3.66354">
        <ele>172.21</ele>
        <time>2017-04-30T14:50:47Z</time>
      </trkpt>
      <trkpt lat="49.4371" lon="3.66355">
        <ele>172.69</ele>
        <time>2017-04-30T14:50:50Z</time>
      </trkpt>
      <trkpt lat="49.43713" lon="3.66357">
        <ele>172.69</ele>
        <time>2017-04-30T14:50:53Z</time>
      </trkpt>
      <trkpt lat="49.43716" lon="3.66357">
        <ele>172.69</ele>
        <time>2017-04-30T14:50:55Z</time>
      </trkpt>
      <trkpt lat="49.43722" lon="3.66358">
        <ele>171.73</ele>
        <time>2017-04-30T14:51:00Z</time>
      </trkpt>
      <trkpt lat="49.43731" lon="3.66363">
        <ele>172.21</ele>
        <time>2017-04-30T14:51:07Z</time>
      </trkpt>
      <trkpt lat="49.43737" lon="3.66367">
        <ele>172.21</ele>
        <time>2017-04-30T14:51:12Z</time>
      </trkpt>
      <trkpt lat="49.4374" lon="3.6637">
        <ele>172.21</ele>
        <time>2017-04-30T14:51:15Z</time>
      </trkpt>
      <trkpt lat="49.43747" lon="3.66374">
        <ele>172.21</ele>
        <time>2017-04-30T14:51:22Z</time>
      </trkpt>
      <trkpt lat="49.43749" lon="3.66376">
        <ele>172.21</ele>
        <time>2017-04-30T14:51:24Z</time>
      </trkpt>
      <trkpt lat="49.43757" lon="3.66382">
        <ele>172.69</ele>
        <time>2017-04-30T14:51:30Z</time>
      </trkpt>
      <trkpt lat="49.43764" lon="3.66385">
        <ele>172.69</ele>
        <time>2017-04-30T14:51:34Z</time>
      </trkpt>
      <trkpt lat="49.43771" lon="3.66389">
        <ele>172.21</ele>
        <time>2017-04-30T14:51:39Z</time>
      </trkpt>
      <trkpt lat="49.43776" lon="3.66391">
        <ele>172.69</ele>
        <time>2017-04-30T14:51:42Z</time>
      </trkpt>
      <trkpt lat="49.43787" lon="3.66398">
        <ele>173.17</ele>
        <time>2017-04-30T14:51:50Z</time>
      </trkpt>
      <trkpt lat="49.43793" lon="3.664">
        <ele>173.17</ele>
        <time>2017-04-30T14:51:55Z</time>
      </trkpt>
      <trkpt lat="49.43797" lon="3.66401">
        <ele>173.66</ele>
        <time>2017-04-30T14:51:58Z</time>
      </trkpt>
      <trkpt lat="49.43806" lon="3.66404">
        <ele>174.14</ele>
        <time>2017-04-30T14:52:03Z</time>
      </trkpt>
      <trkpt lat="49.43812" lon="3.66408">
        <ele>175.58</ele>
        <time>2017-04-30T14:52:07Z</time>
      </trkpt>
      <trkpt lat="49.43819" lon="3.66412">
        <ele>175.1</ele>
        <time>2017-04-30T14:52:12Z</time>
      </trkpt>
      <trkpt lat="49.43827" lon="3.66417">
        <ele>175.1</ele>
        <time>2017-04-30T14:52:18Z</time>
      </trkpt>
      <trkpt lat="49.43833" lon="3.66422">
        <ele>175.58</ele>
        <time>2017-04-30T14:52:23Z</time>
      </trkpt>
      <trkpt lat="49.43838" lon="3.66427">
        <ele>175.58</ele>
        <time>2017-04-30T14:52:27Z</time>
      </trkpt>
      <trkpt lat="49.43845" lon="3.66433">
        <ele>176.06</ele>
        <time>2017-04-30T14:52:33Z</time>
      </trkpt>
      <trkpt lat="49.43852" lon="3.6644">
        <ele>176.54</ele>
        <time>2017-04-30T14:52:39Z</time>
      </trkpt>
      <trkpt lat="49.4386" lon="3.66451">
        <ele>177.5</ele>
        <time>2017-04-30T14:52:46Z</time>
      </trkpt>
      <trkpt lat="49.43866" lon="3.66459">
        <ele>177.98</ele>
        <time>2017-04-30T14:52:52Z</time>
      </trkpt>
      <trkpt lat="49.43873" lon="3.66469">
        <ele>178.46</ele>
        <time>2017-04-30T14:52:59Z</time>
      </trkpt>
      <trkpt lat="49.4388" lon="3.66478">
        <ele>178.46</ele>
        <time>2017-04-30T14:53:06Z</time>
      </trkpt>
      <trkpt lat="49.43888" lon="3.66486">
        <ele>179.42</ele>
        <time>2017-04-30T14:53:12Z</time>
      </trkpt>
      <trkpt lat="49.43894" lon="3.66496">
        <ele>179.42</ele>
        <time>2017-04-30T14:53:19Z</time>
      </trkpt>
      <trkpt lat="49.43903" lon="3.66507">
        <ele>180.38</ele>
        <time>2017-04-30T14:53:27Z</time>
      </trkpt>
      <trkpt lat="49.4391" lon="3.66517">
        <ele>180.87</ele>
        <time>2017-04-30T14:53:34Z</time>
      </trkpt>
      <trkpt lat="49.43918" lon="3.66526">
        <ele>181.35</ele>
        <time>2017-04-30T14:53:41Z</time>
      </trkpt>
      <trkpt lat="49.43924" lon="3.66533">
        <ele>181.83</ele>
        <time>2017-04-30T14:53:47Z</time>
      </trkpt>
      <trkpt lat="49.4393" lon="3.66542">
        <ele>182.31</ele>
        <time>2017-04-30T14:53:53Z</time>
      </trkpt>
      <trkpt lat="49.43937" lon="3.6655">
        <ele>182.79</ele>
        <time>2017-04-30T14:53:59Z</time>
      </trkpt>
      <trkpt lat="49.43942" lon="3.66556">
        <ele>183.27</ele>
        <time>2017-04-30T14:54:04Z</time>
      </trkpt>
      <trkpt lat="49.43948" lon="3.66564">
        <ele>183.75</ele>
        <time>2017-04-30T14:54:10Z</time>
      </trkpt>
      <trkpt lat="49.43956" lon="3.66573">
        <ele>184.23</ele>
        <time>2017-04-30T14:54:17Z</time>
      </trkpt>
      <trkpt lat="49.43957" lon="3.66574">
        <ele>184.23</ele>
        <time>2017-04-30T14:54:18Z</time>
      </trkpt>
      <trkpt lat="49.4396" lon="3.66577">
        <ele>184.71</ele>
        <time>2017-04-30T14:54:21Z</time>
      </trkpt>
      <trkpt lat="49.43968" lon="3.66586">
        <ele>185.19</ele>
        <time>2017-04-30T14:54:28Z</time>
      </trkpt>
      <trkpt lat="49.43975" lon="3.66592">
        <ele>185.67</ele>
        <time>2017-04-30T14:54:34Z</time>
      </trkpt>
      <trkpt lat="49.43981" lon="3.666">
        <ele>186.63</ele>
        <time>2017-04-30T14:54:40Z</time>
      </trkpt>
      <trkpt lat="49.4399" lon="3.66607">
        <ele>186.63</ele>
        <time>2017-04-30T14:54:47Z</time>
      </trkpt>
      <trkpt lat="49.43996" lon="3.66614">
        <ele>187.11</ele>
        <time>2017-04-30T14:54:53Z</time>
      </trkpt>
      <trkpt lat="49.44003" lon="3.6662">
        <ele>187.59</ele>
        <time>2017-04-30T14:54:59Z</time>
      </trkpt>
      <trkpt lat="49.4401" lon="3.66625">
        <ele>187.59</ele>
        <time>2017-04-30T14:55:05Z</time>
      </trkpt>
      <trkpt lat="49.4402" lon="3.6663">
        <ele>188.08</ele>
        <time>2017-04-30T14:55:12Z</time>
      </trkpt>
      <trkpt lat="49.44027" lon="3.66638">
        <ele>188.08</ele>
        <time>2017-04-30T14:55:18Z</time>
      </trkpt>
      <trkpt lat="49.44036" lon="3.66648">
        <ele>188.56</ele>
        <time>2017-04-30T14:55:26Z</time>
      </trkpt>
      <trkpt lat="49.44042" lon="3.66655">
        <ele>189.04</ele>
        <time>2017-04-30T14:55:32Z</time>
      </trkpt>
      <trkpt lat="49.44049" lon="3.66663">
        <ele>189.04</ele>
        <time>2017-04-30T14:55:38Z</time>
      </trkpt>
      <trkpt lat="49.44056" lon="3.66671">
        <ele>189.52</ele>
        <time>2017-04-30T14:55:45Z</time>
      </trkpt>
      <trkpt lat="49.44063" lon="3.66678">
        <ele>189.52</ele>
        <time>2017-04-30T14:55:51Z</time>
      </trkpt>
      <trkpt lat="49.44068" lon="3.66686">
        <ele>190</ele>
        <time>2017-04-30T14:55:57Z</time>
      </trkpt>
      <trkpt lat="49.44075" lon="3.66697">
        <ele>190</ele>
        <time>2017-04-30T14:56:05Z</time>
      </trkpt>
      <trkpt lat="49.44081" lon="3.66703">
        <ele>190.48</ele>
        <time>2017-04-30T14:56:12Z</time>
      </trkpt>
      <trkpt lat="49.44082" lon="3.66704">
        <ele>190.48</ele>
        <time>2017-04-30T14:56:18Z</time>
      </trkpt>
      <trkpt lat="49.44082" lon="3.66703">
        <ele>189.52</ele>
        <time>2017-04-30T14:56:24Z</time>
      </trkpt>
      <trkpt lat="49.44084" lon="3.66704">
        <ele>190</ele>
        <time>2017-04-30T14:56:33Z</time>
      </trkpt>
      <trkpt lat="49.44085" lon="3.66705">
        <ele>190.48</ele>
        <time>2017-04-30T14:56:42Z</time>
      </trkpt>
      <trkpt lat="49.44086" lon="3.66705">
        <ele>190</ele>
        <time>2017-04-30T14:56:50Z</time>
      </trkpt>
      <trkpt lat="49.44088" lon="3.66706">
        <ele>190.48</ele>
        <time>2017-04-30T14:56:56Z</time>
      </trkpt>
      <trkpt lat="49.44088" lon="3.66706">
        <ele>190.48</ele>
        <time>2017-04-30T14:57:03Z</time>
      </trkpt>
      <trkpt lat="49.44088" lon="3.66706">
        <ele>190.48</ele>
        <time>2017-04-30T14:57:18Z</time>
      </trkpt>
      <trkpt lat="49.44088" lon="3.66707">
        <ele>190</ele>
        <time>2017-04-30T14:57:25Z</time>
      </trkpt>
      <trkpt lat="49.44089" lon="3.66707">
        <ele>190.48</ele>
        <time>2017-04-30T14:57:31Z</time>
      </trkpt>
      <trkpt lat="49.44089" lon="3.66707">
        <ele>190.48</ele>
        <time>2017-04-30T14:57:44Z</time>
      </trkpt>
      <trkpt lat="49.44089" lon="3.66707">
        <ele>190.48</ele>
        <time>2017-04-30T14:57:56Z</time>
      </trkpt>
      <trkpt lat="49.44089" lon="3.66707">
        <ele>190</ele>
        <time>2017-04-30T14:58:04Z</time>
      </trkpt>
      <trkpt lat="49.44089" lon="3.66707">
        <ele>190</ele>
        <time>2017-04-30T14:58:14Z</time>
      </trkpt>
      <trkpt lat="49.4409" lon="3.66709">
        <ele>190.48</ele>
        <time>2017-04-30T14:58:16Z</time>
      </trkpt>
      <trkpt lat="49.44096" lon="3.6672">
        <ele>190.48</ele>
        <time>2017-04-30T14:58:25Z</time>
      </trkpt>
      <trkpt lat="49.44102" lon="3.66731">
        <ele>190.48</ele>
        <time>2017-04-30T14:58:32Z</time>
      </trkpt>
      <trkpt lat="49.44109" lon="3.66742">
        <ele>190.96</ele>
        <time>2017-04-30T14:58:40Z</time>
      </trkpt>
      <trkpt lat="49.44116" lon="3.66752">
        <ele>190.96</ele>
        <time>2017-04-30T14:58:48Z</time>
      </trkpt>
      <trkpt lat="49.44123" lon="3.66764">
        <ele>191.44</ele>
        <time>2017-04-30T14:58:57Z</time>
      </trkpt>
      <trkpt lat="49.44131" lon="3.66773">
        <ele>190.96</ele>
        <time>2017-04-30T14:59:05Z</time>
      </trkpt>
      <trkpt lat="49.44134" lon="3.66775">
        <ele>191.44</ele>
        <time>2017-04-30T14:59:08Z</time>
      </trkpt>
      <trkpt lat="49.44144" lon="3.66784">
        <ele>190.96</ele>
        <time>2017-04-30T14:59:17Z</time>
      </trkpt>
      <trkpt lat="49.4415" lon="3.66785">
        <ele>190.48</ele>
        <time>2017-04-30T14:59:21Z</time>
      </trkpt>
      <trkpt lat="49.44162" lon="3.66784">
        <ele>190</ele>
        <time>2017-04-30T14:59:31Z</time>
      </trkpt>
      <trkpt lat="49.44172" lon="3.66778">
        <ele>189.52</ele>
        <time>2017-04-30T14:59:39Z</time>
      </trkpt>
      <trkpt lat="49.44185" lon="3.66778">
        <ele>189.52</ele>
        <time>2017-04-30T14:59:49Z</time>
      </trkpt>
      <trkpt lat="49.44196" lon="3.66782">
        <ele>190</ele>
        <time>2017-04-30T14:59:57Z</time>
      </trkpt>
      <trkpt lat="49.442" lon="3.66785">
        <ele>189.52</ele>
        <time>2017-04-30T15:00:01Z</time>
      </trkpt>
      <trkpt lat="49.44206" lon="3.66788">
        <ele>190</ele>
        <time>2017-04-30T15:00:07Z</time>
      </trkpt>
      <trkpt lat="49.44218" lon="3.66792">
        <ele>188.56</ele>
        <time>2017-04-30T15:00:17Z</time>
      </trkpt>
      <trkpt lat="49.4422" lon="3.66792">
        <ele>188.56</ele>
        <time>2017-04-30T15:00:18Z</time>
      </trkpt>
      <trkpt lat="49.44233" lon="3.66792">
        <ele>187.59</ele>
        <time>2017-04-30T15:00:27Z</time>
      </trkpt>
      <trkpt lat="49.44236" lon="3.66793">
        <ele>187.59</ele>
        <time>2017-04-30T15:00:29Z</time>
      </trkpt>
      <trkpt lat="49.44244" lon="3.66793">
        <ele>187.59</ele>
        <time>2017-04-30T15:00:36Z</time>
      </trkpt>
      <trkpt lat="49.44251" lon="3.66793">
        <ele>186.63</ele>
        <time>2017-04-30T15:00:42Z</time>
      </trkpt>
      <trkpt lat="49.44259" lon="3.66785">
        <ele>186.15</ele>
        <time>2017-04-30T15:00:50Z</time>
      </trkpt>
      <trkpt lat="49.44265" lon="3.66776">
        <ele>186.15</ele>
        <time>2017-04-30T15:00:56Z</time>
      </trkpt>
      <trkpt lat="49.44267" lon="3.66769">
        <ele>186.15</ele>
        <time>2017-04-30T15:01:00Z</time>
      </trkpt>
      <trkpt lat="49.44273" lon="3.66751">
        <ele>186.15</ele>
        <time>2017-04-30T15:01:10Z</time>
      </trkpt>
      <trkpt lat="49.44275" lon="3.66737">
        <ele>186.15</ele>
        <time>2017-04-30T15:01:17Z</time>
      </trkpt>
      <trkpt lat="49.44275" lon="3.66733">
        <ele>186.15</ele>
        <time>2017-04-30T15:01:19Z</time>
      </trkpt>
      <trkpt lat="49.44278" lon="3.66716">
        <ele>186.15</ele>
        <time>2017-04-30T15:01:28Z</time>
      </trkpt>
      <trkpt lat="49.44279" lon="3.66709">
        <ele>186.15</ele>
        <time>2017-04-30T15:01:35Z</time>
      </trkpt>
      <trkpt lat="49.4428" lon="3.66709">
        <ele>185.67</ele>
        <time>2017-04-30T15:01:38Z</time>
      </trkpt>
      <trkpt lat="49.44288" lon="3.66702">
        <ele>185.67</ele>
        <time>2017-04-30T15:01:46Z</time>
      </trkpt>
      <trkpt lat="49.44288" lon="3.66702">
        <ele>186.15</ele>
        <time>2017-04-30T15:01:51Z</time>
      </trkpt>
      <trkpt lat="49.44289" lon="3.66701">
        <ele>184.71</ele>
        <time>2017-04-30T15:01:53Z</time>
      </trkpt>
      <trkpt lat="49.4429" lon="3.66689">
        <ele>185.19</ele>
        <time>2017-04-30T15:02:00Z</time>
      </trkpt>
      <trkpt lat="49.44293" lon="3.6668">
        <ele>185.19</ele>
        <time>2017-04-30T15:02:06Z</time>
      </trkpt>
      <trkpt lat="49.443" lon="3.66672">
        <ele>184.23</ele>
        <time>2017-04-30T15:02:13Z</time>
      </trkpt>
      <trkpt lat="49.44308" lon="3.66671">
        <ele>184.23</ele>
        <time>2017-04-30T15:02:19Z</time>
      </trkpt>
      <trkpt lat="49.44309" lon="3.66671">
        <ele>184.71</ele>
        <time>2017-04-30T15:02:26Z</time>
      </trkpt>
      <trkpt lat="49.44309" lon="3.66671">
        <ele>184.71</ele>
        <time>2017-04-30T15:02:32Z</time>
      </trkpt>
      <trkpt lat="49.44309" lon="3.66673">
        <ele>184.23</ele>
        <time>2017-04-30T15:02:40Z</time>
      </trkpt>
      <trkpt lat="49.4431" lon="3.66674">
        <ele>183.75</ele>
        <time>2017-04-30T15:02:56Z</time>
      </trkpt>
      <trkpt lat="49.44311" lon="3.66676">
        <ele>183.75</ele>
        <time>2017-04-30T15:03:17Z</time>
      </trkpt>
      <trkpt lat="49.44312" lon="3.66675">
        <ele>184.23</ele>
        <time>2017-04-30T15:03:36Z</time>
      </trkpt>
      <trkpt lat="49.44313" lon="3.66676">
        <ele>184.23</ele>
        <time>2017-04-30T15:03:55Z</time>
      </trkpt>
      <trkpt lat="49.44313" lon="3.66677">
        <ele>183.75</ele>
        <time>2017-04-30T15:04:20Z</time>
      </trkpt>
      <trkpt lat="49.44313" lon="3.66678">
        <ele>184.23</ele>
        <time>2017-04-30T15:04:39Z</time>
      </trkpt>
      <trkpt lat="49.44313" lon="3.66678">
        <ele>183.27</ele>
        <time>2017-04-30T15:05:00Z</time>
      </trkpt>
      <trkpt lat="49.44313" lon="3.66678">
        <ele>184.23</ele>
        <time>2017-04-30T15:05:13Z</time>
      </trkpt>
    </trkseg>
  </trk>
</gpx>